GFSMW_sfc_thetae_000.txt.gz
Theta_e
307 307 309 310 313 316 317 318 318 319 318 318 317 318 319 320 322 324 326 327 327 325 322 321 321 321 320 319 318 319 319 319 321 319 320 322 326 327 328 332 333 333 333
307 308 308 310 313 316 317 317 318 317 318 317 318 319 319 320 322 324 326 328 327 325 322 321 321 320 319 318 317 318 317 318 320 317 317 315 320 325 328 328 330 332 335
306 308 307 309 313 315 317 317 317 318 318 318 319 319 319 319 320 321 322 323 324 325 324 322 321 320 318 317 317 318 319 317 318 320 319 314 313 319 325 328 329 332 334
307 307 307 310 313 315 317 317 317 318 319 320 318 317 317 316 317 319 320 321 324 324 324 323 321 320 319 317 318 319 321 321 318 320 323 321 322 317 316 325 328 332 332
307 307 308 312 315 316 317 317 317 318 319 320 319 319 317 317 318 318 319 320 322 325 323 322 320 319 319 319 319 319 320 321 320 321 322 322 323 323 322 315 322 327 330
307 307 309 314 313 315 316 317 317 317 318 319 320 319 317 317 316 316 316 317 318 321 321 321 320 320 320 319 320 320 320 320 322 323 324 323 321 319 320 320 321 321 326
307 308 310 311 311 313 315 316 316 316 318 319 320 318 319 317 316 316 316 315 316 318 319 319 319 320 321 322 321 322 321 321 323 323 324 324 324 325 325 325 321 320 325
307 308 310 311 312 313 315 315 314 316 317 319 319 319 319 317 316 316 316 315 315 316 318 320 321 322 323 323 323 323 322 323 324 324 324 324 325 328 328 324 323 318 320
307 308 310 310 312 313 314 314 313 315 316 318 319 319 320 317 317 317 317 316 316 318 319 320 321 322 323 323 323 324 325 325 325 324 325 326 326 328 329 327 328 322 317
307 309 309 310 311 313 314 314 314 314 314 317 318 320 321 319 318 318 317 317 317 319 320 320 321 322 323 324 324 325 327 327 324 325 327 326 327 327 327 327 327 324 323
308 310 309 310 311 312 312 313 314 314 314 317 316 322 321 320 317 319 318 318 317 318 320 321 322 322 323 323 325 326 326 326 326 326 326 325 326 327 326 327 327 324 325
309 310 310 309 310 311 311 311 313 313 314 317 317 321 322 320 318 319 318 318 318 319 320 322 322 322 322 323 324 325 326 326 325 325 326 324 325 326 325 327 325 325 326
308 308 308 308 309 309 310 310 312 314 314 316 315 320 320 319 318 318 318 318 319 320 322 323 323 322 323 323 323 323 324 326 325 326 325 325 326 325 325 326 325 325 326
309 309 308 307 308 309 309 311 312 313 313 314 317 319 319 319 318 319 319 319 321 321 322 323 323 323 324 323 322 322 324 326 326 325 325 326 325 325 324 324 324 325 324
308 309 309 307 306 307 309 312 312 311 312 313 318 318 318 319 319 319 320 320 322 322 323 324 324 324 324 323 322 323 324 325 325 325 325 325 324 321 323 325 324 325 323
309 310 310 309 307 308 308 311 312 311 313 312 317 318 318 319 319 319 319 320 320 322 323 324 324 324 325 306 312 320 323 326 326 323 323 323 319 316 314 315 316 321 323
310 310 311 310 309 309 310 310 311 311 312 312 318 318 318 319 318 318 318 318 318 320 321 321 323 323 321 302 306 311 325 325 324 324 325 325 323 322 322 312 312 313 313
312 312 312 311 310 311 310 311 311 310 311 311 316 317 317 318 317 317 317 315 315 318 318 318 321 321 317 302 303 310 324 324 325 326 326 325 325 321 323 324 323 323 323
314 313 313 312 309 311 312 311 310 310 311 311 314 315 316 317 316 316 315 314 314 314 315 316 320 321 317 300 301 317 325 324 325 326 324 325 325 304 308 324 320 315 313
314 313 314 312 310 311 312 311 309 309 310 311 313 313 316 317 316 315 314 313 314 314 313 314 319 314 319 300 302 316 324 321 321 322 322 311 317 300 304 318 315 313 312
314 314 313 312 312 310 312 311 309 309 312 313 313 312 316 316 316 315 314 313 312 312 312 311 312 316 316 312 300 306 322 320 319 320 319 320 304 300 298 304 315 312 310
313 314 313 313 312 311 313 311 309 312 312 313 313 311 313 317 316 316 314 313 312 310 309 309 308 308 312 305 300 301 308 310 319 318 318 315 299 298 297 303 301 297 303
313 314 314 313 311 312 314 311 312 310 311 312 312 310 310 318 316 316 314 312 312 310 309 309 309 309 306 306 301 299 299 302 316 318 311 298 296 295 298 297 296 297 312
312 314 313 311 310 312 314 315 312 311 311 311 311 310 309 313 317 317 316 314 312 311 310 310 310 310 307 306 306 309 307 301 307 303 302 299 299 298 301 301 301 308 314
312 314 313 312 312 312 313 313 312 310 310 311 310 310 310 312 317 317 316 317 317 313 313 312 312 310 309 308 301 305 309 311 306 301 303 303 303 302 301 301 303 307 312
312 313 314 312 312 312 313 313 312 311 310 309 308 309 310 310 316 316 311 295 300 302 299 300 310 313 305 298 295 294 295 295 294 304 304 304 304 304 303 302 301 305 309

GFSMW_sfc_thetae_003.txt.gz
Theta_e
320 320 321 322 322 325 328 332 334 335 333 330 329 331 331 333 334 336 338 338 339 337 336 333 329 328 329 331 330 329 327 328 331 327 327 329 331 331 334 336 336 337 340
318 319 319 320 323 324 329 333 334 333 333 331 332 334 335 335 335 337 337 338 337 336 335 331 329 328 328 329 329 328 325 327 330 324 323 319 323 329 332 337 338 338 341
318 319 317 318 323 324 328 331 332 333 333 334 333 334 335 334 333 334 335 336 334 334 334 332 330 330 329 328 328 327 325 322 325 329 325 318 314 321 331 333 333 335 337
317 318 317 318 322 324 328 331 332 333 333 334 333 334 331 330 332 333 334 334 333 333 333 332 331 331 330 328 327 326 325 326 324 327 331 330 329 318 319 331 332 335 335
315 318 317 319 322 325 328 330 332 333 334 334 334 333 333 331 332 332 331 332 333 332 330 331 331 330 329 329 328 327 327 331 329 328 326 329 331 331 327 318 327 333 336
316 317 319 321 323 326 328 329 331 332 334 334 334 335 332 330 328 329 329 330 330 330 330 330 330 330 330 329 328 329 329 330 332 332 330 330 327 326 329 322 325 324 330
316 316 318 320 323 325 327 328 330 330 333 333 333 333 332 330 327 327 328 326 326 327 329 330 329 330 331 331 331 331 330 330 330 331 331 330 333 334 333 328 327 323 327
316 317 319 321 323 325 327 327 330 329 331 332 333 333 333 329 328 328 327 326 327 327 330 329 330 331 331 331 332 332 330 331 333 332 331 331 330 333 334 328 326 323 325
316 317 319 322 323 326 327 329 329 330 330 332 333 333 333 329 329 329 328 326 328 327 328 329 330 330 331 332 332 333 332 331 331 332 331 331 334 336 339 339 337 331 320
316 317 319 321 324 326 328 330 329 329 330 330 333 332 333 330 330 329 327 327 327 328 328 328 330 331 331 333 333 332 331 331 332 332 333 332 335 333 337 333 331 332 325
316 317 318 322 323 326 327 328 327 327 327 329 331 332 332 330 329 329 328 327 328 328 327 328 328 329 331 333 332 331 329 329 331 333 328 329 334 332 334 335 330 330 326
317 318 319 321 322 323 326 326 327 327 326 329 329 331 333 330 328 329 329 328 327 327 327 329 328 329 330 332 331 328 327 326 327 328 327 328 331 332 334 335 333 333 327
317 317 318 319 321 322 324 324 326 326 325 327 328 332 332 331 331 329 329 329 328 328 329 330 329 329 330 331 331 330 328 328 328 330 328 329 329 331 333 333 333 332 327
317 317 318 320 320 322 323 322 323 326 325 326 327 330 330 331 330 329 329 329 330 329 331 331 330 330 330 330 330 329 328 328 329 329 330 331 329 332 331 329 331 333 327
316 317 318 319 320 321 322 322 322 324 325 325 327 329 330 329 330 329 329 330 331 330 331 331 330 331 330 328 329 329 328 329 328 331 331 332 328 323 323 331 326 330 327
316 317 319 320 320 320 320 321 322 323 325 325 327 327 327 327 329 329 330 330 330 331 331 330 329 330 328 306 313 324 328 330 331 330 331 331 324 318 314 314 316 324 326
317 318 319 320 320 320 321 321 323 323 323 324 327 326 327 326 328 328 329 329 329 331 331 330 330 330 329 303 305 311 329 329 330 332 331 329 328 327 329 313 313 313 312
318 319 320 322 322 322 322 322 324 322 321 322 326 326 326 326 327 328 327 328 329 330 330 330 331 331 327 301 303 309 328 328 328 332 332 331 332 329 329 328 328 327 327
321 322 323 324 323 321 322 321 322 321 321 320 325 325 326 326 326 327 327 326 328 329 328 328 330 330 325 301 302 317 325 326 328 330 332 332 330 305 309 327 328 329 325
323 322 324 324 323 323 323 321 321 321 320 320 323 325 325 327 327 329 327 326 329 328 325 327 331 320 325 300 301 318 329 327 328 326 325 311 321 300 307 331 329 326 325
324 324 323 322 323 324 323 321 321 320 322 322 322 325 326 328 329 329 327 326 326 325 324 325 327 329 325 318 300 306 324 327 328 327 328 327 299 299 303 308 326 322 324
322 323 322 323 324 323 323 322 321 323 324 322 321 323 326 326 326 328 327 325 327 324 323 323 323 326 328 311 300 301 310 314 325 325 326 323 301 299 299 309 296 298 310
322 323 322 323 323 323 324 323 323 324 322 322 322 323 323 326 327 327 326 323 325 323 322 321 322 322 324 327 302 299 301 306 327 328 315 299 297 296 303 298 296 299 320
322 323 323 322 321 322 323 325 324 322 322 322 323 323 322 324 326 326 325 324 322 321 319 320 321 321 322 325 327 324 319 303 316 307 312 305 305 300 309 311 309 322 321
322 322 323 322 321 322 323 325 324 322 322 323 322 322 321 323 325 326 325 324 326 321 322 321 321 322 321 321 316 319 325 326 317 314 317 318 320 321 320 320 319 319 321
321 322 322 323 322 321 322 323 323 322 324 322 321 320 319 320 323 325 322 296 302 302 299 304 315 321 308 298 297 298 298 297 296 317 318 318 319 319 319 318 317 318 315

GFSMW_sfc_thetae_006.txt.gz
Theta_e
322 325 328 330 331 334 335 336 338 348 345 339 334 333 332 335 335 337 341 342 341 341 341 339 337 337 333 330 333 334 332 331 332 331 330 330 332 333 331 333 335 338 339
320 324 329 330 331 333 335 337 340 343 342 337 337 334 334 333 336 339 341 342 341 340 339 338 337 334 329 332 333 331 331 331 332 328 327 320 325 328 331 333 336 338 340
318 323 327 328 331 332 335 337 341 341 340 340 337 338 338 338 334 335 336 339 339 338 338 337 335 334 335 334 333 332 329 326 330 332 328 320 316 321 329 334 335 338 342
320 324 326 327 330 331 335 339 339 338 338 339 337 336 329 328 333 334 337 336 336 335 335 336 334 335 334 333 332 331 331 330 328 331 329 331 331 318 319 334 335 337 339
322 323 327 328 330 333 335 337 338 338 338 338 338 333 333 332 334 334 334 336 337 335 333 334 334 333 332 333 332 330 331 331 330 326 327 329 328 329 321 323 329 337 339
322 325 327 329 330 333 334 336 336 337 338 337 337 337 336 333 332 332 331 331 334 333 333 332 333 334 334 332 331 332 331 333 333 332 329 330 328 323 330 330 330 331 335
324 324 325 327 329 330 332 333 334 334 336 336 336 337 338 335 333 331 332 330 331 329 331 333 333 335 335 334 333 333 333 333 332 332 328 330 331 340 334 333 329 327 331
324 325 326 327 327 329 331 331 333 333 334 334 336 337 337 332 332 332 332 331 331 329 334 334 333 334 334 334 336 335 333 334 333 332 334 335 335 336 340 337 330 324 329
324 325 326 327 328 330 330 332 332 331 332 334 336 337 336 333 332 334 334 331 332 330 332 332 333 334 334 334 334 334 334 334 332 334 336 338 335 334 345 346 337 330 322
323 325 326 327 329 330 331 333 332 330 332 335 335 335 336 335 334 333 331 331 332 330 331 331 334 334 334 333 334 336 334 334 332 332 333 333 334 338 338 338 340 340 328
323 324 325 328 329 331 331 332 329 330 331 333 335 335 335 334 334 333 331 331 332 331 329 329 331 332 332 334 335 333 331 331 332 334 332 334 336 338 335 338 337 334 330
323 324 325 327 328 329 329 328 329 329 330 332 333 334 334 335 334 333 332 331 330 331 329 329 329 330 332 334 333 330 328 329 330 329 333 333 333 337 338 335 333 330 328
322 323 325 325 327 327 327 326 327 327 329 331 332 333 333 333 333 333 334 332 330 330 329 330 329 330 331 333 333 332 328 328 331 333 334 334 336 335 335 335 331 327 327
322 323 324 325 326 326 325 324 326 327 328 329 331 332 333 334 334 333 332 332 331 330 332 332 331 331 330 332 332 330 328 330 332 332 334 334 333 335 334 334 333 331 327
322 323 323 325 326 325 324 323 325 326 328 328 329 331 333 334 333 332 332 332 332 332 332 332 331 332 331 329 330 329 333 332 330 331 331 331 327 321 328 336 331 332 328
322 322 324 325 325 324 323 323 324 325 328 327 328 330 330 331 332 332 332 332 332 332 331 331 331 331 328 307 315 325 331 333 333 332 330 331 326 317 313 315 316 329 329
322 323 324 326 326 325 323 323 324 325 326 327 327 328 329 330 331 331 331 331 332 334 332 332 332 331 330 305 306 311 331 334 333 334 333 329 328 326 326 313 313 313 312
324 324 326 327 327 325 324 324 325 323 324 326 326 328 328 330 331 332 331 333 334 334 333 333 333 331 326 303 303 309 333 334 333 333 333 333 330 330 331 329 326 327 327
327 327 328 329 328 325 324 323 323 322 322 323 326 327 328 329 329 330 333 334 334 334 333 333 333 332 328 302 303 316 328 332 331 333 334 332 333 307 309 331 329 328 322
329 328 329 329 327 326 325 324 322 321 321 322 326 328 329 329 329 332 332 335 334 332 331 332 334 321 330 301 302 315 328 331 330 333 333 308 325 302 307 333 331 328 328
329 330 330 328 327 326 325 323 322 321 322 323 326 328 330 331 332 334 333 334 332 331 331 332 333 332 327 323 300 305 333 332 329 330 329 327 300 301 305 312 335 328 330
328 329 328 328 328 327 325 323 322 323 323 322 324 327 330 329 331 334 332 332 331 331 331 332 331 332 330 314 303 301 312 317 331 330 330 319 297 299 301 309 298 305 316
327 329 329 327 327 327 325 323 324 323 323 323 323 326 329 330 332 332 331 328 329 327 328 328 328 330 331 330 301 301 304 308 328 332 313 299 298 298 305 297 297 301 330
327 329 329 326 326 327 325 325 326 324 323 323 324 325 327 329 331 330 329 327 325 323 324 326 327 328 330 330 330 328 326 308 323 309 319 313 311 301 314 314 312 325 328
326 329 328 327 326 327 326 326 325 324 323 324 324 324 324 328 329 330 329 327 329 322 322 323 326 327 328 329 321 323 330 331 322 325 326 327 328 327 328 328 325 325 325
326 328 329 328 327 327 326 326 325 324 324 324 324 322 321 323 327 329 329 297 304 305 303 304 314 323 308 303 303 305 302 299 301 324 326 326 326 325 326 325 324 324 319

GFSMW_sfc_thetae_009.txt.gz
Theta_e
322 326 327 332 333 339 343 348 348 353 351 347 343 339 336 338 337 338 340 341 341 343 342 340 339 339 339 338 336 335 329 333 336 333 330 334 333 334 331 332 331 334 336
320 323 327 329 336 337 341 342 344 353 352 348 346 341 340 336 336 337 341 341 340 341 341 339 337 338 339 335 333 333 331 331 336 328 329 322 327 329 330 331 333 335 336
320 322 324 329 335 337 339 340 342 348 351 350 345 343 340 338 335 334 336 339 339 339 339 338 337 337 336 334 335 334 331 329 331 332 330 321 316 321 329 331 332 336 338
321 323 323 333 334 336 339 341 344 347 347 348 343 347 335 330 332 336 335 336 336 336 336 337 336 337 336 335 334 334 332 331 328 333 335 333 331 320 318 328 336 340 340
321 321 323 333 334 337 339 343 344 343 344 346 346 336 338 333 333 333 335 338 339 336 333 335 335 335 338 335 334 332 331 335 333 332 331 329 327 326 327 319 326 337 342
321 323 332 333 334 337 340 340 339 340 340 339 339 341 336 334 331 332 332 335 335 334 334 333 334 335 335 334 335 333 333 335 335 337 330 326 325 323 321 329 331 330 335
325 327 329 330 333 335 336 337 337 336 338 337 337 338 338 337 335 333 333 332 332 335 334 333 334 335 336 335 335 334 334 335 333 333 331 331 329 334 332 331 331 327 334
326 327 329 331 332 334 335 335 335 335 335 336 337 337 338 333 332 333 332 332 331 332 334 333 335 335 334 335 336 339 337 335 336 334 336 335 331 335 340 335 333 327 328
327 328 330 331 332 332 333 335 335 334 335 335 336 337 337 334 335 336 336 333 336 331 332 333 333 334 334 333 335 336 334 335 334 336 336 335 341 338 337 342 336 336 323
327 328 329 330 332 332 334 335 335 334 333 335 335 335 335 335 336 335 333 333 333 331 331 331 333 333 333 333 335 335 335 334 333 334 335 336 333 338 339 342 341 339 330
326 327 328 330 331 332 333 334 332 332 333 334 335 335 335 333 335 334 333 332 333 331 330 330 330 330 331 335 336 335 333 331 334 334 333 334 336 339 339 338 337 334 329
326 327 328 329 330 331 332 330 331 330 332 332 334 335 335 335 335 334 333 332 331 330 329 329 329 329 332 333 333 331 330 331 331 333 333 332 334 336 337 334 333 331 327
326 327 328 328 329 330 329 328 329 329 330 331 332 334 333 334 335 334 335 331 330 329 329 330 328 330 332 333 332 330 331 331 332 333 334 334 335 334 334 332 330 329 326
325 326 327 328 329 329 327 326 327 328 329 330 331 332 333 333 335 333 332 331 329 329 332 330 331 331 331 332 332 328 331 331 332 333 335 334 335 335 333 331 328 325 323
323 325 326 327 328 328 326 326 327 327 329 329 330 332 333 334 333 332 332 331 330 331 332 331 331 332 332 330 333 333 333 329 330 333 332 332 326 324 329 329 329 325 323
323 325 326 327 327 326 324 325 326 326 328 328 329 331 331 331 332 332 333 332 333 331 333 331 330 332 329 307 313 323 334 332 332 329 328 328 326 318 314 318 320 323 323
323 325 326 328 328 326 325 324 326 326 328 328 329 329 330 330 331 331 330 330 334 336 333 331 332 332 329 306 306 311 334 335 334 333 332 328 326 325 327 313 313 314 313
325 326 328 329 328 327 325 326 325 325 326 327 328 329 329 330 330 331 332 333 336 334 333 333 333 332 326 306 305 310 335 336 334 334 333 330 331 329 329 328 328 326 325
328 328 330 331 329 326 325 325 323 325 325 326 327 328 330 330 331 330 333 336 337 336 335 334 333 332 328 304 303 316 334 332 333 333 333 333 331 309 310 330 325 322 319
330 329 330 331 328 326 326 325 323 323 324 326 328 329 330 330 330 332 334 335 336 334 334 333 334 322 330 304 301 315 333 332 331 334 332 310 323 305 308 331 326 321 321
331 332 331 330 328 327 326 324 323 322 325 326 329 330 332 331 334 334 334 334 333 333 335 333 334 333 330 323 302 304 334 333 332 328 329 326 300 304 309 316 327 325 326
329 331 330 330 328 327 325 324 323 324 325 325 328 330 332 331 333 335 333 332 333 332 334 333 332 331 332 314 304 303 309 316 332 327 329 318 300 301 308 318 303 305 316
329 331 330 330 328 327 326 324 325 324 325 325 328 330 332 331 334 333 330 328 330 330 331 330 329 328 330 328 304 306 305 311 333 331 312 300 299 298 304 301 303 306 329
329 331 331 329 326 327 326 326 326 324 324 324 327 329 329 330 332 330 329 326 326 328 328 327 327 328 329 329 329 329 326 309 321 311 320 315 311 303 312 312 313 329 330
329 331 330 329 327 327 326 326 326 324 324 326 326 328 328 330 330 331 328 326 331 322 326 328 329 329 328 329 321 323 329 331 323 326 328 327 328 327 322 323 326 328 329
329 330 331 331 328 327 326 326 326 325 325 327 325 325 326 328 329 329 329 298 303 304 304 302 315 327 310 305 304 304 302 302 305 326 326 325 326 326 325 324 324 325 321

GFSMW_sfc_thetae_012.txt.gz
Theta_e
325 326 331 333 336 343 351 355 353 356 351 348 346 345 341 342 344 345 346 343 344 344 343 341 340 339 336 334 334 331 329 329 330 326 326 327 329 330 331 330 331 330 331
321 323 328 334 334 344 351 352 354 354 350 349 348 347 343 340 340 343 344 344 343 344 339 340 338 338 335 333 331 330 327 328 327 321 322 317 321 327 330 328 329 329 330
318 320 323 327 342 343 346 347 349 350 351 352 349 351 347 343 341 342 342 342 342 341 339 339 337 335 334 331 331 331 328 325 327 326 320 315 313 319 325 328 327 327 331
322 322 324 328 338 340 343 344 346 351 350 352 347 342 336 336 338 339 339 340 340 337 337 338 336 336 334 333 331 333 330 327 322 326 327 326 323 315 314 323 326 328 330
320 320 323 335 337 339 341 343 347 348 349 348 344 341 340 341 341 339 340 340 340 338 336 336 336 334 334 334 332 331 329 329 326 324 324 324 323 323 319 315 320 327 331
321 324 333 335 336 339 341 345 345 345 343 343 343 342 343 340 336 336 336 337 337 337 336 334 333 334 334 334 333 332 330 328 327 326 326 323 320 319 319 317 319 320 326
327 330 330 332 334 337 340 340 340 337 341 341 340 343 342 341 338 337 337 334 334 335 334 334 330 332 335 335 334 333 331 329 328 326 326 326 325 326 324 320 320 319 324
328 329 331 331 334 337 337 336 337 336 338 338 340 342 342 337 339 338 335 335 334 333 335 331 332 335 335 334 334 333 333 332 330 329 329 328 329 329 327 324 320 318 321
327 329 331 332 334 335 336 336 336 336 337 338 340 340 341 337 338 338 339 336 335 333 334 333 334 335 334 334 332 330 332 332 333 331 331 329 331 330 331 329 328 321 317
327 329 330 332 334 335 336 337 336 335 336 338 338 336 338 338 338 338 337 335 335 335 334 331 334 334 332 331 332 333 333 332 332 333 332 330 331 331 332 331 329 327 321
326 328 330 332 334 334 336 336 335 334 335 336 338 337 336 333 334 335 334 334 335 333 332 331 330 330 329 332 333 332 332 331 331 332 330 332 331 330 329 329 329 328 322
326 327 329 330 330 332 333 333 333 331 334 334 335 336 336 333 335 335 331 335 334 333 332 331 328 330 331 333 330 331 330 330 330 331 330 330 332 329 330 329 327 323 322
326 327 328 328 329 331 330 330 330 331 331 334 333 334 334 332 335 333 334 334 333 331 332 327 330 331 333 331 329 330 330 331 331 331 331 328 328 328 329 327 324 323 322
325 327 327 328 329 330 328 328 328 330 330 332 331 333 331 333 335 333 331 334 331 331 328 330 331 332 332 333 330 330 331 326 329 329 329 330 329 329 327 326 325 323 321
324 325 326 328 330 329 327 327 327 328 331 330 330 332 332 333 333 329 331 330 333 331 332 328 329 332 331 326 330 330 327 328 325 326 327 325 327 325 324 325 323 322 322
323 325 327 329 329 327 325 326 326 328 330 330 330 332 332 332 331 330 332 333 333 331 330 332 330 331 325 308 316 326 329 329 329 324 328 327 321 319 315 317 316 321 322
323 325 327 328 329 327 327 326 326 328 329 329 329 329 331 330 331 330 330 330 330 331 330 330 330 328 323 305 305 315 331 331 329 327 326 326 325 324 322 311 312 312 311
324 326 328 330 330 327 327 328 326 326 327 327 328 329 328 329 330 331 330 332 334 333 329 331 332 328 319 305 303 308 333 333 330 329 327 327 328 325 325 325 323 322 323
327 329 331 331 330 327 326 326 325 326 326 326 327 328 329 330 329 330 333 333 334 333 331 333 333 328 324 306 302 316 332 331 329 330 330 329 326 308 310 324 321 320 319
329 329 331 331 329 329 327 326 323 325 325 326 327 330 330 330 330 333 334 335 336 331 333 333 333 320 325 304 302 311 333 330 329 329 323 309 319 306 310 324 321 319 320
331 332 332 330 330 330 328 326 324 324 327 328 328 331 332 334 335 337 337 336 330 332 332 330 332 330 327 316 302 303 331 330 329 326 323 315 303 303 306 313 323 320 321
328 331 331 330 330 329 326 325 324 327 327 328 328 331 334 331 333 336 338 336 332 330 331 330 329 330 329 313 304 303 311 316 327 326 324 310 303 304 306 316 303 304 314
328 330 331 330 329 328 326 326 326 327 326 328 331 332 332 334 335 333 335 331 333 330 329 329 326 327 327 324 305 305 309 311 327 327 309 298 299 299 306 302 303 306 325
327 332 331 329 327 327 327 328 327 325 325 329 332 333 332 334 333 332 330 328 330 329 329 327 326 326 326 326 327 325 319 311 316 309 312 310 310 310 312 310 310 327 328
329 332 331 330 327 327 326 328 327 325 327 329 331 332 331 333 333 332 327 328 331 324 328 329 329 326 325 326 320 323 328 327 320 322 324 325 321 321 322 324 324 326 327
330 331 333 332 328 327 326 326 326 326 329 327 328 328 328 329 329 329 324 298 303 301 299 301 322 328 314 305 305 306 306 303 304 323 323 324 324 319 321 322 322 325 323

GFSMW_sfc_thetae_015.txt.gz
Theta_e
315 316 319 321 320 321 326 330 335 342 345 342 340 337 335 332 332 333 336 336 336 335 333 331 331 330 327 326 326 325 323 321 322 319 319 321 324 324 324 324 325 328 327
313 315 316 318 320 321 331 336 341 343 343 343 340 337 334 331 331 333 332 334 333 332 333 331 331 327 326 325 324 323 320 320 320 316 318 315 317 321 324 323 324 324 325
310 312 313 313 318 333 336 340 343 342 340 342 341 336 331 331 329 329 331 332 333 332 331 329 328 327 326 323 322 322 320 315 318 319 316 313 311 313 318 322 325 322 325
313 314 313 312 329 333 336 336 340 341 341 341 337 333 328 325 327 326 329 332 331 331 330 329 328 326 324 323 322 324 320 318 315 318 322 321 320 312 309 317 320 324 323
311 312 313 318 331 333 333 335 339 338 340 337 333 328 327 328 328 328 327 327 327 329 329 328 327 325 325 323 323 322 321 320 317 316 316 318 320 320 316 309 314 320 326
313 316 328 330 331 334 335 337 336 335 335 334 330 328 328 326 326 325 325 326 326 326 326 327 325 325 324 324 324 322 322 323 321 319 318 316 315 317 315 311 312 314 318
322 324 326 328 331 334 336 335 331 331 332 330 330 328 327 326 325 323 324 324 324 323 323 324 323 324 326 327 326 323 321 321 321 320 319 320 319 318 319 314 312 314 317
323 324 325 328 332 333 332 330 328 329 328 330 329 329 327 326 325 325 325 324 323 323 323 323 324 326 327 327 326 325 323 323 322 321 320 320 320 322 321 318 315 313 319
322 324 326 330 330 329 329 328 328 328 328 329 329 327 328 327 326 325 324 324 323 324 323 324 325 326 327 327 324 323 322 324 322 322 322 321 322 323 323 321 320 320 315
322 323 326 328 329 328 329 328 328 327 328 329 328 327 328 327 326 325 324 322 323 325 324 323 325 325 328 327 325 323 325 324 323 325 324 323 323 323 325 324 323 324 318
321 324 326 328 327 329 328 327 327 327 327 327 326 325 327 327 325 325 323 322 323 322 322 324 326 327 326 326 325 324 325 324 324 324 324 325 324 323 324 324 324 321 319
322 324 325 326 326 327 327 326 326 326 327 328 327 326 325 327 325 324 326 323 321 322 322 324 326 329 328 325 325 324 324 324 324 324 325 325 327 323 325 324 321 321 321
322 323 323 324 325 325 325 325 324 325 326 328 329 328 326 327 324 324 326 323 323 321 324 326 328 329 327 326 325 325 325 325 323 324 324 324 325 324 323 322 321 321 320
321 322 322 323 324 324 324 323 322 324 326 330 328 326 327 327 325 324 326 323 323 320 325 326 329 328 328 328 326 328 326 325 325 325 326 327 326 324 322 322 321 320 319
320 321 321 322 323 320 322 322 321 322 326 328 328 326 326 329 327 327 324 324 321 324 326 326 328 324 323 325 326 327 326 324 324 325 325 326 325 322 322 322 321 321 319
320 321 322 323 322 320 319 320 320 321 327 328 326 327 326 329 327 326 326 326 324 326 325 326 324 320 321 307 311 322 326 326 325 325 324 323 320 315 313 314 315 319 320
320 322 323 323 321 320 318 318 319 320 326 327 326 327 327 325 324 327 325 324 323 325 325 325 321 317 314 303 305 310 327 325 324 322 325 324 321 320 320 312 312 312 311
321 322 323 322 321 319 318 319 319 320 322 324 324 326 326 326 326 325 322 323 323 324 324 323 320 316 312 303 302 310 327 327 326 325 325 324 322 322 323 322 321 321 322
321 323 324 323 319 319 319 318 317 319 321 322 323 325 326 325 326 326 322 323 323 323 322 323 319 316 312 304 301 319 326 326 325 326 327 325 322 307 308 322 320 320 319
322 324 324 322 319 318 318 317 316 317 319 322 323 327 326 326 325 323 323 324 323 325 325 325 320 314 315 303 301 315 326 323 321 321 321 311 317 304 307 321 320 318 319
322 325 323 320 319 319 318 316 315 316 320 323 323 327 325 324 326 325 325 324 324 324 324 322 320 319 316 311 301 307 325 323 321 320 320 316 304 303 304 311 321 318 320
323 324 322 321 320 320 319 316 314 318 321 322 325 328 327 329 328 325 325 325 323 322 320 321 320 320 318 309 303 303 315 316 321 319 316 310 301 301 302 312 300 303 312
321 325 322 320 319 319 319 317 316 319 321 321 325 325 325 326 326 324 323 323 323 323 321 321 320 318 318 313 304 305 308 311 320 318 308 300 301 300 302 298 301 306 319
321 324 322 320 318 318 318 320 318 319 320 324 323 323 326 325 325 324 324 322 322 322 324 321 320 318 318 318 317 314 313 307 309 303 304 307 310 308 309 309 312 321 320
323 325 322 320 319 319 318 321 319 318 320 325 324 322 326 326 323 319 316 320 321 325 324 322 322 320 317 319 315 316 319 318 313 312 313 313 315 314 315 316 319 321 321
321 324 324 321 321 320 319 321 319 318 320 324 325 323 324 326 324 315 311 298 300 300 309 310 319 322 313 304 304 307 304 302 303 316 316 314 313 317 318 317 318 320 317

GFSMW_sfc_thetae_021.txt.gz
Theta_e
310 312 313 314 313 313 314 315 324 327 332 331 330 329 332 331 332 334 336 335 334 334 333 329 327 327 326 326 324 322 321 321 323 320 315 316 319 320 323 323 323 324 325
308 310 312 313 313 314 314 314 321 327 332 333 334 330 333 329 329 332 334 335 335 334 331 328 327 326 325 323 322 320 317 318 319 314 311 309 313 318 322 323 322 322 324
306 309 310 310 312 311 313 315 321 329 331 331 330 327 327 327 325 328 330 331 332 332 330 328 327 325 324 322 320 319 318 316 314 315 312 306 305 313 319 322 323 322 319
306 307 309 308 308 311 311 316 323 330 332 332 330 329 326 326 323 329 326 327 330 330 329 328 326 324 322 320 319 320 318 316 313 313 316 313 313 310 309 317 321 322 319
306 305 307 307 307 311 324 328 331 333 333 331 330 327 324 323 324 326 324 328 325 328 328 328 326 322 320 320 320 319 317 317 315 313 312 312 313 315 313 310 313 319 318
304 307 319 322 323 331 331 332 333 331 331 331 328 327 324 324 324 324 323 322 322 325 328 325 323 321 320 320 320 320 319 318 316 314 313 313 311 313 315 312 309 312 315
309 317 315 322 327 330 330 332 331 327 326 326 325 325 324 324 324 323 323 321 322 320 320 321 320 319 321 321 321 320 319 317 317 316 314 315 314 317 318 313 309 310 318
317 319 321 324 327 327 328 329 326 324 324 325 323 322 323 323 324 323 322 321 321 320 320 320 320 321 322 323 322 321 320 318 318 317 315 315 316 317 318 316 312 313 317
317 322 324 325 325 324 324 325 324 322 322 322 322 321 322 322 322 321 320 320 320 320 320 320 320 321 322 323 322 321 320 320 319 319 316 315 316 318 318 316 315 313 311
320 323 323 323 322 323 323 324 324 322 322 323 324 323 321 321 321 321 320 320 319 319 320 319 319 321 323 324 321 320 319 319 319 320 320 317 317 317 317 317 316 315 313
322 322 322 323 323 322 323 323 323 323 322 323 322 322 321 321 321 320 319 318 318 319 320 321 320 321 321 323 320 321 320 321 319 320 321 320 320 318 318 318 316 315 314
322 322 323 323 323 321 323 323 323 322 322 322 321 320 320 320 319 319 318 319 319 319 320 320 320 323 323 322 321 322 323 321 321 320 321 321 322 317 317 316 317 316 316
320 321 322 322 322 321 322 323 322 321 322 322 321 320 320 319 318 318 318 319 317 317 318 319 323 324 323 322 324 324 322 320 320 320 321 322 320 319 321 321 319 318 319
321 321 321 322 322 322 322 323 321 322 322 323 321 321 320 321 319 319 318 317 319 318 318 325 325 324 324 325 327 326 324 320 321 322 323 323 323 321 321 320 319 319 319
320 321 321 321 321 320 321 322 322 322 322 323 322 322 322 323 320 319 319 318 319 318 325 324 321 320 321 319 323 323 321 320 320 323 323 322 323 321 319 319 319 319 318
320 321 322 322 321 321 321 321 321 321 324 324 322 323 323 322 321 319 318 318 318 322 325 322 319 317 318 304 306 319 323 324 323 321 322 321 318 315 313 314 314 318 318
320 320 322 322 322 322 321 318 319 321 325 325 324 326 323 322 323 321 319 318 320 323 323 317 316 314 314 301 306 310 323 322 323 323 321 321 319 317 316 310 310 310 310
320 321 322 322 321 320 318 317 317 322 325 324 323 324 323 321 323 323 317 317 323 323 319 315 314 314 313 300 306 311 321 323 323 322 321 320 319 318 319 319 319 319 319
320 322 323 322 320 317 316 316 318 321 322 322 322 323 322 319 320 318 317 317 317 317 315 314 313 315 316 299 306 317 323 323 322 322 323 322 320 304 306 319 317 317 315
320 322 323 321 318 317 315 316 318 319 320 322 323 323 321 320 319 318 317 317 317 317 318 315 315 311 316 300 303 315 324 322 321 320 318 308 314 301 304 319 318 315 315
320 321 322 318 318 315 315 314 317 318 321 323 323 322 320 319 319 318 318 318 318 319 317 315 314 316 314 311 302 306 322 323 320 319 317 313 299 301 302 309 319 315 315
320 321 320 317 314 316 316 313 316 319 320 320 321 320 319 323 321 319 318 319 318 317 315 313 313 316 314 303 301 301 307 312 321 319 318 309 298 299 300 309 299 301 308
321 320 319 314 314 315 316 313 315 317 318 319 319 319 321 321 320 318 318 317 316 316 314 314 316 315 314 314 300 298 299 304 318 319 310 297 295 296 299 298 299 306 316
318 318 315 315 313 312 313 315 313 317 319 319 318 319 320 319 319 320 319 318 316 315 316 315 313 313 313 314 314 312 309 304 309 305 306 305 305 303 303 306 310 318 315
317 317 317 315 314 313 313 312 315 319 318 319 319 319 319 319 318 317 316 319 318 317 318 316 316 314 313 315 309 311 314 314 310 312 314 317 316 314 314 314 314 315 314
320 320 318 315 313 314 313 313 316 320 320 318 319 319 319 318 317 313 309 298 300 303 305 305 312 316 308 299 298 299 298 297 300 315 317 317 317 316 316 316 312 313 312

GFSMW_sfc_thetae_024.txt.gz
Theta_e
308 309 311 312 312 312 312 313 313 320 331 331 329 328 330 331 332 334 334 334 334 334 332 331 330 329 329 329 329 327 326 325 326 322 321 321 324 325 326 328 328 328 330
305 307 309 309 310 312 313 313 314 324 331 332 330 330 330 330 332 333 335 335 335 334 333 331 330 329 328 328 327 325 322 323 324 320 316 315 319 321 325 327 327 327 329
304 306 306 307 309 309 311 313 314 323 329 330 329 327 327 327 327 330 332 334 335 334 333 331 330 328 329 327 325 324 323 321 319 320 318 312 311 314 322 324 326 326 326
304 305 307 307 309 309 309 311 314 322 328 330 329 328 324 323 325 329 330 332 334 333 332 330 329 328 327 325 324 324 322 321 318 318 319 318 317 314 313 319 321 325 324
301 303 305 306 306 309 308 311 317 327 329 330 329 327 325 323 326 327 328 329 329 331 330 329 329 328 326 325 323 323 321 321 320 318 316 317 318 319 317 313 316 320 322
300 302 304 320 322 329 328 329 328 328 329 329 327 325 324 325 325 325 325 325 326 327 328 329 328 326 324 323 323 324 322 321 320 319 318 318 317 316 318 315 313 315 320
300 301 315 321 328 328 330 330 329 326 326 327 326 325 326 326 325 325 323 323 323 324 326 325 324 324 323 324 324 323 323 322 320 320 319 319 319 321 321 317 314 314 320
300 313 318 326 328 329 328 326 326 324 325 325 323 324 326 326 326 326 325 324 322 323 324 325 323 323 324 324 324 324 323 323 321 321 320 320 321 322 320 317 316 315 318
310 320 324 327 325 324 323 324 323 323 323 323 323 323 324 325 323 322 323 323 322 323 323 323 322 323 324 325 325 324 324 324 322 322 321 320 320 322 321 322 322 320 313
319 321 323 322 321 322 322 322 322 322 322 322 323 323 323 324 323 323 322 322 322 322 322 322 323 324 325 326 326 325 324 323 322 323 322 320 321 321 323 322 321 321 319
320 322 321 321 320 322 322 321 322 322 322 322 322 322 322 323 323 322 322 322 321 321 322 323 323 324 325 325 324 324 324 323 323 323 324 323 323 322 322 322 321 321 321
321 321 321 320 320 320 321 320 321 321 322 322 322 321 321 321 321 320 320 320 320 321 323 323 323 324 324 325 324 324 325 323 323 324 324 324 324 323 323 322 321 321 322
320 321 320 320 320 320 321 320 321 321 322 322 321 320 320 320 320 319 320 321 321 321 322 322 323 326 325 325 325 324 325 323 324 324 324 324 323 322 322 322 321 322 323
320 321 320 319 320 322 322 321 320 322 322 322 320 319 320 320 320 320 320 320 321 320 322 326 326 326 326 326 327 327 325 323 324 325 325 325 323 322 322 322 321 322 321
321 320 319 319 319 320 321 321 321 321 322 322 321 320 322 322 320 320 319 320 321 321 326 325 323 323 323 319 322 325 324 323 323 325 325 325 323 321 321 322 321 322 319
321 320 321 320 320 320 320 321 321 321 323 322 322 323 323 322 321 321 319 320 320 324 326 324 321 320 319 303 308 319 325 324 323 322 322 322 318 316 312 314 315 319 319
320 320 321 321 321 321 321 320 320 323 323 323 324 326 323 322 322 320 320 320 320 325 323 320 320 318 318 300 306 311 324 324 323 322 321 319 318 318 317 310 311 310 311
320 321 321 321 321 320 320 319 320 323 324 323 324 325 323 322 324 321 319 320 324 324 322 318 317 318 314 301 307 309 325 323 322 322 320 319 318 318 320 320 319 320 319
321 321 322 321 319 319 319 318 319 322 325 322 324 324 323 321 322 319 320 320 322 322 319 317 317 319 318 302 305 317 323 323 322 322 321 321 319 303 306 319 317 316 314
321 321 321 320 318 317 317 317 318 321 321 322 323 324 323 321 320 320 319 320 320 320 319 317 319 312 318 301 303 317 324 320 320 320 318 308 313 300 305 319 317 315 315
321 321 321 319 319 315 316 316 318 320 322 324 323 323 322 321 321 320 321 320 320 320 319 318 318 319 315 311 301 308 323 320 319 318 316 313 299 299 301 309 320 315 317
320 322 320 318 316 315 317 316 317 321 322 324 323 322 321 322 321 320 321 321 320 320 317 316 317 318 318 304 301 301 308 312 320 318 317 306 297 297 299 309 299 302 311
320 321 320 316 314 316 317 316 318 320 321 321 321 321 323 321 321 320 320 319 319 319 316 316 317 317 318 314 299 297 300 306 319 320 306 296 295 296 299 297 299 305 317
321 320 316 316 313 315 316 318 316 319 320 320 320 321 322 320 321 321 321 320 319 318 318 317 316 317 318 318 315 313 312 305 309 305 307 303 303 302 304 309 315 319 318
318 318 317 317 315 314 314 314 317 319 319 320 320 321 321 321 320 319 319 321 321 318 320 319 318 317 317 318 310 312 318 318 311 311 316 318 316 315 316 318 319 318 318
318 318 316 316 315 314 313 314 317 320 320 319 320 320 320 320 320 317 313 297 301 302 303 304 313 318 305 297 297 296 296 298 301 317 317 317 317 316 316 317 317 318 315

GFSMW_sfc_thetae_027.txt.gz
Theta_e
315 318 320 324 326 332 333 335 332 335 331 336 337 338 337 339 338 340 342 342 342 341 341 338 339 338 337 338 340 339 339 336 335 329 329 331 334 335 335 336 336 335 337
312 316 319 323 326 328 330 333 332 334 334 337 341 340 340 340 341 340 341 343 342 343 341 340 338 339 336 341 338 336 333 333 330 328 324 322 326 330 332 334 334 336 336
311 314 316 320 324 326 329 330 332 333 337 340 341 341 341 337 336 339 340 342 342 342 342 340 337 337 340 337 336 341 337 331 327 328 326 320 318 325 331 330 333 335 337
311 313 315 319 322 323 325 325 327 330 336 342 340 340 337 334 336 335 340 339 343 341 341 339 338 340 339 335 340 339 337 334 328 324 328 327 326 321 320 326 330 335 332
310 310 312 315 318 320 325 337 333 328 335 341 342 340 339 339 340 340 337 336 341 343 340 340 341 342 337 337 340 337 334 332 330 327 326 325 326 327 324 321 323 327 330
310 311 312 315 318 331 335 336 335 333 337 340 341 342 341 339 337 338 334 337 340 340 341 341 342 342 340 339 336 336 335 333 331 329 328 325 323 323 325 323 320 321 322
311 313 312 318 330 333 334 333 336 336 338 339 340 341 341 340 340 339 338 338 337 338 339 341 340 338 338 336 335 335 334 333 331 331 328 328 326 327 330 325 319 318 321
312 311 318 329 331 334 333 337 337 337 339 338 338 340 340 339 339 340 338 336 337 337 339 339 338 336 335 335 335 333 333 334 332 332 331 330 328 328 330 323 318 317 319
314 314 327 331 331 332 337 338 338 337 337 337 337 337 338 339 339 339 340 337 338 336 337 336 335 334 334 335 335 333 334 334 333 332 332 331 330 329 325 325 321 323 317
316 324 327 329 332 337 337 338 338 336 336 336 337 336 337 338 337 338 337 337 336 336 335 334 334 333 334 334 336 337 336 334 332 332 332 332 330 330 327 328 328 330 328
321 324 327 330 334 335 336 335 335 335 335 335 335 336 335 335 337 336 336 335 335 334 333 332 332 332 333 335 336 336 334 330 333 333 332 331 332 329 329 330 329 327 331
322 324 327 331 333 333 333 333 334 334 334 335 335 334 335 335 334 334 334 333 332 332 332 331 331 331 331 333 333 331 331 328 331 331 331 330 331 332 332 330 331 329 330
322 324 327 331 331 331 331 331 331 331 332 332 332 333 333 333 334 333 332 331 331 331 332 331 330 331 332 332 333 326 327 329 332 332 331 331 333 331 330 329 328 329 329
322 324 327 331 330 330 329 330 330 331 331 331 331 331 332 332 331 331 331 331 331 331 330 331 332 333 333 333 331 330 329 327 332 333 333 332 333 331 327 327 327 329 328
322 324 325 328 329 328 328 329 329 330 330 329 330 330 331 331 330 330 331 331 330 330 333 333 332 332 332 325 328 331 329 326 330 331 333 334 330 323 325 327 327 327 323
322 324 327 328 328 328 328 328 328 329 330 329 329 330 330 330 330 330 330 330 329 332 332 331 330 330 327 303 307 320 329 328 327 326 328 328 322 318 313 315 316 323 323
322 325 328 329 329 328 329 327 328 330 330 329 330 330 330 329 328 329 328 329 331 331 328 331 328 328 329 301 304 310 328 326 326 325 325 324 324 322 323 310 310 311 311
327 329 330 329 330 331 330 329 329 330 330 329 329 330 329 328 328 328 329 330 332 328 328 329 327 329 322 303 304 310 328 326 324 324 325 324 323 325 325 323 322 322 321
330 331 331 331 331 330 330 329 329 330 330 329 329 329 328 327 327 327 330 332 329 327 328 329 327 329 324 303 303 316 325 324 322 322 321 321 320 304 306 322 318 317 315
331 331 331 331 331 331 330 328 329 330 329 330 330 329 328 328 328 329 330 332 333 328 328 327 328 316 325 301 303 318 325 323 322 322 320 307 313 300 304 322 319 313 313
330 331 331 329 331 331 330 328 328 328 331 332 331 330 330 329 330 331 331 331 332 329 329 327 328 327 322 318 301 308 326 324 320 318 317 312 299 300 302 309 319 314 316
328 329 329 330 331 329 329 328 328 331 331 331 330 330 330 328 329 330 331 331 331 329 328 327 327 325 322 305 301 303 310 313 321 319 317 308 298 299 300 311 300 302 312
327 330 329 329 329 329 329 328 330 330 329 330 329 330 330 329 330 330 330 328 330 329 326 326 325 323 322 315 298 299 302 307 321 321 306 296 296 297 300 298 300 305 321
326 329 329 327 327 328 328 330 329 330 330 330 329 327 329 329 330 330 330 329 328 327 326 325 325 324 322 318 321 317 315 305 309 305 311 305 305 306 311 312 317 326 325
325 328 328 328 327 327 328 329 329 329 330 330 330 330 330 329 330 330 328 331 332 325 327 327 327 325 322 321 314 318 322 321 314 315 320 322 319 317 320 322 324 326 326
323 323 326 327 327 326 327 327 328 330 330 329 329 328 329 329 329 328 325 296 301 300 301 305 316 324 306 299 298 297 298 299 301 319 319 319 321 321 323 324 324 325 320

GFSMW_sfc_thetae_030.txt.gz
Theta_e
320 321 322 325 326 331 339 341 343 352 342 336 338 341 341 345 345 345 348 348 347 346 346 343 342 342 339 339 341 339 342 344 344 337 333 334 337 338 336 338 340 340 340
317 319 321 323 326 333 338 342 343 346 343 338 344 344 345 344 345 345 348 348 345 347 346 345 343 342 337 340 342 343 338 342 343 333 331 323 327 333 334 336 337 338 341
315 318 319 323 325 329 336 337 341 344 344 345 344 347 347 348 345 345 343 343 347 346 346 346 345 343 339 337 341 347 341 340 336 338 329 321 318 325 331 333 335 338 341
316 317 318 320 324 325 328 332 337 338 338 345 348 351 343 340 342 344 342 346 346 345 345 344 345 344 338 343 345 346 340 340 334 333 333 333 329 320 322 331 333 338 338
315 316 317 319 321 323 326 332 335 342 342 345 350 346 346 344 345 344 346 343 345 344 344 346 344 342 340 347 344 343 342 340 333 329 328 329 327 330 324 323 328 334 337
314 316 319 320 321 323 325 333 342 345 342 344 347 349 348 348 344 345 336 339 340 343 345 344 345 346 346 346 344 342 341 338 334 331 330 328 325 323 326 326 327 328 331
314 316 317 319 322 329 335 340 343 342 342 343 345 347 350 349 349 339 340 343 341 341 344 347 348 347 347 344 343 341 338 336 333 334 330 330 328 328 333 330 326 324 328
319 321 320 319 325 333 339 342 342 341 343 344 346 349 350 347 347 347 345 344 343 344 348 347 346 345 345 342 340 336 334 337 335 336 335 333 332 329 336 331 326 323 320
325 324 321 330 336 340 343 343 343 344 345 346 347 348 348 349 347 348 348 344 346 345 346 346 345 342 340 339 339 333 335 336 338 337 336 336 337 330 332 327 325 322 315
321 322 330 337 341 343 345 346 346 345 346 346 347 347 348 348 348 346 344 344 344 344 343 342 340 338 337 337 338 335 337 337 341 334 335 336 335 332 324 327 326 326 326
324 327 332 338 342 343 344 345 344 344 344 345 345 345 344 345 345 343 343 343 343 342 339 337 336 335 335 337 339 338 336 334 335 335 334 334 335 332 330 330 334 335 333
324 328 332 339 340 341 342 342 343 342 343 343 343 343 342 342 342 341 341 341 339 337 335 334 333 333 334 337 336 334 334 332 331 333 333 332 333 334 335 338 335 335 338
324 327 332 336 337 339 339 340 340 340 341 341 341 341 341 341 340 339 339 337 336 334 333 333 333 332 333 335 336 334 333 329 332 334 333 332 334 334 335 336 334 334 337
324 326 330 331 335 337 337 337 337 338 337 338 338 338 339 339 338 337 336 334 333 333 333 333 332 333 334 336 336 333 335 334 334 335 335 334 334 335 334 334 334 336 335
322 325 327 330 331 334 335 334 334 334 335 333 333 334 336 336 335 334 334 333 333 332 333 333 333 335 336 332 336 335 335 330 333 335 335 336 331 323 329 333 334 333 329
322 325 328 329 329 333 332 332 330 329 330 330 331 333 333 333 334 334 334 333 333 334 333 333 332 334 331 306 307 320 331 334 333 333 333 335 327 322 316 316 318 328 330
323 325 330 329 329 332 332 328 328 330 331 331 331 332 332 331 332 331 331 331 334 334 334 334 332 333 335 304 304 311 330 330 330 329 329 330 327 326 328 312 311 312 311
325 326 330 332 332 333 331 329 330 330 330 330 330 331 329 329 329 329 330 333 333 335 335 334 334 334 329 305 304 309 330 327 326 329 329 330 328 327 328 328 327 327 328
328 333 333 334 332 332 328 329 329 330 329 328 330 329 329 328 329 328 331 334 334 334 335 333 334 334 331 304 304 318 326 324 322 323 327 328 327 306 307 327 323 321 319
332 331 333 334 334 332 330 329 329 329 327 328 329 330 329 327 328 330 331 334 334 333 331 333 335 320 330 302 305 318 326 323 322 324 324 309 316 300 305 326 322 318 318
332 334 334 333 333 331 330 329 330 327 330 331 331 330 331 330 331 332 334 332 332 332 333 332 334 331 327 321 304 309 326 323 321 319 319 316 299 299 302 311 324 317 318
331 334 332 332 334 331 329 328 329 331 330 330 330 331 332 331 331 332 333 332 333 332 332 332 331 329 330 306 304 304 310 313 323 319 318 307 298 298 301 311 299 301 310
331 334 331 332 332 330 329 329 331 330 331 330 331 332 332 331 333 334 334 334 335 331 331 330 327 326 325 317 299 300 302 307 322 321 304 297 297 297 301 299 300 304 318
332 332 330 328 327 328 330 331 332 330 331 330 331 333 332 331 333 333 333 335 335 331 330 328 327 327 323 321 320 319 318 307 314 306 310 308 309 308 311 312 311 325 324
332 330 327 325 325 328 329 331 332 332 331 331 332 333 331 332 333 335 331 335 335 327 332 331 329 328 323 323 316 318 322 324 316 320 322 322 321 320 320 321 323 327 325
332 331 329 325 325 327 328 330 331 332 332 331 330 329 331 331 330 330 329 297 299 298 300 301 316 327 310 300 298 300 298 300 301 322 323 323 323 322 324 324 325 327 322

GFSMW_sfc_thetae_033.txt.gz
Theta_e
324 326 328 329 329 338 342 346 346 352 347 337 336 336 335 342 346 348 357 355 353 353 354 348 349 348 343 344 346 343 344 339 343 337 340 339 341 341 337 338 338 340 339
321 323 325 329 333 336 339 343 346 351 352 341 344 339 345 342 346 348 355 353 351 352 351 350 348 349 342 348 347 345 336 337 343 335 333 325 327 334 337 335 342 339 342
318 322 322 328 332 334 338 339 344 349 352 350 347 351 350 351 345 347 347 350 349 350 351 349 350 351 346 339 346 343 342 336 341 341 332 322 320 329 333 335 334 338 340
318 319 322 325 329 331 334 339 342 348 351 357 345 352 343 341 343 347 348 348 350 347 348 348 347 348 344 345 342 343 344 344 337 336 335 336 331 322 321 332 335 340 339
317 317 319 321 324 329 333 338 344 348 350 352 349 342 349 344 346 347 350 350 350 349 346 347 347 346 344 347 347 349 348 342 336 332 332 332 328 330 323 321 329 336 339
316 317 319 323 322 325 325 334 342 345 349 350 353 356 355 353 347 347 344 345 344 345 345 345 346 348 346 352 347 349 345 342 340 333 334 328 325 325 326 323 328 329 334
315 317 317 318 321 323 325 326 331 340 347 346 348 349 355 360 357 348 342 341 340 341 344 348 348 345 351 348 348 345 344 341 337 337 331 330 332 329 333 328 328 327 333
316 319 319 320 321 324 332 336 339 342 345 344 347 350 353 349 349 347 343 343 343 345 350 349 350 348 346 344 345 341 338 340 335 337 337 334 332 333 336 329 329 324 327
319 321 324 324 322 328 339 342 343 344 344 346 347 350 350 354 347 353 354 347 352 348 348 348 346 345 343 343 344 337 337 339 339 338 337 337 333 337 333 332 329 328 319
324 324 324 326 335 342 344 346 346 345 347 348 348 349 351 352 350 352 345 347 351 350 347 345 344 343 342 340 340 338 337 337 342 339 337 337 334 336 333 328 327 328 329
324 325 332 337 342 344 345 346 346 346 346 347 347 347 345 346 347 346 346 346 348 344 342 341 340 338 337 337 338 338 336 335 337 337 335 334 336 332 331 331 334 329 330
327 329 334 338 340 342 343 344 345 345 345 344 344 344 345 346 346 344 343 343 342 341 339 337 335 334 333 336 336 335 334 334 333 334 335 332 333 335 338 336 335 332 337
326 330 337 336 338 339 341 342 343 343 344 344 343 343 342 344 345 341 342 340 338 336 335 333 332 332 333 335 337 335 335 335 333 333 334 332 334 335 337 334 337 337 337
327 328 332 334 336 337 337 338 339 341 341 340 340 340 341 341 340 339 339 337 335 333 333 333 332 332 332 334 335 335 334 335 332 337 336 333 334 335 336 336 336 337 335
324 325 329 332 335 335 336 336 336 337 338 336 336 338 339 338 337 336 335 334 334 333 332 332 333 333 336 332 336 335 334 334 334 335 334 336 333 326 330 337 338 337 333
323 326 329 331 332 333 334 333 333 333 334 332 332 333 333 332 334 334 335 334 332 335 334 333 333 335 330 306 309 324 334 332 331 333 334 335 328 323 314 315 319 331 331
323 325 328 330 332 332 333 331 329 330 330 331 331 331 332 331 332 332 332 331 335 336 336 334 333 335 331 306 308 314 333 334 333 333 334 333 331 328 330 313 313 314 315
318 326 331 331 333 332 331 330 330 330 329 330 329 330 328 329 330 331 330 336 336 336 335 334 335 336 325 306 306 311 332 331 331 331 333 333 331 329 329 330 330 329 330
315 330 333 334 334 331 329 330 329 329 329 329 328 328 328 328 327 328 331 335 334 335 335 335 335 334 329 305 308 321 327 324 325 329 330 330 328 309 308 328 326 324 321
322 332 333 332 333 330 331 329 328 329 328 328 329 329 329 328 329 331 332 335 334 333 332 334 335 320 329 304 306 318 325 322 321 324 325 305 321 303 306 325 323 319 318
332 335 335 330 332 330 331 328 329 327 329 329 330 328 329 329 333 335 335 334 332 333 334 333 334 332 328 321 305 308 325 324 323 319 322 324 300 301 304 312 325 318 320
332 330 329 329 331 331 329 328 329 330 332 330 328 329 331 327 330 334 333 332 334 333 333 333 330 330 329 307 304 306 311 314 323 321 320 309 298 299 302 312 299 302 311
328 330 329 331 330 330 329 330 331 331 329 330 330 331 330 331 332 334 334 333 333 330 331 331 328 326 326 316 300 301 304 307 323 323 307 297 296 297 302 299 300 307 318
328 331 330 329 327 327 330 332 330 329 329 328 329 331 330 331 334 333 335 336 336 334 333 330 329 327 323 321 323 320 318 308 315 306 311 309 308 306 308 309 314 320 320
329 329 329 327 325 327 331 330 330 330 328 330 329 331 328 332 334 332 329 336 329 325 334 332 331 327 324 322 316 318 324 324 315 317 321 320 318 317 316 317 320 322 321
328 328 327 326 325 328 331 331 329 331 329 327 329 327 328 329 330 330 328 297 299 296 296 298 317 327 310 302 302 299 299 302 302 321 323 321 321 320 322 324 324 325 321

GFSMW_sfc_thetae_036.txt.gz
Theta_e
323 326 330 330 339 343 345 349 349 349 350 348 344 342 339 340 344 349 354 357 355 352 351 346 349 344 343 339 341 339 337 337 339 336 334 338 338 339 337 337 337 337 337
321 324 325 328 339 340 343 346 349 351 349 344 343 343 343 340 341 348 354 356 356 352 350 349 345 346 343 341 342 338 335 338 339 332 333 326 329 334 336 336 336 336 336
317 322 325 332 337 337 341 342 343 344 345 344 345 348 348 349 349 352 352 353 354 353 351 349 347 347 343 340 340 340 336 332 336 339 332 323 319 324 332 334 332 332 335
318 319 322 325 332 335 337 344 345 342 343 348 344 344 338 337 344 352 351 351 352 351 350 349 347 349 343 342 341 340 338 336 335 336 337 333 330 320 319 327 329 331 333
317 318 320 322 326 327 328 332 335 340 343 344 344 341 346 345 351 350 354 350 352 350 347 348 346 348 342 342 339 340 338 338 338 334 332 331 329 328 321 317 322 329 330
314 316 319 322 322 326 329 333 338 339 345 345 349 347 345 343 346 351 346 346 346 345 344 346 344 345 342 343 342 340 341 341 338 334 332 329 325 323 323 321 321 322 327
317 317 316 317 321 324 326 333 340 343 344 344 344 347 343 353 353 351 345 343 342 342 341 342 344 341 344 346 346 343 340 339 335 334 332 332 329 328 327 324 321 319 324
316 318 321 324 321 323 329 332 333 337 340 343 347 349 348 352 354 348 344 342 340 341 343 344 343 344 345 346 344 341 339 338 336 335 333 332 331 332 329 325 322 318 320
315 318 319 324 322 324 332 334 336 337 345 348 348 351 351 354 349 348 344 343 343 342 342 346 345 346 344 343 341 339 338 338 336 335 335 332 333 333 331 329 327 321 315
315 318 323 326 330 334 342 347 349 347 347 348 350 350 351 353 349 347 344 346 347 346 345 345 344 343 342 340 341 339 338 337 336 335 333 333 332 333 331 329 326 326 321
321 329 325 328 337 342 345 347 346 346 345 346 347 350 350 349 350 348 346 347 347 345 344 343 341 340 340 340 338 338 335 334 334 334 331 333 333 331 331 328 328 325 324
326 330 331 333 335 340 342 344 345 344 344 344 343 343 343 343 343 343 342 344 344 343 341 341 338 337 337 338 337 335 334 332 333 332 331 332 334 331 330 330 326 326 326
325 330 331 332 336 336 339 340 340 341 342 342 343 342 341 339 338 338 342 343 342 342 338 337 335 333 334 334 337 335 334 333 332 332 330 331 331 329 329 330 327 327 329
325 330 333 334 336 335 337 337 339 341 341 340 339 338 338 339 339 341 341 339 338 337 335 336 333 334 333 335 335 334 333 333 331 333 331 331 331 330 330 329 329 329 327
323 329 331 333 335 334 336 335 336 339 341 338 336 337 338 338 339 338 338 337 336 335 334 335 332 335 329 330 334 336 334 332 329 331 332 331 330 326 329 333 331 329 327
318 326 329 329 330 333 332 333 336 337 338 337 337 337 337 336 336 336 333 336 336 335 331 332 332 333 327 306 309 324 333 332 331 328 330 327 320 317 316 318 322 327 325
320 320 328 329 333 330 331 333 333 334 333 332 332 332 333 331 331 332 332 335 335 334 332 331 332 331 324 305 307 314 333 333 331 331 330 331 329 327 326 312 314 315 314
321 320 330 331 334 329 331 331 330 329 329 329 328 330 330 330 331 331 332 335 334 335 334 333 333 329 319 305 308 315 331 332 332 332 331 331 330 328 328 329 328 327 325
319 327 331 332 333 327 329 329 329 329 328 328 328 330 330 329 329 330 332 334 333 333 334 334 334 328 323 305 309 320 327 328 328 325 324 329 327 308 308 326 322 319 316
320 324 330 331 334 327 331 329 328 329 328 328 328 330 329 329 330 330 333 334 334 334 334 332 333 318 324 304 307 317 322 320 320 325 322 306 315 305 309 325 321 317 317
324 325 330 330 332 331 332 329 329 329 329 328 329 328 329 329 330 332 333 333 334 333 332 331 331 329 325 317 306 309 325 323 322 321 321 315 300 302 304 311 321 316 318
320 331 329 328 330 332 331 329 329 331 331 328 327 330 332 329 331 332 334 333 334 331 330 328 328 327 325 308 306 307 310 314 322 321 317 310 297 299 301 310 300 302 311
322 329 330 329 328 331 331 330 332 332 328 328 329 329 328 329 332 333 333 329 333 331 330 327 326 323 321 316 300 301 304 304 321 320 303 296 296 297 300 298 300 306 317
323 329 328 324 328 331 333 332 330 331 330 330 329 329 330 330 332 333 334 334 334 333 331 328 327 322 320 322 320 317 315 308 310 306 312 306 304 307 307 310 313 318 318
326 328 326 324 328 330 331 329 331 329 330 329 329 328 330 329 325 317 315 328 315 323 330 330 328 323 320 321 315 317 322 320 313 315 317 316 314 313 315 318 319 318 318
325 326 326 325 326 328 329 329 330 330 329 327 329 328 328 332 329 326 320 297 296 296 296 302 321 326 309 300 299 300 301 302 300 319 317 316 315 315 316 317 319 319 317

GFSMW_sfc_thetae_039.txt.gz
Theta_e
317 317 318 320 324 330 330 332 332 334 339 338 343 340 338 336 336 338 340 340 348 345 341 338 339 340 335 335 332 330 328 330 332 329 327 333 333 332 333 333 332 331 333
313 315 317 318 322 328 328 330 330 330 330 330 332 331 330 330 331 333 339 341 346 347 343 341 340 338 336 333 331 331 327 330 330 324 324 320 323 329 332 331 330 330 331
311 314 315 319 320 326 328 332 331 331 329 330 332 331 331 330 331 334 336 342 347 347 345 343 340 338 336 334 332 331 328 326 328 329 324 318 316 319 324 325 327 326 328
311 312 313 314 317 324 325 328 330 331 333 333 330 330 331 329 328 326 340 342 345 345 344 344 341 339 337 333 333 334 329 327 324 330 332 327 323 319 317 321 324 325 327
308 309 311 312 315 321 322 327 330 330 329 331 332 331 330 330 330 333 339 340 340 343 343 342 340 338 338 336 335 333 330 329 329 327 325 325 326 324 315 311 316 324 324
307 308 309 313 313 315 316 317 322 329 329 329 334 331 329 331 332 337 337 337 338 338 340 342 342 340 339 338 336 336 332 331 331 329 329 326 320 317 316 313 315 315 319
307 309 308 309 311 312 313 316 319 319 327 332 334 333 331 332 330 338 338 336 335 334 335 338 339 339 339 339 336 333 333 331 329 329 328 324 324 320 319 317 313 313 318
305 306 310 311 311 312 312 314 319 327 332 332 336 336 333 332 337 341 338 336 336 336 337 337 340 340 340 340 336 334 333 332 328 329 323 324 322 323 321 318 316 311 313
305 306 308 311 311 311 314 317 319 325 331 333 334 335 337 335 340 338 337 337 336 338 337 340 340 340 339 337 335 334 330 331 328 326 325 324 326 325 323 321 320 315 309
306 307 310 311 313 313 315 317 320 324 329 334 337 340 341 343 340 338 336 336 335 337 337 339 338 338 337 337 334 330 329 328 326 327 325 325 327 325 324 322 320 319 315
308 309 321 321 317 324 330 332 336 336 337 339 339 341 341 343 340 337 337 337 337 337 338 338 337 337 335 333 329 328 327 327 326 326 327 326 328 324 323 321 320 318 318
307 317 324 325 326 334 335 336 337 337 338 340 341 340 342 342 341 339 340 340 338 339 339 338 337 335 334 332 327 326 328 327 325 327 327 326 331 324 323 320 319 317 319
304 308 315 325 331 334 336 337 338 339 341 341 340 338 340 339 338 339 340 340 337 337 337 334 332 331 330 328 328 328 327 326 327 327 328 326 325 322 321 320 319 320 323
304 304 315 319 327 335 336 336 338 339 340 339 337 335 335 336 336 336 336 334 332 331 328 328 328 328 330 332 332 329 327 326 327 328 328 328 326 324 322 323 322 324 321
303 316 320 324 328 332 335 336 337 338 338 337 335 334 335 335 334 332 329 328 326 325 326 329 329 328 327 327 329 328 327 325 325 325 329 327 327 324 324 325 323 323 323
309 315 323 323 322 331 333 335 335 334 336 334 333 334 334 333 330 328 327 325 325 326 327 329 327 324 321 305 310 322 326 326 324 323 325 323 321 317 317 320 321 323 321
309 316 317 321 320 324 331 333 334 333 332 332 332 333 331 330 327 325 325 327 324 328 329 329 325 319 315 304 307 316 326 323 323 325 325 326 325 321 320 312 314 314 313
310 316 318 320 319 323 330 330 331 331 331 330 328 329 327 326 325 326 328 328 328 328 328 325 322 317 314 305 307 318 326 324 323 325 327 325 322 321 324 323 321 319 319
308 318 319 320 327 327 326 325 324 323 324 325 326 327 327 326 324 327 327 327 324 323 324 324 321 317 316 304 310 317 323 323 322 321 323 323 319 306 309 320 316 317 315
319 319 315 318 327 325 324 322 321 323 323 324 326 326 326 326 327 324 325 323 324 324 326 325 321 314 316 302 306 316 321 320 321 320 316 308 314 303 307 321 319 317 317
321 323 324 323 326 326 323 321 323 322 324 325 326 326 324 325 326 327 324 323 323 324 325 323 320 319 316 311 305 309 320 320 318 319 316 312 302 301 303 310 320 316 318
319 324 324 323 326 323 325 324 322 323 324 326 325 324 325 328 327 325 327 323 323 323 323 321 320 319 317 307 305 306 310 313 319 317 314 306 298 299 301 309 299 302 311
320 323 324 324 325 325 327 324 324 323 325 325 324 324 325 326 326 323 323 323 323 323 322 321 319 318 318 312 300 301 304 307 317 317 302 297 296 297 300 298 300 306 317
320 325 323 325 324 326 327 327 324 325 325 323 321 322 325 326 323 325 324 322 321 322 323 321 318 318 318 316 313 313 311 304 307 306 309 305 305 305 306 310 313 317 317
325 327 326 323 324 327 326 326 326 326 324 322 323 325 326 320 316 311 312 320 316 317 325 324 320 318 318 317 313 315 317 317 311 313 316 314 314 314 315 316 316 316 316
325 324 325 325 325 325 324 326 328 327 325 322 322 324 324 322 319 317 312 296 295 295 304 310 317 320 306 301 302 302 300 298 300 314 314 313 313 314 315 316 316 316 314

GFSMW_sfc_thetae_042.txt.gz
Theta_e
311 315 317 317 317 319 322 322 324 340 343 343 342 342 342 342 339 340 341 341 343 340 336 335 333 333 330 331 331 329 328 327 329 326 324 328 332 332 332 333 332 331 332
306 311 315 313 313 316 322 325 327 332 343 344 344 340 341 334 341 342 339 340 342 344 340 336 335 334 333 329 330 330 324 328 328 324 326 322 323 325 329 330 330 328 329
303 307 311 314 312 314 322 325 328 332 340 339 332 329 328 327 328 329 329 333 337 344 342 339 336 337 336 332 330 331 327 324 326 328 325 319 315 316 322 325 326 324 325
304 306 310 312 312 316 322 326 328 328 329 327 328 327 327 324 324 323 328 331 337 342 343 340 338 338 336 333 331 331 330 329 327 329 330 327 322 318 314 321 324 323 324
300 303 307 309 310 313 320 324 326 326 326 327 326 325 321 323 324 325 327 330 336 341 343 341 338 336 335 333 332 331 331 330 329 327 327 327 326 323 319 315 314 320 322
300 302 306 308 309 310 316 320 323 326 327 325 325 324 323 325 326 326 329 331 334 336 341 341 339 337 337 334 333 334 334 330 331 329 328 326 324 320 318 311 311 313 316
301 302 302 304 307 307 311 316 321 324 325 324 324 327 326 326 327 328 331 332 332 332 336 338 338 337 339 337 334 335 332 331 329 329 329 325 325 322 319 314 312 312 314
302 303 305 305 306 308 308 312 314 317 321 325 324 327 327 328 328 331 334 335 337 335 336 336 336 336 336 336 336 334 333 331 328 327 326 326 323 320 319 316 314 310 310
302 303 307 311 310 309 308 308 309 314 317 321 326 328 329 328 332 334 334 335 334 335 334 335 335 336 339 338 336 332 331 331 326 325 323 321 322 321 320 319 317 313 307
301 304 306 310 314 315 309 307 309 312 320 326 329 332 331 331 334 336 335 335 335 336 334 334 334 338 338 336 334 330 332 330 324 324 322 322 322 323 322 321 318 316 312
300 303 305 306 308 320 316 309 311 318 325 329 331 333 335 335 335 336 335 335 334 334 334 334 336 336 334 331 330 331 329 326 324 323 323 323 325 322 321 319 317 316 315
301 303 303 304 306 315 325 324 326 327 330 332 335 336 339 336 334 334 336 336 333 334 336 336 336 336 334 332 330 326 326 324 323 323 323 324 327 324 321 318 316 315 317
301 302 302 304 312 315 329 331 333 334 337 338 337 338 338 337 335 337 338 336 336 335 337 336 334 334 333 331 328 326 325 325 324 324 324 323 325 323 319 317 316 316 320
301 300 302 308 312 316 327 335 336 337 338 337 337 336 337 337 337 339 339 337 337 336 334 334 333 333 330 327 327 325 324 324 325 326 326 326 326 321 321 319 317 318 318
301 302 308 309 319 320 323 333 335 337 337 335 336 334 335 336 335 334 333 333 332 331 328 327 326 327 327 327 328 327 325 323 323 325 326 327 327 323 321 321 319 319 317
301 305 311 311 318 324 327 333 334 335 335 334 334 334 333 332 329 328 326 326 323 326 324 323 323 322 320 304 313 321 323 323 322 321 322 322 322 320 315 317 317 321 320
300 312 313 311 318 318 324 329 333 334 334 332 333 332 330 329 327 326 324 322 322 323 323 323 321 318 314 303 305 312 323 321 321 321 322 325 323 318 320 311 313 312 311
304 315 317 318 320 322 320 326 333 333 332 331 331 330 328 326 323 324 322 323 326 326 324 321 318 315 314 304 306 312 323 322 321 322 325 324 322 320 321 321 319 319 318
314 316 318 319 321 320 322 328 330 330 329 328 328 327 324 322 325 326 325 326 327 324 320 317 316 317 317 303 306 316 320 318 317 322 324 324 320 304 306 319 316 314 314
314 314 317 318 320 321 323 325 325 325 324 324 324 324 325 326 325 326 325 324 321 323 322 319 317 311 316 302 303 314 320 319 317 316 316 309 313 300 305 318 316 316 315
314 318 318 316 316 320 324 322 323 322 323 324 323 323 326 325 326 325 324 321 323 322 319 317 316 317 317 311 301 307 318 319 318 316 316 313 300 300 302 309 318 315 317
313 321 319 320 322 324 323 320 320 323 324 324 323 322 323 327 326 324 320 322 322 320 319 318 318 319 317 306 302 304 309 311 317 316 314 307 298 298 301 308 299 301 310
314 321 319 320 321 325 322 320 321 325 325 323 321 322 324 326 325 323 321 321 322 320 318 316 316 317 316 311 299 300 300 305 316 316 304 297 296 296 299 297 299 305 317
315 320 320 319 320 325 323 323 324 324 324 322 320 319 322 321 320 322 322 322 321 320 319 316 316 317 316 314 313 311 309 303 306 303 306 305 305 304 305 309 312 317 318
319 323 320 321 322 324 322 324 324 324 322 320 321 323 320 317 312 307 310 320 318 318 321 318 318 317 315 313 310 312 315 316 309 312 315 314 314 314 315 315 315 316 316
320 320 322 324 325 323 324 323 325 324 321 320 323 322 318 317 313 311 307 294 295 298 300 306 313 316 306 300 301 299 298 299 301 314 313 313 314 314 315 314 314 315 313

GFSMW_sfc_thetae_045.txt.gz
Theta_e
304 307 311 315 317 319 319 320 320 328 335 336 335 337 337 340 340 340 339 338 337 336 332 332 330 328 327 328 328 327 324 323 325 324 323 325 329 330 330 331 331 332 332
302 305 307 311 314 316 318 320 321 323 334 340 340 340 339 340 342 342 339 340 339 338 336 333 332 330 328 326 328 327 323 324 326 322 321 318 322 324 329 328 328 328 329
299 301 304 307 311 312 313 317 320 321 324 339 340 328 329 328 333 332 334 338 340 341 339 336 334 331 331 328 328 329 326 322 324 327 325 316 316 315 319 323 325 325 324
297 299 301 302 305 308 310 313 319 323 325 334 337 336 335 334 327 334 336 332 336 338 340 338 335 333 333 331 329 330 328 326 326 328 329 327 324 317 312 319 321 323 324
297 298 299 301 304 306 308 313 317 321 326 332 337 336 330 327 323 321 323 326 327 333 339 339 336 334 335 332 330 328 328 331 329 329 327 327 325 324 320 314 317 318 320
301 302 303 304 305 305 305 309 316 320 323 326 331 331 332 322 321 321 322 323 327 332 336 337 336 335 335 332 332 333 332 331 331 329 329 327 324 322 319 317 313 311 315
299 300 301 303 306 307 305 305 312 318 321 323 326 325 323 322 323 322 323 324 327 330 333 335 334 335 335 334 333 334 333 331 330 329 328 327 326 324 320 318 311 311 312
297 299 301 303 305 307 313 312 305 314 319 322 323 324 323 322 322 322 325 327 330 330 335 337 336 335 336 335 334 334 333 332 331 330 329 327 325 321 322 317 312 309 309
296 298 301 303 304 306 307 310 314 307 316 321 322 319 322 322 322 324 328 330 330 332 334 335 335 335 335 334 332 332 332 331 328 325 323 321 321 323 319 316 315 313 307
297 299 301 303 304 305 305 310 314 307 310 316 321 322 323 324 325 327 330 331 331 333 334 334 334 334 334 334 334 332 331 327 326 326 322 320 320 319 318 318 316 314 311
297 300 301 304 303 303 305 312 317 309 307 313 317 321 325 326 329 331 331 332 333 333 334 334 333 334 333 335 333 331 329 328 325 322 321 321 321 320 319 317 315 314 313
299 300 301 303 302 302 310 313 320 312 313 320 324 327 329 331 331 331 331 332 331 333 335 336 336 335 335 332 330 327 328 325 322 322 321 321 324 319 319 319 315 314 314
300 300 301 301 301 307 311 315 322 321 322 327 330 332 332 331 330 331 333 334 334 336 336 335 334 334 331 329 329 329 326 323 323 322 321 322 322 320 318 316 314 314 317
300 301 300 300 306 311 317 316 328 326 330 333 333 333 332 333 333 334 335 334 335 334 334 334 333 333 332 331 329 327 323 323 323 323 323 322 322 324 321 317 315 316 317
299 301 300 304 307 315 321 321 331 332 333 334 334 335 334 335 337 336 335 334 334 334 333 331 330 330 329 328 324 323 322 321 321 322 324 324 325 322 321 318 315 316 317
299 301 304 307 309 314 321 325 332 333 335 333 333 334 334 334 335 334 332 331 328 329 329 326 326 322 321 307 313 320 322 322 321 320 322 322 323 320 314 315 315 318 320
305 306 307 308 309 315 319 319 330 333 332 331 332 331 330 329 329 328 327 326 325 323 321 319 318 316 315 303 306 311 321 320 319 319 319 321 323 321 318 311 312 311 311
304 307 312 313 315 317 317 319 319 318 331 330 329 329 328 325 325 325 324 323 322 319 318 317 318 316 313 303 303 309 320 318 319 319 320 320 320 320 320 319 317 316 317
304 309 314 315 318 319 320 318 319 318 325 328 328 328 326 324 324 323 324 322 321 318 317 318 317 317 316 302 302 314 317 316 320 320 322 323 322 306 304 318 316 313 312
304 307 315 318 317 321 320 320 320 321 327 328 327 325 326 325 323 324 322 321 321 320 319 316 319 313 316 300 302 312 317 317 318 318 316 307 313 301 303 318 317 315 314
304 309 316 317 318 320 321 320 318 324 327 326 324 324 324 323 322 321 324 324 321 317 316 315 316 318 313 308 300 306 319 318 315 316 315 310 298 297 299 306 316 314 314
304 310 316 316 319 318 318 319 318 323 322 322 321 322 323 324 325 323 323 322 318 317 315 316 318 318 316 305 301 302 308 309 317 315 312 306 298 298 300 308 297 300 310
308 314 318 316 318 322 322 320 321 322 321 321 320 323 324 324 324 322 321 320 319 317 316 316 316 316 316 310 298 298 301 304 316 316 305 297 296 297 299 297 299 305 318
313 317 318 316 318 322 323 322 323 322 321 320 320 322 323 322 323 323 322 320 318 317 316 316 316 316 315 314 313 312 310 303 305 304 306 304 303 303 303 310 313 317 318
315 318 319 320 320 322 321 323 323 322 321 319 320 321 321 318 310 304 309 319 315 316 318 317 317 316 314 314 309 311 314 314 308 312 315 314 314 314 314 315 315 316 317
319 320 320 321 321 323 323 321 323 322 320 319 319 316 315 315 311 311 307 295 297 300 302 305 312 314 303 298 298 297 297 298 300 314 314 313 314 314 314 313 314 315 313

GFSMW_sfc_thetae_048.txt.gz
Theta_e
301 304 306 307 311 313 318 323 323 329 334 332 332 333 334 336 337 338 339 336 336 335 332 331 329 327 327 328 328 328 327 326 329 328 328 330 333 334 335 337 336 336 338
300 302 304 306 306 310 313 316 320 324 329 334 336 335 336 336 339 340 339 338 337 336 335 333 331 329 328 328 328 328 326 328 329 326 326 324 328 330 334 334 334 334 336
297 299 302 303 304 305 310 313 315 319 321 331 334 332 332 331 335 336 339 339 339 339 337 334 334 331 331 328 329 329 328 325 327 330 328 321 321 322 325 328 331 332 332
298 300 302 302 303 303 306 308 311 314 318 321 332 332 334 332 335 337 339 338 341 341 339 337 336 334 332 331 329 331 330 329 326 328 331 331 328 323 321 325 326 328 329
299 300 301 302 304 306 304 305 308 311 316 319 325 332 332 333 334 329 334 334 334 339 340 340 337 335 333 334 331 331 329 330 329 330 329 329 329 328 322 320 323 324 327
300 300 301 303 303 305 306 304 305 310 317 321 324 327 330 332 326 325 326 328 328 330 334 338 338 337 335 334 332 332 331 331 333 332 332 329 328 325 322 323 320 322 324
298 298 298 299 301 303 306 308 310 308 312 320 325 331 332 333 329 329 328 323 324 328 331 335 335 335 336 335 334 333 333 333 332 332 331 333 331 328 328 325 318 320 320
296 296 297 299 301 303 305 308 307 309 311 315 321 326 331 332 331 329 325 324 325 329 333 336 337 337 337 336 336 335 335 334 333 332 331 330 330 327 325 325 321 316 317
295 295 297 299 300 302 304 305 305 306 312 310 317 321 324 325 323 323 324 324 328 331 334 337 336 337 337 337 336 335 334 334 332 332 331 329 329 329 327 325 324 323 317
296 298 297 300 302 303 305 305 304 306 314 312 314 319 321 323 324 323 324 328 330 334 334 335 337 337 338 337 335 334 334 332 331 330 328 326 326 325 324 323 323 323 321
297 297 299 301 302 303 304 304 304 309 314 315 311 317 320 322 323 325 326 330 331 334 335 336 337 337 336 336 335 334 332 330 330 328 327 326 326 324 324 323 323 321 321
297 298 299 301 301 302 303 302 308 312 316 318 311 314 320 323 325 327 329 332 333 335 336 336 336 337 336 335 334 332 331 330 327 326 325 325 326 325 324 324 322 322 321
297 298 299 300 301 302 303 306 310 315 319 318 315 318 322 325 327 329 331 333 334 335 336 336 337 336 335 335 333 332 330 329 327 327 326 325 326 324 323 323 322 321 322
299 298 299 300 302 303 305 309 316 320 324 323 323 325 327 328 330 332 333 334 336 335 336 337 336 335 333 333 332 331 330 327 327 327 327 326 327 325 324 322 321 321 322
300 298 301 305 306 307 308 310 318 323 328 328 329 329 331 332 333 333 334 335 336 336 336 334 335 334 333 331 330 328 327 326 326 326 326 328 326 322 323 322 321 323 323
301 303 305 306 308 311 310 312 319 328 332 331 331 333 333 335 334 333 334 334 332 333 333 332 332 331 326 308 312 322 326 325 326 325 326 328 323 319 315 314 314 322 324
301 302 304 307 307 310 312 316 320 330 333 333 333 334 335 333 333 333 331 329 329 331 329 327 327 323 317 304 305 310 326 326 325 325 325 325 326 322 322 310 310 311 312
300 302 304 305 307 311 317 318 321 328 331 332 332 332 332 331 331 330 328 327 325 323 322 321 320 318 312 301 302 307 325 325 324 324 325 326 324 324 321 319 320 321 323
300 302 304 306 308 312 318 317 319 319 329 328 328 328 328 327 327 326 325 323 321 319 318 319 320 318 316 301 301 315 322 321 322 323 325 324 323 305 306 321 319 318 316
301 303 305 307 307 314 318 317 319 319 327 328 327 327 327 327 326 325 322 321 319 318 319 319 320 313 316 300 301 314 320 319 320 322 319 308 314 299 302 322 319 317 316
302 306 307 307 311 318 321 318 318 320 328 327 326 326 326 326 325 324 322 320 319 318 317 317 319 318 315 309 300 305 322 320 320 320 317 313 298 299 300 308 321 316 316
304 307 308 311 314 319 320 318 316 322 327 325 325 324 324 325 324 323 321 319 319 317 317 318 318 318 316 305 300 302 308 311 319 319 317 307 296 297 298 308 298 301 310
307 311 313 313 315 318 319 318 318 318 324 324 323 323 323 324 324 322 320 318 318 317 316 316 317 317 316 310 297 297 299 305 316 316 306 296 295 296 299 297 298 304 319
309 313 314 315 313 318 317 321 321 323 323 321 322 322 322 322 324 322 321 319 317 317 317 317 317 317 316 315 314 312 310 303 305 305 308 304 303 302 304 311 315 319 320
308 312 314 318 320 321 322 321 323 322 321 322 322 322 322 318 308 304 314 319 319 318 318 318 318 317 316 316 310 311 316 315 308 312 316 315 315 314 315 316 317 318 319
308 312 320 320 320 321 320 321 322 322 321 320 320 319 317 314 313 312 309 295 298 301 302 305 313 314 304 298 297 297 297 298 301 315 315 314 315 314 314 314 315 317 314

GFSMW_sfc_thetae_051.txt.gz
Theta_e
308 310 312 315 316 320 322 329 339 348 348 345 341 340 336 341 343 343 344 343 339 338 339 340 338 338 337 338 339 339 338 337 338 335 335 337 340 342 342 344 345 346 347
305 308 310 314 317 317 320 322 327 336 343 344 346 345 343 345 345 345 345 345 341 343 344 345 343 342 339 340 340 340 338 338 339 335 335 331 335 339 342 343 344 347 349
304 306 309 313 316 317 319 320 322 326 334 341 346 347 346 346 344 346 347 348 346 347 348 347 346 344 342 341 342 341 341 338 337 339 335 331 328 334 338 340 342 345 344
306 306 310 312 313 315 317 320 322 323 324 334 338 345 342 340 344 346 348 349 348 348 349 350 347 346 344 345 343 342 341 341 337 335 337 340 338 330 327 336 337 339 340
305 307 309 310 311 314 315 319 321 323 326 327 333 335 341 341 345 345 352 354 351 351 350 351 348 347 346 345 345 341 342 341 339 337 337 336 336 337 331 327 330 334 337
307 309 309 310 311 312 314 316 319 323 325 325 328 332 338 342 340 342 341 343 346 349 351 350 350 349 347 346 345 344 343 342 341 341 341 337 333 332 330 328 332 331 334
307 307 307 308 310 311 314 315 317 320 322 323 325 329 334 338 340 341 339 341 340 342 347 349 348 347 349 349 347 344 344 343 341 342 340 339 338 337 334 334 332 330 331
306 306 307 308 308 310 313 315 316 317 319 320 323 329 333 333 336 340 338 339 339 341 348 346 348 348 347 347 346 343 343 345 343 343 340 339 339 337 335 334 331 328 328
305 306 307 308 308 310 312 314 315 317 318 318 323 327 330 335 338 345 347 341 345 341 344 345 346 347 347 347 347 344 345 345 345 342 341 337 336 335 336 337 335 331 324
305 306 307 307 309 311 312 315 316 316 317 318 322 326 329 333 337 341 341 343 341 341 342 345 347 347 347 349 348 347 347 346 344 339 337 337 339 340 337 336 335 333 329
304 304 305 307 309 310 311 314 314 316 316 318 322 326 328 332 333 335 337 339 341 341 341 343 345 346 348 348 348 347 346 344 341 340 341 340 339 336 335 334 333 331 330
304 304 305 307 309 309 311 312 314 314 315 319 322 326 329 331 331 332 335 338 339 341 341 343 344 347 347 348 346 345 343 340 338 338 338 337 335 336 335 333 334 333 332
303 305 307 308 308 308 311 313 314 314 315 318 324 328 330 330 330 332 336 338 339 341 343 344 345 346 347 345 343 343 340 336 336 333 335 337 336 335 334 334 333 331 331
304 305 308 308 309 314 315 316 318 319 317 320 326 329 332 330 331 335 337 339 340 342 344 346 347 347 345 342 339 337 339 341 337 335 339 336 336 335 335 333 333 331 330
302 304 307 309 312 313 314 314 318 320 320 321 327 331 335 332 333 336 338 340 342 343 345 346 346 345 343 339 341 342 341 340 338 338 337 338 334 327 330 332 332 332 329
301 302 306 307 310 311 312 313 315 320 323 325 330 335 334 333 335 337 340 341 343 344 344 344 343 341 338 310 317 330 338 338 337 336 336 336 325 323 315 316 318 328 329
301 301 304 305 308 311 312 312 314 318 324 324 331 335 335 335 335 336 339 340 340 342 342 338 339 340 330 305 308 314 337 336 336 336 336 335 334 328 332 312 312 314 313
300 302 304 305 307 312 313 314 314 315 324 322 331 332 336 336 336 338 340 340 342 342 340 339 337 330 316 302 302 308 336 336 336 336 336 337 336 333 332 328 328 330 331
302 304 305 307 308 309 312 313 312 313 322 322 330 332 336 334 336 338 338 337 333 335 332 327 327 326 321 300 301 318 335 334 333 334 335 335 334 307 305 329 329 330 327
304 304 305 306 306 308 309 310 312 318 321 329 333 335 336 335 335 335 333 333 332 327 329 329 331 317 321 299 301 321 331 330 328 329 329 308 324 300 303 326 329 325 324
304 308 308 307 308 310 309 309 317 320 322 331 336 336 336 335 332 331 328 326 326 326 326 324 324 325 323 314 300 306 330 328 326 328 326 324 299 297 300 310 327 324 324
305 307 307 310 311 311 311 315 316 323 326 331 333 332 331 329 329 326 325 323 323 322 322 322 323 322 322 306 301 302 309 314 328 323 323 314 297 297 299 312 298 301 312
304 307 308 311 314 315 316 314 320 324 327 329 328 328 328 327 325 323 321 321 323 322 322 323 321 320 321 317 297 297 299 305 325 327 311 296 295 296 301 298 300 302 325
303 305 306 308 312 314 315 319 323 327 327 327 326 329 325 324 324 324 324 325 324 323 323 322 321 320 320 320 322 321 317 304 308 305 308 305 308 305 308 312 316 326 324
303 304 305 309 312 313 314 320 323 326 328 327 327 326 326 323 318 318 326 326 328 323 325 323 322 320 320 322 314 318 325 323 312 315 320 322 319 319 320 322 322 323 324
302 305 311 309 312 318 319 323 325 326 327 324 324 320 319 320 319 318 313 295 299 298 300 305 316 319 304 297 297 297 297 298 300 318 318 318 318 318 318 319 320 322 317

GFSMW_sfc_thetae_054.txt.gz
Theta_e
310 312 315 318 318 322 326 329 339 350 353 349 342 340 336 339 339 340 347 345 344 343 346 341 342 343 343 344 346 346 346 344 347 343 343 344 347 347 346 346 346 346 344
308 311 313 316 319 322 326 327 327 336 346 352 352 350 348 344 341 341 348 347 344 346 344 346 346 348 345 347 349 349 345 346 348 342 340 335 340 344 347 346 346 348 351
307 309 311 314 319 319 322 324 329 332 333 340 347 350 351 351 348 347 347 348 348 347 349 350 350 357 352 347 351 351 349 343 347 348 341 334 331 338 343 346 346 348 351
308 309 311 312 316 317 319 322 327 329 331 335 339 348 341 341 344 348 351 353 353 350 350 353 354 361 354 356 353 351 350 350 344 345 346 347 344 334 331 340 343 346 347
307 308 309 312 315 316 319 322 325 328 332 335 337 333 345 341 345 346 356 364 362 355 352 355 359 359 354 357 358 353 352 348 345 344 343 344 342 343 336 331 334 339 340
308 310 311 312 314 316 316 320 323 326 330 333 333 336 337 344 339 343 343 346 349 353 356 355 357 360 357 357 354 355 352 350 350 347 346 342 338 337 336 334 334 333 339
308 310 310 311 312 313 316 318 319 322 325 328 328 331 336 339 345 349 343 344 340 343 357 357 360 357 358 357 355 354 352 352 349 350 345 346 344 343 340 336 332 333 338
309 310 311 312 312 313 314 316 318 320 323 325 328 329 333 332 335 341 338 338 339 342 359 355 356 356 356 355 356 351 349 351 350 350 350 348 345 343 339 335 332 332 338
309 310 311 312 313 314 315 316 317 319 322 323 326 329 330 335 337 345 345 341 346 344 351 352 354 355 356 355 354 347 350 350 350 350 349 347 345 344 341 339 336 338 329
308 309 310 311 313 314 315 317 320 320 322 324 325 325 327 332 337 342 346 350 353 351 349 351 352 354 352 351 353 350 353 350 350 350 349 349 345 342 342 340 338 336 332
307 308 310 312 312 314 314 316 317 319 320 321 323 325 327 331 334 337 341 345 349 348 346 348 349 349 349 351 353 354 352 351 351 350 348 346 345 341 347 341 338 336 335
308 309 310 311 311 312 314 315 317 318 319 320 321 323 326 330 334 336 341 342 344 347 347 347 347 346 347 352 352 352 350 350 348 347 346 342 343 344 345 340 340 337 337
307 308 310 310 311 314 314 314 318 320 321 322 321 322 325 330 335 337 341 342 341 344 347 346 344 344 346 350 352 352 350 349 347 344 344 343 343 342 341 339 336 335 335
306 307 308 310 313 316 317 318 318 320 321 323 322 322 326 331 334 338 340 341 340 342 345 345 344 344 347 350 351 351 348 346 345 346 343 342 342 340 339 337 337 336 333
305 305 306 309 311 315 317 317 317 318 321 323 323 324 327 331 335 338 339 340 340 341 343 344 344 347 348 347 350 348 344 345 344 342 340 343 337 329 332 335 337 336 332
303 304 306 308 310 313 314 316 316 317 321 321 323 326 329 332 334 339 338 340 341 343 344 345 346 348 345 314 319 336 344 344 342 341 341 341 329 327 319 319 320 328 336
302 303 305 307 310 313 314 314 316 318 318 320 322 326 329 331 335 338 338 340 345 348 347 347 347 347 345 310 312 320 344 344 342 341 340 337 335 331 336 316 315 317 317
301 302 304 307 310 311 311 313 316 316 316 320 321 326 328 333 337 337 340 346 348 349 348 346 347 346 337 305 308 313 341 339 339 339 339 339 338 337 335 334 333 333 333
304 306 307 309 310 310 310 311 314 315 316 318 322 327 328 335 337 338 343 344 346 344 345 345 344 340 329 302 304 320 339 338 338 338 339 338 337 314 307 335 332 332 332
303 305 306 309 309 312 312 313 313 315 314 318 324 326 332 334 336 341 341 343 343 342 342 342 342 326 324 300 302 316 335 336 335 337 337 308 325 302 303 336 334 330 331
304 306 306 306 310 312 312 312 315 315 316 321 324 324 332 334 337 339 340 340 340 340 338 336 334 334 332 319 301 304 335 333 332 331 332 330 300 300 301 310 331 330 331
303 305 305 305 308 312 315 312 314 317 319 322 325 328 332 334 334 336 337 339 339 335 334 329 332 332 333 311 303 302 311 317 332 331 332 322 297 298 299 312 299 306 312
303 305 305 307 310 313 313 312 317 319 322 324 324 330 331 331 333 333 334 332 333 330 329 329 329 328 329 326 299 300 303 305 329 332 308 297 295 297 303 297 299 303 326
302 303 304 304 305 310 312 316 318 317 323 324 325 328 327 328 332 334 334 330 329 329 328 328 328 326 327 329 329 325 323 308 318 307 314 309 311 307 312 314 313 330 328
302 303 304 305 307 312 315 316 316 320 324 326 326 327 327 330 329 324 325 327 329 326 329 329 328 327 326 327 316 321 328 328 319 320 324 325 326 324 326 327 327 327 327
300 300 302 303 306 312 314 317 319 320 327 324 324 324 323 322 325 326 319 297 298 298 300 303 320 323 306 297 297 298 299 301 300 324 325 323 324 324 325 324 324 325 321

GFSMW_sfc_thetae_057.txt.gz
Theta_e
314 315 317 317 319 324 328 329 332 349 349 350 345 346 343 344 345 346 351 351 352 352 352 348 347 348 346 348 352 348 349 345 349 344 343 345 352 352 349 351 349 350 350
312 314 315 317 320 321 326 327 331 333 346 346 346 347 345 342 342 344 343 348 350 351 350 347 344 348 344 353 353 352 345 347 350 343 340 332 339 348 350 349 349 352 349
310 313 314 316 318 321 321 323 329 333 337 345 351 353 357 358 349 345 344 346 347 349 348 350 342 344 350 348 353 354 354 344 348 355 341 329 325 334 347 350 346 353 350
311 311 313 314 317 319 319 322 325 331 334 342 339 344 346 343 346 350 349 346 352 351 351 347 349 352 352 353 356 356 355 354 345 347 349 351 346 333 330 343 346 347 348
310 310 311 313 315 318 320 322 327 327 335 337 339 338 340 343 341 337 345 354 355 348 349 349 354 359 356 359 359 364 361 352 347 342 345 347 344 348 340 334 337 343 345
309 311 314 314 315 317 318 320 323 330 330 332 338 342 342 341 339 343 343 343 348 350 356 352 359 361 361 362 362 365 363 357 355 350 347 341 338 337 338 336 339 339 344
310 311 313 312 312 314 315 317 319 321 327 331 330 336 339 343 345 341 343 344 342 346 359 356 361 359 366 364 363 364 362 359 353 357 346 341 340 342 341 338 336 333 345
311 311 312 313 313 314 315 316 318 319 322 324 328 333 337 329 331 339 338 341 344 349 360 364 360 364 363 363 364 358 356 358 354 357 355 342 343 347 344 341 335 331 341
310 311 312 313 313 314 316 317 317 320 322 323 329 333 334 336 334 343 349 338 345 345 353 364 362 363 361 362 363 356 358 357 357 356 358 351 349 349 347 347 340 333 332
309 310 312 313 314 315 315 319 322 321 320 325 327 326 330 333 336 341 344 345 349 349 348 354 358 358 360 361 361 358 359 355 352 350 354 351 350 349 347 344 340 338 339
308 310 311 313 314 315 316 319 317 319 320 321 325 327 327 327 333 336 341 343 350 352 352 349 352 355 357 358 360 357 353 353 355 354 352 351 353 346 343 344 342 344 341
309 311 311 312 312 313 315 315 318 316 318 319 322 324 327 329 333 335 339 343 347 349 349 349 349 350 355 358 356 351 348 351 349 351 350 349 347 347 348 347 345 339 338
310 310 310 311 311 312 314 314 317 317 318 319 321 327 329 331 332 334 338 343 343 345 347 347 347 349 352 353 354 350 348 350 350 351 350 347 346 347 343 344 344 338 335
309 310 309 310 311 311 312 314 316 318 319 320 320 323 329 331 332 335 337 339 341 342 343 348 347 348 349 349 350 350 352 351 351 351 348 346 345 343 344 343 340 338 337
308 308 309 310 310 310 311 313 316 318 320 319 319 322 328 329 328 331 335 338 341 341 341 343 345 350 349 346 352 352 353 352 350 350 346 347 341 333 335 336 342 342 335
307 307 307 308 309 309 311 313 315 316 320 318 319 322 323 325 329 334 336 340 342 343 344 344 345 349 343 318 320 343 351 348 346 345 344 344 332 329 319 323 318 330 339
305 306 306 306 308 309 310 310 312 317 316 317 318 319 322 323 325 328 332 338 344 348 348 347 348 350 351 312 315 322 349 347 348 346 345 340 337 332 336 319 317 319 318
304 306 306 307 306 309 308 310 313 314 316 315 317 317 320 322 324 330 332 340 346 349 351 352 352 353 342 308 310 317 347 345 344 343 342 342 340 336 335 334 331 332 334
305 306 307 308 307 306 310 309 311 313 313 315 315 316 318 321 325 328 334 342 346 348 351 352 352 348 336 305 310 324 343 341 340 339 339 338 337 317 307 335 332 333 333
306 305 305 307 306 309 311 310 310 312 313 314 315 317 319 323 328 332 338 343 348 349 349 347 350 330 339 302 307 320 337 338 335 338 338 314 329 303 303 337 336 332 333
305 305 306 306 308 310 309 310 311 312 314 316 317 318 321 327 331 338 342 344 347 341 341 342 341 341 335 322 302 305 336 334 334 332 334 332 301 300 301 305 339 331 334
303 304 303 304 306 309 310 310 311 315 316 316 316 318 324 329 333 338 341 342 337 337 339 340 337 337 333 313 304 305 311 320 334 332 333 322 298 299 302 316 304 306 315
301 303 303 304 306 308 307 307 310 313 316 316 317 319 328 328 335 338 332 333 336 336 335 335 334 332 332 329 301 300 303 307 336 327 310 299 297 298 306 299 301 308 326
300 302 303 302 304 308 311 312 312 314 315 314 316 323 325 327 332 333 334 336 336 336 333 332 329 330 331 330 331 327 326 310 319 310 320 316 313 307 316 316 318 330 330
300 300 300 301 304 308 308 309 312 314 315 316 323 325 327 329 329 321 329 335 338 330 332 332 330 328 328 328 321 323 330 332 322 324 326 327 327 326 327 328 329 331 329
299 299 300 301 302 306 311 314 318 317 316 318 324 326 327 322 323 323 317 299 301 300 300 308 322 322 305 299 301 299 299 302 304 325 326 325 325 325 326 327 327 326 322

GFSMW_sfc_thetae_060.txt.gz
Theta_e
315 319 323 324 325 332 338 337 345 351 350 348 345 344 345 345 344 345 345 347 348 350 351 350 349 350 345 343 345 345 342 340 345 343 343 344 347 347 345 349 348 346 346
313 316 320 323 325 334 336 338 340 347 348 344 348 345 345 346 347 344 346 349 348 349 348 348 346 345 342 342 341 344 340 341 344 342 341 334 337 344 345 346 346 346 347
312 315 317 320 323 327 334 332 338 341 344 351 350 349 349 350 349 342 342 342 343 342 347 348 345 343 342 339 342 345 344 338 345 347 341 332 325 335 344 344 345 347 348
313 315 317 320 322 326 328 331 334 334 339 343 346 348 345 338 343 346 347 344 346 345 348 345 345 342 344 341 342 347 346 344 339 347 347 346 344 333 332 343 344 347 345
312 312 314 316 321 323 325 329 333 334 332 339 341 340 341 342 337 338 343 339 336 349 346 346 345 343 344 343 345 345 348 349 346 345 346 345 343 343 337 331 335 341 343
310 312 315 317 318 323 324 327 331 328 332 334 339 342 340 339 340 339 333 335 335 334 337 348 344 343 342 340 346 349 351 352 351 348 347 343 340 337 337 333 334 334 338
310 311 313 313 316 318 321 323 325 330 329 331 333 332 337 337 337 339 339 333 333 336 336 344 336 334 333 334 336 332 348 356 351 353 347 346 342 340 340 337 333 332 335
310 311 314 315 314 316 319 321 325 326 328 330 330 331 332 335 332 333 333 335 340 337 336 341 338 333 334 336 337 341 353 356 355 351 352 346 344 342 343 340 335 330 331
311 312 314 316 316 320 322 322 320 324 324 326 329 333 333 333 330 333 336 336 342 340 342 342 339 337 341 348 347 353 354 355 354 352 350 351 347 345 347 344 340 333 324
309 311 312 315 318 321 320 325 325 322 323 324 326 325 329 331 332 334 334 335 336 338 343 342 349 350 352 353 356 355 355 354 353 351 349 348 348 348 346 344 341 339 332
308 309 311 314 317 317 317 322 324 324 321 322 324 327 326 329 331 331 332 332 338 340 341 341 345 350 354 355 355 355 354 352 350 349 347 348 347 348 345 344 341 337 335
309 310 310 312 312 313 314 316 320 321 320 321 323 325 327 330 330 328 331 336 335 340 340 343 343 342 343 350 353 353 353 350 347 347 347 347 348 347 345 343 340 336 337
309 310 311 310 311 312 313 313 315 315 318 320 321 325 326 329 329 330 331 332 333 335 339 341 342 345 347 349 353 354 351 348 347 348 347 347 347 344 343 342 339 336 337
310 309 311 312 313 313 313 313 314 314 314 317 318 320 327 329 331 332 330 329 330 332 337 340 342 344 344 348 352 352 347 347 349 349 349 348 345 343 342 340 339 336 334
308 309 310 313 314 313 314 314 314 313 314 315 318 321 327 329 328 327 328 328 329 333 335 337 341 342 345 347 349 348 347 349 348 350 349 347 342 336 339 340 337 335 332
307 308 309 310 311 312 311 312 312 313 316 317 317 318 321 322 325 325 328 328 328 330 335 337 338 341 343 324 323 339 348 350 347 346 345 339 327 325 321 318 319 332 333
304 306 308 309 311 311 312 312 312 313 313 313 315 317 318 319 321 323 324 326 330 330 332 338 339 340 344 309 315 323 349 348 346 345 344 338 337 331 329 318 318 316 316
304 305 308 309 310 311 311 313 312 311 311 311 313 315 317 317 319 321 323 325 328 331 334 338 341 341 341 308 310 320 347 345 345 345 343 341 338 336 334 331 331 331 330
305 306 307 307 309 310 310 310 310 309 308 310 311 313 314 316 317 318 323 326 327 329 335 338 342 342 330 307 310 330 345 342 343 342 342 340 338 317 311 332 329 329 325
305 303 307 307 305 308 310 309 308 309 309 310 311 314 315 316 316 319 323 325 329 333 335 337 343 329 333 303 309 329 341 339 337 339 329 314 330 304 305 334 331 329 327
305 306 306 305 307 308 309 306 307 307 311 312 313 314 316 317 317 320 325 327 329 333 333 337 341 340 331 317 304 312 338 335 334 332 335 324 301 299 300 308 332 327 328
303 304 302 302 304 306 307 306 306 309 310 312 313 314 316 317 317 321 324 327 331 332 334 336 337 337 332 309 303 310 313 322 331 332 332 311 298 299 303 313 302 304 314
301 302 301 301 303 305 306 305 307 310 311 312 312 314 317 315 318 320 323 328 332 331 333 333 332 330 326 317 301 301 307 312 330 329 310 298 298 299 303 298 300 307 328
299 300 300 300 301 303 305 305 308 310 309 310 313 314 315 316 319 321 324 327 330 330 331 332 329 329 326 326 322 319 316 308 312 309 313 312 310 308 312 315 317 328 326
297 297 297 298 299 303 304 306 308 308 309 310 312 313 314 315 316 320 322 328 332 331 333 331 329 327 326 327 320 324 329 329 319 321 323 324 324 324 323 325 327 328 326
293 293 295 296 297 300 302 305 308 310 310 310 310 312 315 317 319 315 309 300 305 305 306 310 323 320 312 305 301 300 302 304 305 323 323 323 324 323 324 325 326 326 322

GFSMW_sfc_thetae_063.txt.gz
Theta_e
307 310 317 317 322 322 322 323 333 339 343 343 342 341 342 342 342 343 342 342 347 350 347 344 344 344 340 336 336 334 335 332 335 332 332 337 339 340 341 341 339 340 340
305 309 312 314 316 316 323 323 324 334 339 341 341 339 340 342 341 340 340 340 340 344 347 347 344 343 337 335 336 335 332 334 336 334 332 329 331 336 340 338 341 340 342
304 307 310 311 314 319 321 323 326 328 334 341 339 338 341 342 340 338 338 340 341 341 344 345 343 341 337 335 333 334 336 334 335 338 334 327 323 329 335 338 338 339 340
306 306 308 310 311 313 318 319 320 322 325 329 339 336 332 336 339 338 337 337 339 339 341 344 344 339 338 336 334 339 339 338 337 337 343 341 336 326 325 335 338 339 340
303 305 308 311 314 316 314 314 316 319 321 323 327 335 336 337 337 337 340 338 337 343 342 342 342 339 337 337 338 337 338 342 341 339 337 338 339 336 330 325 328 335 337
304 305 307 308 308 313 315 313 315 317 318 322 325 326 327 329 333 333 331 333 336 334 336 345 342 341 340 338 341 341 341 337 334 334 329 326 329 333 332 329 328 327 331
301 305 305 305 306 307 310 314 316 314 315 317 319 320 322 326 325 328 331 333 331 332 333 334 341 341 341 341 336 338 332 327 326 328 328 329 333 337 334 329 326 326 328
301 304 305 305 306 308 307 308 309 311 314 317 318 321 320 325 324 326 327 325 332 332 332 333 337 337 335 329 331 332 329 329 327 324 325 327 329 338 333 331 328 323 324
302 303 306 306 305 307 307 308 307 309 309 309 314 316 318 321 322 322 325 328 331 336 337 336 338 336 335 332 331 331 330 328 331 338 339 333 341 338 337 336 332 326 318
302 304 305 306 306 307 309 308 308 308 309 309 310 314 317 318 320 322 324 324 323 326 330 336 336 336 338 338 335 333 334 333 332 336 346 346 345 341 338 336 332 329 326
299 302 302 304 307 307 306 308 312 312 311 311 310 312 314 316 319 322 323 326 327 328 331 334 334 337 338 338 336 334 335 338 339 346 347 346 341 340 338 334 332 330 328
301 301 302 303 304 304 305 306 307 309 311 313 313 313 316 317 319 319 321 324 325 327 330 334 335 337 339 342 337 338 343 345 346 347 345 344 345 341 338 333 332 330 329
306 303 307 305 304 304 306 306 306 307 307 308 308 310 313 314 316 318 320 319 320 323 325 327 329 333 337 339 347 348 348 348 347 346 342 343 342 340 337 331 330 329 331
304 305 307 305 306 306 306 306 306 306 307 307 306 307 311 315 318 319 321 322 323 323 324 326 329 334 337 339 340 343 347 349 345 345 343 341 343 340 335 334 332 330 328
304 306 304 304 305 306 306 308 307 307 307 310 309 308 311 315 319 320 322 324 324 324 324 324 325 329 334 338 339 345 347 347 341 343 344 342 340 334 336 335 332 328 325
303 305 306 305 305 305 306 306 306 306 308 308 309 311 312 314 313 317 317 320 321 322 323 323 326 328 332 321 317 331 345 339 340 340 340 339 330 327 324 322 326 327 325
302 302 302 302 304 304 305 305 306 308 307 307 309 309 310 311 314 315 317 316 316 320 321 322 323 327 332 316 312 315 344 340 338 339 334 332 331 325 324 317 315 315 318
300 300 300 301 301 303 304 305 306 307 307 306 307 308 308 309 312 314 312 312 315 316 322 324 325 325 330 315 308 311 341 338 337 338 333 331 326 325 324 324 323 323 323
300 300 302 301 301 302 303 304 305 306 306 305 305 307 308 308 310 310 310 311 315 317 318 322 326 330 332 309 305 311 338 335 335 337 334 332 330 312 311 326 324 321 318
301 301 302 301 301 301 302 303 304 304 304 305 306 306 308 309 309 309 310 311 313 317 319 322 326 324 331 311 302 314 337 334 333 330 326 318 328 304 305 325 322 319 318
301 302 302 301 302 303 303 303 304 303 305 306 307 308 308 309 310 311 312 310 314 318 319 322 324 328 330 314 305 309 335 333 331 327 323 318 304 301 301 312 324 321 321
298 299 299 299 301 302 302 301 301 304 306 307 307 308 308 309 311 310 311 313 314 315 317 320 323 327 320 309 304 309 319 319 330 327 321 307 298 298 300 312 304 301 313
297 299 298 298 300 302 302 301 302 304 306 306 306 307 308 310 310 310 309 310 313 316 318 321 323 325 319 314 304 305 307 310 327 326 309 297 297 298 301 298 298 303 323
296 297 297 297 298 301 301 302 303 305 305 306 306 307 308 309 310 312 311 311 314 316 319 321 323 324 318 316 315 314 312 305 308 305 308 308 308 308 306 310 313 322 323
293 294 295 296 297 298 299 302 304 305 304 305 306 306 307 308 309 310 312 314 316 316 318 322 326 322 320 319 316 317 321 320 315 315 318 319 317 316 316 317 320 322 323
291 291 291 292 294 297 297 300 303 304 305 304 304 305 307 309 310 310 310 297 296 297 301 304 321 325 312 305 305 304 303 302 305 318 318 317 317 317 316 317 318 319 319

GFSMW_sfc_thetae_066.txt.gz
Theta_e
306 312 316 320 319 319 320 327 332 335 343 342 339 338 339 340 340 342 344 346 345 345 345 346 343 340 338 337 336 332 332 332 332 330 329 330 333 334 336 338 336 337 338
302 310 314 316 315 317 317 320 328 335 336 341 340 337 337 338 339 340 341 344 348 347 345 343 342 342 340 337 335 333 330 332 334 327 327 324 328 329 335 336 339 339 338
301 306 312 312 312 316 318 320 322 329 335 336 337 336 338 337 336 336 336 338 342 345 348 346 345 341 341 339 334 333 332 329 333 334 329 324 321 327 330 335 339 339 338
302 304 309 309 312 315 318 320 322 324 324 326 333 331 330 331 333 333 334 336 340 340 340 342 345 344 341 339 335 334 335 335 332 334 336 333 333 326 322 330 333 337 339
303 302 307 310 310 316 314 315 316 317 318 320 324 330 332 331 331 334 336 334 336 338 339 340 342 342 340 340 336 335 335 337 335 335 335 333 328 325 321 317 321 329 339
299 303 306 309 311 310 310 311 312 313 315 318 321 324 325 326 328 331 330 333 334 334 337 341 340 341 339 337 338 338 336 336 340 340 336 329 322 321 322 319 321 326 333
301 304 307 308 310 309 308 310 311 312 313 315 316 318 323 325 324 326 329 328 329 330 334 335 340 340 340 339 338 338 338 339 336 333 330 328 325 325 324 323 325 328 329
303 305 305 307 309 308 309 312 310 310 311 313 314 315 315 317 320 321 322 327 328 330 331 332 333 337 339 339 338 337 338 330 328 326 325 324 324 326 328 328 328 325 322
301 303 303 304 304 304 307 309 309 310 312 313 312 312 314 313 315 318 320 321 322 328 332 331 331 332 335 332 331 331 331 331 329 329 328 327 327 325 327 331 332 328 323
299 301 302 302 303 304 304 305 308 308 306 306 307 309 310 313 314 314 315 318 320 321 323 330 332 334 336 334 331 329 329 329 329 329 328 329 332 335 334 335 336 332 328
302 301 301 302 303 304 304 305 304 305 305 305 305 305 308 311 313 314 315 317 319 321 323 327 328 332 333 335 334 334 333 331 331 333 331 330 330 338 341 339 334 329 324
303 301 302 305 303 302 305 306 308 309 308 308 308 308 309 310 309 311 314 317 319 320 322 323 326 330 332 333 335 335 337 334 333 334 336 336 341 339 339 336 331 328 326
304 302 302 303 304 303 302 305 306 306 308 309 308 308 308 309 310 312 314 316 317 318 319 323 325 327 328 330 333 337 338 336 337 337 339 343 343 342 338 333 330 327 328
305 305 305 305 306 305 305 305 304 303 305 305 304 303 304 307 310 312 312 314 317 317 317 319 321 323 325 327 330 335 338 342 342 344 345 344 342 341 337 333 329 327 325
303 304 305 306 306 306 306 306 305 305 305 305 305 305 306 309 311 314 315 318 319 320 320 320 320 320 322 324 325 331 337 338 342 344 345 344 339 333 333 334 328 327 323
302 303 305 305 304 304 305 304 304 304 305 306 306 308 308 309 309 310 311 313 315 318 320 320 320 320 324 315 312 318 330 338 341 340 340 342 328 327 319 322 321 327 324
300 301 300 300 301 302 304 303 304 306 306 305 306 308 308 308 307 309 311 310 311 313 316 317 318 318 319 310 308 311 323 330 339 339 337 335 338 329 331 317 316 316 314
297 297 298 299 299 300 302 303 304 304 305 305 306 307 307 307 307 307 308 309 309 310 311 314 316 318 320 309 306 309 321 326 336 337 336 333 328 329 328 325 324 324 323
298 299 300 300 301 301 302 302 303 304 304 305 305 306 307 306 306 305 306 308 308 309 311 314 316 317 321 310 307 310 322 327 334 336 333 330 328 310 308 325 322 320 319
299 299 299 299 300 302 302 301 301 302 302 304 304 306 306 306 305 305 305 307 308 309 312 314 316 315 320 311 306 309 322 327 330 331 329 314 325 304 306 324 322 318 318
297 298 298 297 299 301 302 300 301 301 304 305 305 305 306 305 305 305 307 307 306 310 312 313 314 318 319 321 306 301 320 330 329 329 329 327 305 302 302 311 324 319 317
296 298 297 297 299 300 301 300 300 303 304 305 305 305 305 305 306 306 307 308 308 309 310 311 313 317 320 310 308 300 302 316 329 328 328 322 303 300 302 310 303 300 310
294 296 296 296 297 299 299 298 300 301 302 302 303 304 305 306 306 305 305 306 308 309 310 311 313 315 320 319 304 298 299 305 327 326 313 301 297 298 301 300 298 302 321
292 294 293 293 295 297 299 300 301 302 303 302 303 304 305 306 307 308 307 307 308 308 310 312 313 315 318 318 314 314 311 305 311 305 306 305 307 305 306 307 305 322 323
291 291 291 292 292 295 297 300 301 302 302 303 303 304 305 305 306 306 308 309 310 310 311 313 315 315 317 319 311 314 321 319 313 313 319 318 316 316 316 316 318 320 321
290 290 291 291 292 294 295 298 301 302 301 301 302 304 305 304 305 305 305 296 300 298 296 296 304 315 306 303 302 300 302 302 304 319 318 317 315 315 315 316 316 318 317

GFSMW_sfc_thetae_069.txt.gz
Theta_e
303 304 307 314 319 322 327 335 337 339 340 339 339 337 338 337 338 341 341 341 342 343 342 340 339 337 336 336 336 333 332 331 333 329 328 328 331 331 332 333 334 335 337
299 307 313 316 318 320 325 328 332 338 340 340 337 337 337 337 336 337 341 344 343 342 341 342 342 342 339 337 336 333 330 331 332 326 325 322 328 328 331 334 335 336 338
299 302 310 314 313 314 318 323 329 333 336 338 336 335 336 334 335 334 336 339 344 344 343 342 341 342 342 339 337 335 331 330 331 331 324 320 320 326 330 330 335 332 334
299 300 309 310 310 314 315 318 321 328 331 335 333 330 329 332 333 333 333 336 338 337 343 344 342 341 341 339 337 337 333 331 329 332 334 331 329 325 320 328 328 328 329
297 299 305 312 311 312 316 318 320 319 320 322 327 329 328 328 329 331 333 332 334 336 338 339 340 343 342 341 340 336 333 333 332 332 332 332 332 326 320 318 319 325 327
298 298 302 310 308 311 313 314 315 314 315 319 321 322 324 325 326 328 329 330 332 333 334 337 337 339 339 338 339 338 334 336 335 335 334 333 326 323 321 315 317 320 325
302 298 301 305 309 310 311 310 310 310 312 315 317 319 320 320 320 322 327 327 327 329 333 334 334 335 336 337 336 336 336 334 334 334 336 338 336 326 323 319 318 319 328
298 298 303 307 312 310 307 308 308 309 310 313 313 313 315 318 319 319 320 321 324 327 330 330 331 332 337 337 335 335 335 336 336 335 336 334 331 326 327 324 322 320 322
297 299 302 308 311 308 307 308 307 308 309 311 310 311 312 313 315 316 316 317 318 321 324 328 328 329 330 335 335 335 336 335 334 334 334 331 329 326 327 328 327 323 317
300 300 301 301 301 305 307 307 308 308 309 310 310 311 311 312 311 311 312 313 315 318 320 321 325 327 329 330 329 330 332 330 331 332 329 327 329 328 327 327 328 328 324
299 299 301 302 302 301 300 305 308 308 307 306 306 306 306 308 310 310 310 312 313 315 317 319 321 325 327 328 329 328 330 329 329 329 329 328 329 329 332 331 331 332 331
300 300 300 301 302 301 302 302 304 306 307 306 304 303 304 305 306 307 309 310 311 314 318 320 322 325 326 327 330 331 333 332 331 331 333 332 332 329 332 339 337 333 329
304 305 303 301 302 303 301 301 302 304 305 304 304 304 305 306 307 308 309 310 311 313 315 318 319 322 325 327 328 332 334 333 334 334 334 334 335 335 338 337 335 329 328
303 304 305 303 303 304 305 302 302 303 304 306 306 306 305 306 306 308 310 311 313 313 313 314 316 319 320 321 323 324 325 330 333 336 337 339 337 338 337 335 334 328 327
299 302 303 305 305 304 304 305 304 303 303 303 302 302 302 304 307 309 312 313 315 316 316 316 317 318 320 321 320 320 321 324 329 333 338 342 340 330 334 337 330 328 325
296 298 302 303 304 304 305 305 305 304 304 303 303 305 306 308 308 309 309 309 310 311 312 314 317 317 320 312 310 313 318 322 324 327 333 337 331 329 321 321 321 328 326
296 297 298 299 299 300 302 303 305 305 304 303 304 306 306 306 306 306 306 306 306 307 308 309 311 313 314 308 306 308 314 319 321 325 329 333 338 327 334 316 314 316 315
296 296 297 298 299 298 300 301 303 304 304 304 305 306 306 306 306 305 304 303 303 304 305 306 308 310 314 306 304 305 311 316 320 323 326 331 335 332 331 327 327 325 322
296 298 299 299 300 301 301 301 300 301 302 303 304 305 306 305 305 305 305 302 303 303 304 306 308 308 311 306 304 306 316 318 320 324 328 333 335 317 307 329 326 322 319
298 297 297 299 300 300 301 299 298 299 299 301 302 305 306 305 304 305 304 302 303 305 306 305 306 309 312 306 303 306 315 316 320 324 329 312 325 305 303 328 324 320 318
297 297 297 296 297 298 299 298 298 298 300 302 303 304 305 305 305 304 304 303 302 303 304 306 308 310 312 313 303 300 313 318 321 325 328 324 305 301 303 310 324 320 319
296 297 296 296 298 298 298 297 297 300 301 302 303 303 303 303 305 303 303 302 302 303 303 305 307 310 312 305 304 300 299 307 319 325 327 323 299 300 300 308 305 301 310
294 295 295 295 297 296 296 296 298 299 301 301 301 302 303 304 304 303 302 301 302 304 304 306 307 309 313 314 304 302 300 298 305 322 320 307 298 298 302 305 300 304 319
292 293 291 291 291 294 296 297 298 299 299 300 301 301 301 302 303 304 304 303 304 304 305 305 306 309 312 314 314 314 316 303 306 305 307 307 308 305 311 306 306 320 321
291 291 290 289 289 292 294 296 297 299 299 299 300 300 301 301 302 303 304 305 306 306 306 307 309 309 311 313 310 310 317 318 312 311 312 316 317 316 316 316 318 321 320
291 293 295 295 294 293 293 295 296 299 299 299 300 301 302 303 303 303 304 297 298 298 298 299 305 312 303 300 297 297 297 299 300 315 318 319 319 318 318 319 319 321 318

GFSMW_sfc_thetae_072.txt.gz
Theta_e
304 304 305 307 307 312 325 332 336 338 339 338 338 337 335 337 338 340 341 341 343 344 342 339 335 336 337 337 338 338 336 334 336 334 333 332 334 334 335 340 340 340 342
298 301 307 311 312 314 321 330 335 335 338 339 340 339 339 337 339 340 340 341 342 342 342 341 339 337 335 337 338 337 334 334 334 332 329 322 328 333 339 338 339 339 341
297 299 304 312 313 316 322 329 335 337 337 338 337 336 336 335 335 337 338 340 342 342 342 342 341 341 340 338 338 338 335 333 333 333 330 323 321 328 334 336 337 339 335
297 298 300 308 312 315 320 326 330 335 337 337 337 335 333 333 334 337 339 339 342 343 344 343 343 343 343 342 340 340 338 336 331 333 335 334 333 327 326 331 333 333 331
296 297 299 301 312 313 315 320 326 329 334 337 337 333 330 330 331 333 335 336 338 339 341 341 341 340 340 340 339 338 336 335 334 333 333 333 334 333 330 326 329 328 329
299 297 299 302 308 310 313 315 319 322 325 330 331 333 330 330 330 330 330 333 334 336 337 339 336 340 340 341 340 340 335 334 337 336 334 334 333 331 326 325 324 323 327
296 298 298 298 305 308 312 314 315 314 316 320 321 322 323 325 325 327 330 330 331 332 335 336 337 337 339 340 338 337 336 336 335 334 334 336 335 334 328 325 327 324 329
296 298 298 298 303 309 312 316 313 311 313 317 319 320 320 320 321 322 325 328 330 331 333 334 335 336 339 339 339 337 337 338 337 336 336 338 339 336 333 331 325 325 327
298 298 299 302 304 308 312 315 310 310 311 313 313 314 315 316 317 319 319 319 321 325 327 329 330 332 333 336 338 337 337 337 337 337 335 334 334 329 330 331 328 327 321
299 299 300 300 302 302 305 307 308 310 310 311 311 311 312 314 314 314 316 317 318 320 324 327 328 329 331 332 333 334 335 335 336 336 335 333 331 331 330 329 328 330 326
299 300 300 301 301 301 303 304 306 307 309 309 310 310 311 313 312 312 313 313 314 317 319 320 321 324 327 330 330 330 330 331 331 333 332 331 330 328 330 330 330 330 330
299 300 302 302 303 302 302 304 306 305 306 307 308 309 309 309 310 311 312 313 314 315 317 320 323 324 326 327 328 329 332 332 331 332 333 332 333 329 330 331 330 330 331
297 300 301 302 304 304 304 303 303 305 306 307 306 305 306 306 307 308 309 311 312 313 316 319 320 322 324 325 327 329 331 332 333 333 334 334 335 332 330 330 331 335 334
296 297 298 301 304 305 306 305 305 304 305 307 306 305 306 306 307 309 311 313 315 315 316 317 319 320 321 323 324 324 326 327 330 332 335 336 338 337 335 335 336 333 331
296 296 296 298 302 305 305 306 305 304 304 304 306 307 308 307 308 309 311 313 315 316 318 318 319 320 321 321 323 323 324 324 324 327 331 335 335 331 334 341 340 332 332
295 296 297 298 301 301 301 304 305 305 305 305 304 305 305 306 307 309 312 313 314 315 316 317 317 317 318 310 308 315 320 322 323 323 325 329 327 329 320 319 320 330 331
295 296 297 297 298 299 300 300 303 305 305 304 305 307 307 308 309 310 310 310 310 310 310 311 313 314 315 306 304 306 316 318 319 321 323 325 329 326 335 323 314 315 313
295 296 296 297 298 299 299 300 301 302 302 302 303 305 306 307 308 307 307 307 307 307 308 308 310 311 312 305 303 304 315 316 318 321 323 324 326 329 331 336 332 329 327
296 296 298 299 300 300 301 300 301 301 301 301 302 303 305 306 306 306 306 305 305 305 306 308 309 310 311 303 301 304 315 317 320 323 325 326 328 317 306 331 331 328 324
298 299 299 299 299 300 300 298 298 299 299 300 301 302 304 304 305 306 306 305 306 306 307 308 308 307 309 302 301 304 313 317 320 323 325 309 317 307 301 327 330 324 324
297 298 298 297 298 299 299 297 297 297 299 301 301 301 303 303 305 306 306 305 304 306 306 307 307 308 309 310 301 301 311 316 319 321 323 327 306 302 298 306 329 325 322
294 295 295 295 296 297 297 296 297 298 299 299 300 300 302 303 304 305 305 305 304 304 304 304 305 308 311 302 302 299 298 308 317 319 323 326 304 298 297 306 304 301 312
293 294 294 294 295 296 297 295 297 299 299 299 299 300 302 303 304 304 304 303 303 303 303 304 305 306 310 312 300 298 298 298 306 314 314 302 298 296 302 299 299 304 322
290 291 291 290 291 293 295 296 298 298 298 298 298 299 300 301 303 304 303 303 302 303 304 305 305 307 308 311 314 313 309 302 305 307 312 308 304 304 309 307 309 322 322
290 291 290 291 291 292 293 294 295 297 296 296 297 298 300 300 301 302 303 304 305 304 305 305 307 306 307 310 308 310 317 318 313 312 312 314 315 313 316 317 317 321 321
291 292 293 295 297 297 296 294 294 295 295 296 297 298 300 301 301 302 303 296 299 298 297 298 305 310 303 300 297 296 296 296 297 313 315 315 319 319 318 317 318 321 318

GFSMW_sfc_thetae_075.txt.gz
Theta_e
311 313 314 317 321 324 332 344 347 350 350 347 346 345 344 349 350 350 352 351 350 352 353 349 349 347 345 344 343 343 344 343 343 342 342 341 344 344 345 344 347 348 348
309 312 313 314 318 323 326 334 345 349 349 348 349 346 346 346 348 350 351 352 351 350 350 351 349 347 343 345 345 345 342 345 344 341 336 330 336 340 345 345 345 347 347
309 311 312 314 320 321 325 329 340 348 349 350 349 348 348 346 344 345 346 348 349 350 351 349 349 348 345 341 344 345 346 340 341 344 339 330 327 333 342 343 343 345 345
308 309 310 313 316 323 326 327 334 345 346 349 346 347 342 340 343 344 345 346 348 348 348 349 348 350 346 347 345 346 347 344 343 339 340 343 341 332 327 339 340 344 342
307 309 311 313 315 318 325 329 334 341 346 347 349 345 346 346 346 346 348 349 348 349 347 349 349 349 350 351 349 346 345 343 339 338 337 341 339 341 332 327 334 338 341
309 310 311 312 312 315 320 328 334 340 345 346 348 348 347 346 344 346 345 346 347 347 350 350 351 350 350 349 345 340 333 334 332 332 334 335 334 334 335 332 333 333 337
308 309 310 311 313 313 316 323 330 337 345 346 347 347 349 347 346 346 346 346 345 346 349 350 348 348 350 348 342 340 334 333 331 335 336 340 338 339 337 338 334 336 335
309 310 311 312 313 312 313 320 326 333 339 344 347 347 348 345 345 346 344 344 344 345 349 348 348 348 348 348 346 340 338 333 331 335 337 340 341 343 342 343 341 333 335
308 309 311 312 314 315 312 317 322 328 332 337 339 337 336 336 335 339 342 341 344 343 344 345 346 346 347 348 349 347 343 340 335 338 343 343 343 345 343 342 338 331 326
307 309 310 311 313 315 317 318 322 326 327 331 331 331 332 333 334 335 335 336 335 334 335 336 338 339 340 342 344 343 344 341 343 343 344 343 341 342 341 337 337 334 330
304 306 309 311 312 313 315 318 319 322 324 326 327 327 326 327 329 329 330 330 331 330 330 331 334 333 334 338 339 339 338 337 338 339 338 336 339 336 338 337 332 329 329
303 304 305 307 310 313 313 316 318 319 320 321 322 323 325 325 326 326 326 327 326 327 327 328 328 329 330 335 334 332 332 332 332 331 334 333 334 338 341 338 334 330 330
303 304 304 304 306 308 313 314 316 318 318 316 317 320 321 323 325 325 326 325 325 325 325 325 327 328 328 330 332 331 330 331 331 330 331 333 335 336 338 340 338 333 332
302 302 303 304 305 308 311 311 313 315 316 315 317 318 319 320 322 323 323 323 323 323 324 325 325 326 328 327 328 329 329 330 329 331 333 331 332 335 337 339 339 337 333
300 301 302 303 304 306 308 307 308 311 313 313 315 318 321 321 320 320 321 322 323 324 324 325 326 327 328 326 329 330 330 330 329 331 331 331 329 325 328 334 340 341 335
299 300 301 303 303 304 306 306 306 306 308 309 312 313 315 317 319 319 320 322 323 325 325 325 326 326 322 309 311 317 323 323 325 328 330 330 326 325 316 316 316 328 338
299 300 301 302 304 304 306 305 306 307 306 306 307 308 312 313 315 317 318 321 323 325 325 324 322 322 322 307 306 307 320 321 323 324 327 327 324 326 331 322 315 315 311
299 300 301 303 304 305 305 307 307 306 306 306 306 307 308 310 314 315 317 320 322 322 320 320 320 320 319 305 303 304 319 319 320 323 326 328 330 330 329 332 335 339 338
301 302 303 306 306 305 305 305 305 305 305 304 306 307 307 308 310 313 317 319 319 319 318 318 318 318 318 302 300 306 316 315 317 320 324 327 330 316 304 328 333 335 335
298 301 301 302 302 303 305 306 304 304 304 305 305 307 308 308 309 312 313 317 317 317 315 316 317 312 317 302 299 306 313 314 315 319 324 310 320 307 301 324 330 333 334
299 300 298 297 299 301 301 300 301 303 304 305 305 306 307 308 310 313 314 315 314 314 315 314 316 317 315 315 298 298 314 313 314 315 320 323 304 299 298 300 326 331 334
296 297 295 294 296 298 297 296 297 301 302 304 304 305 307 307 306 311 312 312 313 312 313 313 313 313 316 303 300 298 298 307 316 316 320 325 303 299 300 302 303 302 313
294 294 292 292 293 294 295 294 296 298 300 302 304 304 306 305 306 307 308 307 311 309 309 308 309 310 312 315 298 297 296 297 306 316 314 300 300 299 302 296 299 300 329
290 291 291 290 291 293 293 293 295 297 297 299 302 303 303 304 305 305 306 307 308 308 308 308 308 309 311 312 313 314 314 301 304 308 313 310 306 303 311 309 306 328 331
290 291 291 292 293 295 296 295 295 295 296 297 298 301 301 301 303 305 307 307 312 309 308 309 309 309 309 310 306 307 313 315 313 316 319 316 318 318 318 320 320 326 327
292 292 293 294 296 297 296 297 297 295 295 295 297 298 299 299 300 303 305 297 299 298 297 299 306 310 302 299 298 298 296 295 297 314 318 317 320 319 319 320 320 324 320

GFSMW_sfc_thetae_078.txt.gz
Theta_e
314 317 319 322 323 327 333 345 355 359 358 354 352 351 348 351 351 353 355 354 355 354 356 349 353 353 349 350 353 346 346 342 346 344 346 346 349 349 345 347 346 347 349
313 314 317 321 323 325 329 335 348 355 358 355 356 354 352 351 351 351 354 353 352 353 355 352 352 353 349 353 351 349 340 340 344 343 339 332 337 341 348 347 348 348 347
312 314 315 318 321 324 328 331 340 353 357 358 355 353 352 350 347 350 350 354 353 353 355 356 355 354 352 347 354 351 347 335 345 353 341 333 325 335 342 348 345 351 345
313 314 315 317 319 322 325 330 334 341 350 358 354 355 346 344 347 348 350 352 353 353 353 357 354 356 351 349 350 349 349 347 339 348 347 344 340 332 328 339 342 346 349
312 313 314 316 318 321 323 328 334 337 343 355 355 352 352 347 348 348 354 355 354 353 351 353 353 353 349 350 353 351 349 345 343 342 338 333 333 333 333 326 331 339 339
312 314 316 318 319 321 321 324 330 336 338 346 352 357 355 353 347 350 349 349 349 350 353 351 353 351 353 354 353 354 351 347 343 340 336 330 327 326 326 326 331 336 339
313 314 314 316 318 319 321 322 324 330 338 340 347 351 354 355 358 354 350 351 347 348 354 356 355 352 356 356 357 354 350 346 341 341 335 338 330 331 332 332 335 336 337
313 314 315 317 317 319 321 323 322 324 333 341 343 348 351 349 351 355 350 348 347 351 360 355 355 356 356 356 356 353 349 350 345 343 340 336 338 338 338 339 337 336 336
309 311 314 316 317 318 320 322 324 322 329 338 346 350 352 353 351 357 359 352 355 346 353 356 355 354 354 354 354 350 350 349 346 342 341 338 338 347 348 344 343 337 329
309 310 311 314 316 318 320 322 325 325 325 333 343 347 349 352 353 353 353 352 350 348 350 352 352 352 352 352 352 352 351 347 340 339 341 345 342 343 346 342 340 339 334
307 309 310 312 314 316 318 321 323 325 325 329 338 345 347 347 345 343 340 340 343 341 340 341 343 345 346 348 349 348 346 346 346 346 344 343 345 346 339 339 337 336 337
306 308 310 311 312 313 315 318 320 323 325 328 333 338 338 337 335 333 334 336 336 335 333 333 334 335 336 339 340 340 339 340 340 340 338 336 335 339 340 335 339 338 339
307 307 309 309 310 311 313 315 318 319 323 326 328 330 330 330 331 331 332 331 329 328 327 327 327 327 329 333 334 331 331 332 331 331 331 331 333 335 334 336 335 335 340
307 305 308 308 309 310 311 313 314 316 317 320 322 324 326 328 328 329 329 328 327 326 326 327 326 326 327 329 330 329 331 331 330 330 331 329 329 331 333 335 337 338 339
304 305 306 307 308 309 310 311 312 313 312 314 317 321 324 324 326 328 328 327 326 325 325 325 325 325 326 325 327 328 329 331 330 331 329 330 327 322 324 326 332 336 336
302 303 304 306 307 308 309 310 311 312 312 309 312 313 319 323 324 325 326 326 325 325 324 324 323 325 323 311 316 325 330 330 329 326 325 327 325 324 316 315 316 324 334
302 303 304 306 307 308 310 309 310 311 311 309 309 313 313 315 321 323 324 325 326 330 328 326 326 327 327 307 308 310 327 325 325 325 324 323 319 321 325 317 313 313 310
301 302 303 303 306 306 308 309 311 310 310 310 307 308 311 312 315 320 323 327 327 330 330 330 329 329 326 304 303 306 323 323 324 324 324 325 325 326 326 327 328 328 333
300 300 303 301 306 304 306 308 308 309 309 309 308 308 308 309 311 317 321 324 327 329 330 328 328 327 325 302 301 308 320 321 322 322 323 324 323 311 304 329 328 326 330
298 300 299 301 301 302 304 303 304 306 307 308 309 310 310 310 310 313 320 323 325 326 325 326 326 318 324 300 299 306 316 318 318 322 323 308 316 306 304 328 329 325 328
296 298 298 298 298 299 302 299 300 302 305 306 308 311 312 312 315 318 319 321 321 322 324 323 324 324 321 319 299 298 316 316 316 317 318 319 303 298 297 299 328 326 326
295 295 294 294 296 297 297 296 294 298 302 303 304 306 311 311 311 315 316 317 320 319 320 320 319 320 322 307 300 298 299 308 316 316 317 318 300 300 299 305 306 300 304
292 293 292 292 293 294 294 292 295 296 298 301 302 304 308 310 311 313 313 313 317 314 314 314 315 316 317 320 300 298 297 297 310 315 310 303 298 297 306 301 297 297 324
291 292 292 292 292 293 293 293 294 296 296 297 299 302 304 306 310 310 311 311 312 313 313 314 313 314 315 316 318 316 313 300 306 308 312 310 306 298 306 312 317 321 331
292 293 292 293 294 296 297 298 297 296 295 295 297 300 302 304 304 308 310 310 315 311 312 314 314 314 314 315 310 311 317 318 311 314 318 316 319 321 322 324 326 328 331
291 292 292 294 295 298 299 298 298 298 296 294 296 298 300 301 303 304 307 299 298 297 297 297 307 314 302 298 298 299 298 297 293 312 316 317 320 320 319 322 324 327 324

GFSMW_sfc_thetae_081.txt.gz
Theta_e
314 317 319 321 322 330 338 344 355 367 362 357 357 354 353 355 356 357 360 360 358 356 352 350 351 352 348 348 352 350 349 342 345 338 340 341 354 355 349 348 346 350 352
314 316 319 323 327 332 338 341 348 362 365 359 359 357 356 355 355 356 359 356 359 357 350 350 351 353 349 354 354 351 344 344 344 337 337 332 340 344 348 347 347 352 357
313 315 316 319 321 325 330 334 342 348 363 363 361 359 359 359 354 356 356 358 358 357 359 358 356 356 353 347 350 352 347 337 343 350 341 336 330 341 347 352 346 351 349
314 315 316 318 320 322 326 332 338 344 344 364 356 358 352 350 353 353 354 357 357 356 358 358 358 360 354 352 350 354 352 348 339 345 353 347 342 335 333 340 343 344 347
313 314 315 317 320 321 322 328 337 341 347 346 359 354 355 351 353 352 354 357 358 358 356 358 360 360 356 356 356 357 355 350 344 343 345 342 337 336 331 327 330 335 338
313 315 318 319 320 321 322 325 334 338 341 344 345 355 354 352 348 351 350 352 352 352 357 356 358 360 358 357 354 357 355 350 348 344 346 340 333 331 330 327 330 330 332
314 315 315 317 319 320 321 323 325 331 335 337 343 346 354 357 352 353 352 351 352 353 354 357 356 356 358 357 356 358 355 352 348 348 343 342 339 339 335 331 328 326 329
312 313 314 315 317 319 321 322 323 325 329 333 338 345 351 351 353 355 350 351 349 354 360 357 356 358 357 357 361 360 358 353 349 349 349 343 341 340 337 333 329 327 331
310 312 314 314 316 316 319 321 323 323 327 329 334 343 348 352 350 353 355 352 354 353 358 358 358 356 357 360 361 356 353 356 354 352 352 348 344 341 340 339 337 337 329
308 310 310 312 315 317 318 320 322 323 326 329 330 333 347 351 353 355 354 353 355 357 354 359 359 358 357 356 357 355 355 353 350 350 350 347 342 342 341 341 342 345 340
309 310 310 312 313 315 316 318 319 321 323 327 329 332 343 347 350 350 352 354 355 356 350 353 355 352 353 354 354 354 350 349 350 349 345 342 347 343 343 347 348 345 340
310 311 311 312 312 311 313 315 317 319 322 324 327 330 338 346 348 349 347 346 343 343 348 347 347 345 345 351 348 346 345 343 344 345 345 342 344 346 346 340 346 339 340
308 309 310 310 310 311 311 313 315 317 319 322 324 328 331 342 344 345 341 341 345 343 340 339 338 337 338 340 342 342 340 342 343 342 342 340 341 342 338 341 336 335 338
307 307 308 308 309 310 311 312 313 315 317 318 322 324 325 331 335 335 339 336 337 336 334 335 331 331 331 334 335 335 336 336 337 338 336 333 333 335 338 337 341 338 336
303 304 305 307 308 308 310 311 312 313 315 315 317 320 319 328 331 331 332 334 332 330 328 327 326 329 330 329 333 333 334 337 335 335 330 332 327 322 324 326 333 338 332
302 303 304 305 306 307 308 310 311 312 314 313 314 317 317 316 325 330 331 331 329 330 328 328 325 330 323 310 314 329 335 334 332 332 331 330 323 322 317 315 315 324 334
301 301 303 304 305 306 307 307 309 310 312 312 313 314 315 316 316 323 327 329 333 333 331 330 329 330 332 307 309 316 334 335 335 332 329 324 320 319 322 315 312 313 311
299 299 301 301 303 302 303 307 306 307 308 310 312 313 314 314 316 317 321 330 334 335 334 330 330 330 328 305 307 313 336 334 332 331 328 328 326 326 324 324 325 329 333
298 298 300 300 302 301 303 302 301 305 307 306 310 312 313 313 313 315 316 318 331 333 333 333 331 333 325 302 303 314 330 328 326 325 326 326 325 310 302 323 325 328 333
297 297 298 298 298 299 302 299 301 301 300 306 308 310 312 313 313 313 315 320 323 329 327 331 334 326 323 300 301 312 319 326 321 327 326 309 317 306 302 323 324 324 330
295 296 296 295 296 298 298 296 299 301 301 304 307 308 310 313 315 318 315 315 319 324 328 330 334 333 330 312 299 300 321 318 319 319 320 322 302 299 295 298 327 326 323
293 293 292 293 294 296 295 294 294 298 301 302 303 306 306 309 312 317 317 314 315 316 318 325 329 328 331 311 299 298 299 311 321 320 319 320 299 300 297 303 308 301 305
290 291 291 291 293 294 295 293 294 296 297 298 301 301 304 309 309 316 315 314 313 313 316 319 321 322 324 324 302 298 298 298 313 318 310 299 298 296 298 296 295 294 324
289 291 292 291 292 294 295 296 296 295 295 295 296 298 300 304 307 310 315 314 315 313 314 315 318 321 321 323 319 314 311 299 306 307 313 309 305 298 302 308 314 324 325
291 292 291 291 293 295 296 299 300 298 294 295 295 296 299 303 305 307 312 315 319 315 319 318 320 321 320 321 315 315 317 317 312 313 318 319 318 316 316 317 320 322 323
291 291 292 292 294 294 295 299 298 298 297 295 295 296 299 301 303 304 306 300 301 299 298 299 308 316 309 304 300 300 298 295 296 313 316 315 315 316 317 319 320 322 320

GFSMW_sfc_thetae_084.txt.gz
Theta_e
313 317 323 325 328 334 336 341 342 363 362 359 355 354 352 354 354 351 356 352 350 350 347 347 349 347 344 343 344 343 343 338 343 340 339 342 348 348 348 350 347 346 348
315 316 319 326 328 332 340 341 343 349 360 355 357 355 353 353 354 355 353 355 352 351 347 347 343 344 342 343 345 341 338 341 343 336 336 330 336 346 350 347 346 344 348
316 319 322 323 324 330 336 337 339 345 347 358 357 356 355 353 350 351 352 353 353 353 349 348 344 343 343 342 343 346 342 336 338 343 336 330 329 338 346 347 347 345 345
315 317 319 322 324 326 328 331 339 342 343 343 352 352 348 345 346 349 351 349 354 354 350 349 348 345 345 343 345 346 344 342 336 338 341 346 341 332 331 341 343 341 339
313 313 316 318 322 325 330 334 338 337 339 343 339 345 344 349 350 351 351 352 353 353 352 351 350 346 346 348 346 345 347 344 339 338 345 340 338 336 331 325 332 335 336
313 315 318 320 321 323 324 328 334 337 338 340 345 339 342 344 345 346 345 346 348 351 352 352 352 353 349 351 349 351 349 347 343 340 345 339 334 331 329 327 327 327 329
311 312 313 315 318 319 321 322 325 327 332 332 334 337 340 342 343 345 344 345 345 348 349 349 350 351 351 351 352 349 350 349 346 343 342 343 338 338 333 330 326 324 327
312 312 313 315 314 317 320 321 322 324 328 330 329 331 332 338 340 345 346 345 344 345 349 351 350 351 352 352 351 349 348 350 346 346 343 343 340 339 337 332 328 324 326
311 311 311 313 314 316 319 320 321 323 324 325 330 332 332 331 337 344 346 346 348 348 347 351 350 351 351 352 350 348 347 348 347 346 347 344 342 341 340 339 334 328 322
309 311 312 314 316 317 317 322 323 321 322 324 327 326 330 331 333 342 344 346 346 347 348 348 350 350 351 352 350 348 349 350 349 347 344 343 342 342 341 339 337 337 333
308 309 311 313 314 315 315 317 318 317 314 319 323 326 325 330 330 336 341 344 344 346 346 349 350 348 350 349 348 347 348 345 345 345 344 342 345 339 339 339 340 339 339
309 309 310 311 311 312 313 314 317 317 316 317 320 323 323 329 331 334 339 342 342 344 346 333 337 346 342 337 341 342 345 344 345 344 344 342 341 341 342 341 339 337 337
309 309 309 310 309 310 312 312 313 312 314 316 316 321 321 325 327 331 337 342 342 344 333 328 325 322 324 325 329 339 343 343 345 344 343 342 342 340 340 336 335 336 335
305 306 306 306 308 308 309 309 310 311 313 314 312 318 320 324 322 328 334 338 340 335 323 323 323 324 320 320 331 340 341 340 341 342 340 339 338 336 336 335 334 334 332
302 303 304 304 306 306 307 309 310 311 311 309 310 314 320 322 322 323 328 334 326 324 328 322 323 331 321 330 334 334 334 337 337 338 337 337 329 322 323 328 328 326 323
301 302 303 304 304 305 305 305 304 305 308 307 308 311 315 318 319 320 320 317 321 319 323 329 322 322 333 316 316 327 332 334 332 330 331 327 321 319 315 314 314 319 324
300 300 300 300 301 301 303 302 302 303 304 304 307 309 310 313 317 317 317 317 318 325 328 326 326 326 325 310 310 318 331 332 331 330 331 324 324 322 327 314 311 311 309
297 297 297 298 299 300 300 300 301 303 302 301 304 306 309 309 314 316 316 317 316 320 329 328 327 327 324 306 307 314 332 332 333 331 329 326 325 323 323 323 323 325 327
297 297 297 297 297 297 298 299 300 301 300 302 302 304 308 308 310 315 316 318 314 315 330 331 330 328 316 302 306 319 331 328 328 328 328 328 326 305 305 321 320 321 324
296 294 294 294 294 295 296 296 297 297 299 301 302 304 307 307 307 314 315 315 315 314 321 331 330 320 320 300 304 320 325 325 324 326 327 309 319 307 303 319 321 320 322
294 294 293 292 292 293 293 292 294 294 297 299 303 303 304 305 310 308 318 313 314 315 317 324 331 326 318 309 300 307 322 322 321 321 323 323 304 299 299 299 318 319 320
291 292 291 291 293 294 293 292 292 295 297 297 298 301 303 304 307 307 313 316 312 311 312 319 322 326 318 307 299 299 307 310 319 319 321 314 299 299 295 298 306 298 303
290 291 291 292 293 294 294 293 293 295 296 296 295 296 301 302 304 305 307 313 313 310 310 315 319 323 318 312 301 298 298 299 317 319 301 298 294 296 298 296 295 293 311
290 292 292 291 292 294 295 296 297 297 296 295 295 296 297 301 304 303 307 310 312 312 312 313 315 319 319 314 309 306 304 300 305 307 313 308 304 299 303 303 303 312 320
291 291 291 290 291 294 294 295 297 298 298 297 295 295 296 298 300 302 304 309 314 313 312 313 314 313 316 317 310 309 311 312 309 312 315 314 314 313 315 316 315 315 317
291 290 290 290 292 293 295 298 299 298 298 296 295 295 296 296 298 301 303 299 298 298 301 302 310 315 307 305 303 301 304 304 300 310 312 312 315 316 316 316 318 320 317

GFSMW_sfc_thetae_087.txt.gz
Theta_e
308 309 312 313 313 318 319 319 321 329 349 346 349 347 347 348 349 348 346 346 346 346 346 343 339 341 338 337 336 336 333 332 333 332 330 332 338 338 342 342 339 340 340
306 308 309 312 312 312 319 320 318 321 336 347 347 350 349 348 350 350 347 347 347 346 345 345 342 342 341 337 337 336 333 333 334 328 325 321 324 333 337 340 340 338 339
306 308 312 313 316 315 318 323 323 323 324 338 346 344 346 345 344 346 349 348 348 347 345 344 343 341 341 339 338 336 333 331 334 332 326 320 317 326 337 338 338 338 339
307 308 309 311 313 315 319 318 327 331 330 329 333 340 339 339 343 345 347 348 348 347 345 344 343 341 340 338 337 338 335 332 331 331 334 335 332 324 324 335 337 338 338
307 308 310 312 312 314 314 319 319 322 323 324 329 328 331 337 340 342 341 344 348 348 347 345 343 341 339 337 338 338 340 337 332 331 332 334 333 331 326 323 329 332 333
307 307 308 309 309 310 312 313 316 317 320 320 321 324 327 329 333 336 338 340 343 346 347 348 345 343 340 340 340 340 341 340 336 335 335 332 331 329 326 322 322 325 325
304 305 304 306 307 307 308 312 312 312 316 319 320 320 319 323 326 329 334 336 338 341 343 345 345 341 341 342 343 340 339 341 339 337 336 338 335 330 329 324 321 321 322
304 304 305 305 306 307 309 310 311 311 313 315 316 319 321 322 322 323 325 335 337 339 343 342 343 341 340 341 342 341 343 341 341 339 336 340 338 334 329 325 322 319 319
303 304 303 306 305 305 307 309 309 310 312 312 312 314 319 322 323 323 325 326 336 341 340 342 341 341 336 338 346 343 343 344 344 342 339 337 339 333 332 330 327 321 316
300 304 305 305 306 305 306 307 309 311 309 310 311 314 314 318 319 320 323 325 328 338 340 341 342 341 341 343 346 345 344 343 345 343 341 339 337 335 333 333 331 329 323
301 303 303 304 304 305 305 306 308 309 308 308 308 310 312 317 317 320 324 325 327 333 338 341 341 340 339 341 342 343 342 342 341 343 341 340 339 335 336 335 332 331 330
300 301 302 303 303 303 304 304 304 305 307 308 308 308 312 314 313 319 321 322 324 328 333 339 339 338 336 325 324 333 340 330 338 340 340 339 340 335 335 334 332 333 332
300 300 301 302 302 303 303 304 305 306 306 307 307 307 307 311 312 316 316 318 323 327 332 335 330 326 331 323 324 323 323 324 321 332 336 336 337 333 334 334 333 331 330
300 300 300 301 302 303 302 303 304 305 305 305 306 305 305 306 311 315 315 317 318 319 326 324 322 321 322 323 325 323 322 320 320 324 331 333 334 333 333 331 329 328 326
298 299 298 298 299 299 300 300 301 302 304 303 303 302 305 306 307 310 315 316 317 320 324 321 319 318 319 322 322 321 321 319 320 326 332 334 332 329 329 330 324 317 315
296 297 298 298 297 298 298 299 300 301 302 301 301 302 302 304 305 307 312 313 315 317 322 319 321 316 322 311 311 320 326 330 331 330 331 326 323 319 316 316 313 313 313
296 297 297 298 298 297 298 298 299 300 300 300 300 300 302 302 303 305 308 312 311 312 315 316 322 317 319 307 307 313 328 329 329 330 321 320 320 317 315 310 310 310 310
296 297 296 296 295 296 295 296 297 297 297 298 299 301 301 301 302 303 306 311 310 311 313 314 320 319 323 306 307 307 323 327 326 323 320 317 316 317 319 316 316 316 317
296 296 296 295 294 294 295 294 294 294 295 296 298 299 300 300 301 302 303 308 311 313 312 315 317 318 320 308 303 308 324 325 323 323 320 318 316 304 306 313 311 312 313
295 294 294 293 293 293 294 293 293 293 292 294 296 298 299 300 300 301 303 308 312 313 315 315 316 318 321 305 304 314 325 321 320 319 317 311 313 300 304 311 311 310 312
293 293 293 292 292 294 294 293 293 292 294 295 295 297 298 298 301 301 302 303 309 312 313 313 314 316 315 308 306 311 322 320 318 317 314 313 303 298 299 305 312 310 313
292 292 292 292 293 294 294 293 293 295 296 296 296 296 296 298 300 300 300 303 307 306 310 311 311 315 314 305 300 308 310 313 317 316 316 313 302 298 297 297 301 296 300
291 292 291 291 292 293 293 292 294 296 297 297 295 296 297 296 298 300 299 302 305 305 308 310 309 312 317 311 302 303 305 306 313 314 311 297 295 295 294 295 295 297 305
290 291 290 289 289 292 293 294 295 297 297 296 297 296 296 296 296 299 301 301 301 309 306 309 308 310 316 312 309 303 303 303 304 303 302 301 301 300 303 299 296 305 307
290 290 290 289 289 291 292 294 297 298 297 297 297 297 296 296 295 298 300 300 305 305 309 308 310 308 314 314 308 306 306 305 305 306 305 304 304 303 304 306 307 307 307
290 289 289 289 290 290 291 294 295 297 297 296 296 296 295 296 296 296 298 297 297 296 296 297 306 311 308 303 301 304 303 300 299 304 303 303 304 305 305 307 309 310 308

GFSMW_sfc_thetae_090.txt.gz
Theta_e
306 306 307 309 313 318 325 332 336 335 331 330 341 344 344 342 344 343 344 343 345 347 346 344 342 337 336 336 330 332 331 329 330 325 325 328 329 332 334 338 337 338 339
302 305 308 312 311 313 315 316 315 326 341 344 346 346 345 345 346 348 345 343 344 344 345 345 343 340 339 336 336 333 331 331 331 326 324 321 323 327 334 337 338 336 337
303 307 310 310 313 315 318 321 324 322 324 331 342 343 343 340 340 341 344 347 346 345 344 343 345 343 341 339 337 336 334 331 329 329 326 319 317 320 330 334 336 337 336
305 308 308 308 310 311 316 317 317 318 320 324 324 326 333 333 336 339 341 342 344 346 345 342 341 343 341 340 338 338 336 334 329 329 330 329 324 322 322 332 335 336 335
305 306 307 309 309 310 312 314 313 315 317 318 319 321 321 326 332 334 336 337 340 342 346 344 342 340 340 339 340 338 336 335 332 331 327 328 331 329 324 322 329 332 335
304 304 305 306 307 307 308 310 310 311 313 316 318 318 317 316 318 321 326 331 334 336 340 343 343 343 341 338 338 338 336 336 334 332 331 330 327 327 325 321 322 326 328
303 304 304 304 303 304 305 308 308 308 310 313 314 314 314 315 316 319 321 326 329 330 332 339 340 341 342 341 339 338 336 337 336 335 332 331 332 331 329 324 320 321 323
302 302 303 303 303 304 306 307 307 307 308 310 311 311 312 314 316 318 319 318 322 327 329 333 339 340 339 339 335 327 326 326 328 330 336 333 332 332 327 326 322 318 318
300 301 302 302 303 302 303 302 304 305 306 309 307 308 310 312 314 316 319 319 320 324 325 327 334 338 339 337 334 330 326 326 326 328 336 335 336 336 331 328 325 323 315
299 299 300 300 301 301 301 302 302 303 305 306 306 308 307 310 312 315 315 316 320 322 323 323 325 331 338 335 332 329 327 326 329 335 337 338 337 338 332 331 327 326 322
296 297 298 299 299 299 300 301 301 301 302 304 304 304 305 307 310 312 314 319 320 318 319 320 322 326 332 334 329 325 327 329 334 338 339 338 337 336 334 332 330 327 325
296 297 298 298 299 299 301 301 302 302 304 304 304 303 304 304 305 309 312 317 316 317 318 322 321 325 329 332 333 333 335 334 333 320 321 320 324 321 335 334 330 329 329
296 296 297 298 299 299 300 300 300 300 301 302 303 303 303 302 303 305 309 313 315 318 315 317 318 320 324 330 325 326 325 325 324 322 322 321 322 319 322 333 330 328 330
297 296 296 297 298 299 299 299 299 300 301 301 301 301 302 303 304 305 306 309 314 315 315 317 318 321 324 329 327 323 323 323 321 322 320 324 322 322 326 325 331 330 329
295 296 296 297 297 298 299 300 299 300 300 299 299 299 300 302 303 303 305 308 309 315 316 317 320 322 323 326 323 322 322 321 322 321 321 323 322 321 321 330 329 327 322
296 296 297 297 296 297 297 297 297 296 297 297 298 299 300 301 302 302 303 305 306 311 314 316 319 319 320 312 312 320 323 324 323 320 320 322 319 318 317 318 319 322 318
295 295 295 295 295 295 295 294 295 296 295 295 296 298 298 298 299 300 301 303 305 307 310 312 314 320 317 307 306 310 320 319 319 318 319 322 325 323 327 313 313 311 310
294 294 294 294 294 295 295 295 295 295 295 295 295 296 296 297 300 299 299 300 305 309 308 309 312 318 319 307 305 306 325 324 324 323 324 325 322 323 321 315 313 314 313
294 295 295 294 294 294 295 294 294 294 294 294 295 296 296 296 298 299 299 299 302 307 308 311 311 315 315 307 304 305 318 324 325 326 325 322 319 305 304 316 313 311 312
295 294 294 294 293 294 294 294 294 294 294 295 296 296 296 296 296 298 300 298 302 309 311 311 313 312 313 305 304 306 315 319 323 321 319 309 314 301 302 311 310 307 309
293 294 293 292 292 294 294 292 293 293 295 297 297 297 297 296 297 297 298 299 302 306 308 309 311 313 314 313 300 303 316 321 320 317 316 313 300 300 300 303 309 307 311
292 292 291 291 292 293 292 291 292 295 296 297 297 297 298 298 299 297 298 300 300 302 305 307 309 313 312 306 304 301 308 313 319 316 317 310 298 298 298 303 297 297 307
291 291 291 290 291 292 292 291 292 294 296 296 298 298 299 298 298 296 296 299 301 302 305 308 307 310 310 311 301 300 301 304 317 317 310 299 296 295 296 295 294 298 308
290 291 290 289 289 291 291 292 293 295 295 296 297 298 298 297 297 297 297 299 300 300 305 308 308 309 311 311 308 310 310 305 310 304 302 301 300 299 298 299 298 304 304
290 291 289 289 289 290 290 292 293 294 293 297 296 296 297 296 296 297 297 300 301 300 304 307 310 307 308 313 305 308 314 312 306 304 304 304 303 302 302 302 302 302 303
291 290 289 289 289 289 290 291 292 292 293 296 296 296 295 296 296 296 296 297 295 296 295 296 305 311 304 299 300 300 299 297 299 303 304 301 301 302 302 303 304 307 306

GFSMW_sfc_thetae_093.txt.gz
Theta_e
302 305 308 310 313 318 328 332 331 330 329 327 328 330 334 342 341 343 345 343 345 350 348 346 344 340 337 336 333 330 329 327 327 324 322 324 327 327 330 333 337 338 339
301 309 310 312 313 312 316 320 322 332 330 329 328 332 336 342 344 341 342 343 342 344 345 345 344 341 338 336 335 331 330 330 329 324 320 317 321 325 329 331 335 336 337
301 307 310 311 313 315 318 319 318 322 327 338 339 340 339 338 337 338 341 343 342 343 344 344 342 341 338 338 336 335 332 330 330 331 326 317 317 319 325 330 333 335 336
304 306 306 306 310 313 314 315 317 317 319 320 321 324 328 328 333 333 337 337 342 343 343 342 341 342 342 339 339 338 335 335 331 328 331 326 322 318 317 329 332 335 336
304 304 305 307 307 310 310 310 311 312 314 316 318 319 317 321 324 325 325 327 331 337 342 342 341 341 341 342 340 339 337 336 334 332 327 328 327 327 322 316 325 332 335
303 304 304 305 305 305 308 307 307 309 311 312 314 313 312 313 314 316 320 322 325 329 334 337 338 340 340 339 340 339 339 336 335 333 332 328 325 325 326 321 322 323 329
301 301 300 301 301 301 303 307 305 305 307 308 310 311 312 310 311 312 313 317 320 324 326 329 332 335 339 339 339 338 337 337 334 334 332 331 329 330 328 326 321 320 324
298 298 299 299 300 301 301 301 302 302 303 305 307 307 307 308 309 311 313 315 316 319 323 325 328 331 334 336 338 339 337 337 332 330 328 327 327 329 332 327 325 318 317
296 297 298 299 299 299 299 299 300 300 301 302 303 304 305 305 307 309 312 315 316 319 319 322 323 325 330 333 335 335 336 335 334 333 330 326 327 328 329 331 329 324 319
295 296 297 297 298 297 298 299 299 299 300 301 301 303 303 304 305 306 308 311 315 316 319 321 320 319 321 325 330 333 334 331 331 330 329 328 327 326 330 332 329 328 325
294 295 296 297 297 297 298 299 299 299 300 300 301 301 302 302 303 305 308 309 311 316 319 318 318 318 320 322 325 328 331 331 330 329 327 327 326 327 332 335 331 329 327
294 295 295 296 297 298 298 299 299 299 300 300 300 300 301 301 302 303 305 307 309 311 314 317 318 320 320 321 323 324 328 328 327 326 325 327 326 322 323 327 329 329 328
294 294 294 295 296 298 299 299 299 299 300 300 300 300 299 300 300 301 303 305 307 309 312 316 315 315 317 318 319 323 325 328 326 326 326 328 323 320 322 322 321 324 330
294 294 294 296 297 298 298 298 298 299 298 298 297 296 296 298 300 300 300 301 306 307 309 312 316 317 316 317 319 320 324 325 328 330 326 325 323 323 323 324 323 324 324
294 295 295 295 296 296 297 298 296 296 297 296 296 296 296 296 298 299 299 301 303 304 306 308 312 315 315 318 319 320 322 324 324 325 326 326 326 325 325 325 322 322 320
295 295 295 295 295 296 295 295 295 295 296 295 295 296 296 296 297 299 299 300 300 301 303 305 307 310 314 312 310 314 321 324 323 322 322 323 321 318 316 318 318 322 323
293 293 293 294 295 294 294 294 295 295 295 295 296 296 297 296 296 297 297 299 300 300 301 303 307 310 311 308 305 307 315 321 321 321 321 321 322 317 319 313 312 314 315
292 293 294 295 294 294 295 295 295 295 295 295 295 296 297 297 297 296 296 298 299 298 299 301 307 310 311 305 302 303 312 319 318 320 320 319 320 319 319 320 320 321 319
293 293 294 294 293 294 294 294 294 294 295 295 295 297 297 297 297 296 296 297 298 299 301 303 305 307 310 305 300 304 314 316 317 317 318 320 321 310 307 318 316 315 315
294 293 293 293 293 293 294 293 293 293 293 295 296 297 298 298 297 297 296 297 298 300 300 302 308 308 309 304 300 306 313 315 315 321 321 311 317 302 304 316 314 312 314
293 293 293 292 292 293 293 291 292 292 294 295 296 297 299 299 299 298 297 297 297 298 300 302 305 309 309 310 301 303 311 314 315 319 316 314 302 301 303 306 312 309 312
291 292 291 291 292 292 292 291 291 293 294 295 296 297 298 300 301 299 298 297 297 298 298 299 303 307 308 305 303 300 300 308 315 317 316 307 299 299 300 302 297 301 309
291 292 291 290 291 292 292 290 291 293 293 294 295 297 298 298 299 298 297 296 297 298 298 300 304 304 308 311 300 298 296 301 316 317 309 300 296 296 297 295 297 302 308
291 291 291 290 289 290 291 291 292 293 292 292 294 298 297 296 298 298 298 296 296 298 300 305 303 304 308 310 308 305 303 304 311 306 303 302 301 301 298 301 303 305 305
292 291 290 289 289 290 290 291 292 291 291 292 295 298 297 296 296 297 297 297 299 299 300 302 307 307 306 310 303 306 311 315 308 305 305 305 305 303 302 302 301 301 303
292 290 290 289 289 289 290 290 291 291 291 291 294 298 297 297 296 296 295 295 294 294 293 293 296 309 300 295 295 296 298 297 299 307 306 304 305 304 302 302 301 303 303

GFSMW_sfc_thetae_096.txt.gz
Theta_e
304 305 307 312 317 325 332 330 330 334 336 333 331 331 333 337 342 343 345 346 349 350 348 346 345 342 339 339 336 335 333 330 329 327 327 327 330 331 331 333 335 337 340
305 308 307 309 314 319 329 330 330 330 331 330 330 333 334 336 341 345 344 345 345 346 347 346 344 340 338 338 337 334 333 333 331 328 325 324 328 328 331 332 333 335 338
302 307 310 311 314 316 317 319 321 329 333 331 333 336 339 339 338 340 341 343 343 343 344 345 341 338 339 337 338 336 333 331 333 331 330 321 319 324 328 330 332 334 334
304 306 307 309 311 313 316 316 317 318 321 327 330 333 334 333 333 333 338 336 341 342 344 343 343 342 338 336 336 339 337 334 331 332 333 332 328 322 321 330 334 334 333
303 304 305 306 307 308 308 308 311 312 314 318 319 319 319 321 322 323 323 324 329 339 342 343 343 341 341 339 339 339 339 337 335 333 332 330 329 328 323 322 323 334 338
300 300 300 302 301 302 304 304 305 305 307 308 310 310 311 313 314 315 316 318 321 325 330 338 341 341 340 340 340 340 340 338 337 336 334 331 327 326 326 325 326 327 333
297 298 298 298 299 299 300 303 301 302 303 304 305 306 306 308 309 309 310 312 315 319 323 328 331 334 338 339 340 339 338 338 337 336 335 335 332 331 330 327 327 324 332
296 296 297 297 297 299 299 300 300 300 302 303 303 304 304 305 305 307 308 310 312 315 319 323 326 329 333 336 338 338 338 338 337 336 336 337 334 332 330 328 325 324 325
295 296 297 297 297 298 298 299 299 300 301 301 301 302 303 304 304 305 307 308 311 314 317 320 322 325 329 332 333 334 336 337 336 335 335 335 334 333 332 330 329 325 320
295 295 296 297 298 298 298 298 299 299 300 300 300 302 301 303 304 304 304 306 309 312 314 316 319 322 323 324 327 329 332 333 334 334 333 332 333 330 330 329 328 327 324
294 295 295 296 297 297 297 297 298 298 298 299 299 299 300 301 302 302 303 305 306 308 309 313 316 319 320 320 320 322 326 328 330 331 330 330 331 331 330 329 327 326 326
294 294 295 295 296 296 297 298 299 299 300 300 300 299 300 300 299 300 301 303 304 306 307 309 312 314 318 320 321 320 323 325 325 327 329 329 329 329 329 327 326 327 329
294 294 294 294 295 297 298 298 298 298 299 299 298 298 297 297 297 298 300 302 303 303 303 305 308 311 315 317 318 318 319 321 325 326 327 327 327 326 327 328 328 329 330
294 294 294 295 296 296 297 297 297 297 297 297 297 296 297 297 297 297 297 298 300 300 301 303 307 309 311 315 318 318 318 319 321 324 326 326 327 326 326 326 325 324 324
294 295 294 295 295 296 297 297 296 296 297 296 296 296 297 297 298 298 298 298 299 301 302 303 304 305 306 309 314 316 316 318 320 321 323 326 327 325 326 327 327 326 324
294 294 294 295 295 295 296 296 296 296 297 295 295 296 298 298 298 298 299 298 298 299 299 300 301 302 304 303 305 310 314 317 318 319 320 324 324 323 318 319 320 325 324
292 292 294 294 294 294 294 294 295 296 295 295 296 298 298 298 298 298 298 298 298 298 298 301 301 302 303 301 302 305 311 314 316 318 319 322 325 323 325 316 314 314 314
292 293 294 294 294 294 295 295 295 294 294 295 296 297 297 297 298 298 298 298 298 297 297 298 300 301 302 301 301 303 310 313 315 317 320 322 322 323 324 324 322 322 321
293 294 294 294 294 294 294 294 293 294 294 294 295 296 297 297 297 297 298 298 298 297 297 298 299 301 302 301 300 302 311 313 314 318 320 322 321 311 307 323 320 321 322
294 293 293 293 293 293 294 292 292 293 293 294 295 296 296 297 297 298 299 299 299 298 298 298 299 301 303 303 299 301 309 313 313 317 319 309 318 304 303 320 320 319 317
292 293 293 292 292 293 293 291 291 291 294 294 295 295 296 297 299 299 300 299 298 298 297 298 300 301 303 305 300 299 312 312 313 315 317 319 303 300 301 309 319 318 315
292 293 292 291 292 293 292 290 290 292 293 293 294 294 296 298 300 298 298 299 298 296 296 298 300 302 304 303 301 297 298 306 313 313 317 314 298 298 300 309 302 302 310
292 293 292 291 292 292 291 289 290 292 292 292 292 294 296 299 299 297 297 297 297 296 296 298 300 302 307 310 299 298 297 297 307 316 310 300 298 299 300 298 299 304 317
291 292 291 290 289 291 291 291 291 292 291 290 292 294 296 299 299 298 298 297 297 297 298 299 300 303 307 312 312 309 305 298 307 303 303 302 300 302 303 306 308 312 312
292 291 290 290 289 290 290 291 291 291 290 290 292 293 295 298 299 299 298 298 299 298 296 298 300 300 304 309 302 302 309 314 307 305 307 306 306 307 306 307 307 308 309
291 289 289 289 289 290 290 290 290 290 289 289 291 292 295 298 300 299 299 296 294 294 294 292 293 299 298 294 293 293 297 296 299 308 307 305 306 306 306 305 305 308 308

GFSMW_sfc_thetae_102.txt.gz
Theta_e
317 319 320 327 328 333 337 337 339 347 347 342 345 349 349 353 354 355 359 358 358 357 353 353 354 350 354 353 349 350 351 348 349 341 338 340 343 346 346 349 347 347 346
315 318 320 323 326 331 338 340 343 344 344 344 346 347 349 350 355 355 357 356 354 355 354 355 356 358 351 352 351 350 345 343 345 335 333 326 330 336 343 346 344 345 345
318 320 322 327 331 334 338 342 346 348 346 347 347 348 349 349 346 348 354 355 356 356 349 353 356 358 358 351 352 350 348 339 339 341 330 322 320 329 337 344 340 346 343
321 322 323 324 325 327 329 330 330 332 332 337 343 345 344 343 343 347 347 347 350 353 354 355 355 356 356 352 350 347 345 343 336 338 339 337 333 324 323 335 339 344 342
318 318 318 319 321 322 323 325 326 325 326 327 327 326 329 327 330 332 333 336 339 340 342 347 348 353 354 353 352 352 348 343 340 337 337 338 337 338 332 326 330 338 338
315 316 317 318 318 319 320 321 323 323 324 323 323 322 322 323 322 325 324 325 326 328 331 333 337 343 346 346 347 351 351 350 347 343 341 336 332 331 331 329 332 332 336
314 314 314 315 316 316 318 318 320 320 321 321 322 321 322 323 322 321 320 322 321 322 328 330 331 330 334 336 342 348 349 348 345 348 340 339 337 337 337 334 329 329 332
313 312 312 313 314 315 317 317 318 319 320 320 320 321 322 319 319 321 319 319 319 320 325 324 325 326 329 330 333 334 337 343 342 346 346 335 334 335 334 332 331 326 330
310 310 311 313 314 315 315 316 317 318 318 318 319 320 320 319 318 319 320 318 320 319 320 321 321 322 323 324 329 326 335 341 343 340 344 340 333 331 331 333 331 327 320
309 310 311 311 313 314 315 316 317 316 316 317 318 317 317 318 318 317 317 318 318 318 318 318 319 319 320 321 323 324 329 334 335 334 337 338 334 333 330 329 328 327 324
308 308 310 310 311 312 313 314 314 314 315 315 315 315 315 315 315 315 315 315 315 315 314 314 315 315 316 318 320 321 321 324 332 334 336 337 339 331 328 330 328 327 327
307 308 309 309 310 311 312 312 313 313 313 313 313 313 314 314 313 313 313 314 313 313 312 312 312 311 312 314 314 313 316 319 322 328 331 332 333 335 338 331 332 329 332
307 309 309 308 308 309 310 311 312 312 312 312 311 312 312 312 312 311 312 311 311 310 310 309 308 308 309 309 310 311 312 315 318 322 326 329 331 332 330 332 330 328 330
305 307 307 307 308 309 309 309 310 310 311 310 310 310 311 311 311 311 310 309 307 306 306 306 306 306 305 305 306 306 307 310 313 318 323 325 328 330 331 331 332 332 328
306 306 305 306 307 307 307 307 308 308 310 309 309 309 310 310 310 307 306 306 307 307 306 305 305 305 305 303 304 305 306 307 308 309 312 320 323 321 324 329 330 330 328
304 303 304 305 305 305 304 305 306 307 308 308 308 308 308 308 307 307 306 306 307 306 306 306 306 305 303 301 301 303 302 303 304 305 307 311 315 317 315 314 315 322 329
302 302 303 303 303 303 302 302 303 306 307 307 307 307 308 308 306 306 306 305 306 306 305 307 304 306 304 300 299 300 302 301 303 304 304 307 311 311 319 315 312 313 311
302 302 302 301 301 301 301 301 302 304 306 306 306 307 307 306 307 307 307 305 304 303 305 306 306 305 304 300 298 299 301 301 302 303 305 306 309 311 311 320 322 323 326
302 301 300 299 300 300 299 299 298 302 302 303 305 306 305 305 307 305 304 305 303 301 303 306 307 305 305 299 297 299 302 301 303 306 308 309 311 304 301 312 316 321 323
300 299 299 299 299 298 298 295 296 299 298 300 302 303 303 304 302 302 302 303 301 302 303 304 305 304 303 300 297 298 302 301 303 304 306 304 308 302 300 309 318 317 318
299 299 299 296 295 295 295 294 295 295 296 298 299 301 304 304 303 303 304 302 301 303 304 304 303 305 305 305 298 297 304 303 303 306 308 315 301 299 299 300 317 317 319
297 297 297 297 297 296 294 293 292 294 295 295 297 301 303 302 301 304 302 302 304 306 302 302 305 307 310 306 304 299 297 304 309 311 311 314 302 298 298 301 303 300 305
297 298 296 296 295 294 292 291 292 293 293 294 295 299 301 300 301 303 302 302 305 303 306 304 304 306 310 313 303 300 298 299 300 305 306 301 298 296 300 297 298 298 314
297 298 297 295 294 293 292 291 291 292 291 292 294 298 296 296 301 300 302 306 305 304 302 302 304 306 309 309 312 314 315 306 307 306 306 304 303 303 309 307 303 311 319
297 296 295 294 293 293 292 292 291 290 289 290 292 294 293 294 298 300 301 303 306 304 303 302 302 300 299 301 300 298 301 302 301 298 309 306 306 307 310 311 313 318 317
295 294 293 292 292 292 291 291 292 290 288 288 289 291 291 293 297 299 299 299 297 296 294 293 295 299 296 295 293 292 292 291 294 310 308 309 312 311 312 313 314 317 314

GFSMW_sfc_thetae_105.txt.gz
Theta_e
319 322 324 326 327 334 342 344 343 354 351 341 337 339 341 344 348 354 359 359 358 356 359 348 345 351 350 354 358 353 349 344 348 348 345 345 350 351 347 351 348 350 351
318 320 322 324 328 335 340 345 344 348 346 339 345 339 337 336 343 356 356 358 356 355 358 355 348 353 347 355 349 352 344 348 347 341 341 332 335 342 345 348 348 350 348
317 322 324 328 333 337 340 344 348 350 349 349 347 348 348 347 344 349 350 358 358 357 357 355 356 351 322 326 330 339 342 339 342 342 338 329 323 330 339 345 346 350 346
321 324 327 330 333 334 335 337 338 341 342 347 349 350 343 347 348 355 354 350 351 351 353 350 352 347 329 333 326 343 346 346 340 344 342 342 339 326 325 337 343 346 345
322 322 323 325 327 329 330 331 332 332 333 334 336 339 337 333 337 340 341 344 342 340 337 342 347 351 352 349 347 347 349 347 343 341 339 340 339 340 332 327 328 337 339
320 320 322 323 323 325 326 328 328 328 329 329 329 330 328 328 326 328 326 327 328 329 334 333 336 339 341 345 347 348 349 348 347 344 341 337 335 332 333 331 331 332 333
318 319 319 319 320 321 322 324 325 325 326 326 327 327 327 328 327 326 323 325 324 324 333 336 334 331 335 334 339 340 345 346 344 347 341 339 335 336 333 331 328 329 333
317 317 318 318 318 320 321 322 322 323 324 324 324 325 326 323 323 325 323 322 322 322 331 328 327 327 327 328 333 330 331 338 338 344 344 341 339 336 334 334 331 327 330
316 316 317 317 318 319 320 321 320 321 322 322 324 324 324 324 323 324 324 321 324 322 324 323 323 324 324 325 328 324 328 332 334 335 339 341 339 338 335 332 333 328 323
314 315 316 316 317 318 319 320 320 320 320 321 321 320 321 322 322 322 321 321 321 321 320 319 319 320 320 321 325 322 325 327 327 329 331 334 335 337 338 335 332 330 328
313 314 314 314 315 316 317 318 318 318 318 319 319 319 319 320 320 319 319 319 319 318 317 317 316 316 316 318 320 320 320 319 322 326 326 327 333 331 332 335 334 330 328
312 313 313 313 314 314 315 315 317 316 317 317 317 318 318 318 318 317 317 317 316 315 315 314 313 312 311 313 313 313 313 313 314 317 318 321 327 330 332 333 333 332 330
311 311 313 313 312 312 313 314 314 315 316 316 316 317 316 316 316 316 316 315 313 312 311 309 308 308 308 308 309 308 307 309 310 310 312 317 321 324 327 330 331 330 331
311 312 313 312 312 312 312 311 312 314 315 315 315 314 315 315 314 314 313 312 311 309 310 310 309 309 308 308 308 307 308 307 308 309 313 313 313 317 322 325 327 329 328
310 310 310 310 310 310 310 311 311 313 314 313 313 313 314 314 313 312 311 311 311 310 310 309 309 309 307 307 307 308 307 306 305 308 308 309 313 312 311 311 319 326 326
310 308 308 308 308 309 309 309 310 311 312 312 312 312 312 311 311 312 310 310 309 309 309 308 308 306 307 304 303 305 306 305 305 303 306 308 309 309 307 308 310 313 319
307 306 307 307 308 308 308 307 307 308 309 310 311 311 310 309 309 310 310 310 310 311 309 309 308 306 307 302 300 302 304 304 303 304 305 305 306 308 308 308 308 310 309
306 306 306 306 307 306 305 305 305 305 306 308 308 309 309 309 309 309 309 311 309 309 308 306 304 306 307 302 299 300 304 304 304 303 305 304 306 308 308 309 311 314 315
305 305 306 304 304 302 302 301 302 302 302 305 305 307 308 307 307 306 307 308 307 306 304 304 305 307 307 302 298 299 303 303 303 305 307 306 306 303 299 308 309 310 311
305 304 304 303 302 301 300 299 299 299 300 300 301 304 305 305 305 305 307 306 308 305 305 306 309 306 308 303 299 300 306 304 304 307 305 302 303 300 298 304 306 304 307
302 302 301 301 300 300 298 297 296 296 296 297 299 301 303 304 306 307 306 307 306 307 307 307 309 309 308 311 301 298 308 308 305 305 305 307 301 297 297 298 306 306 311
300 301 300 298 299 298 297 294 293 294 295 296 296 298 301 304 304 305 305 306 307 307 306 305 306 308 310 307 305 299 299 307 308 305 306 308 301 298 299 297 300 298 302
301 301 301 300 300 298 296 292 293 292 292 293 294 297 301 304 304 304 303 302 304 305 305 305 305 303 305 308 302 299 299 299 300 306 304 301 299 297 297 295 297 297 309
299 300 299 299 298 298 296 294 293 292 291 290 292 295 298 299 303 303 303 302 302 302 304 304 303 300 299 301 302 302 304 303 305 306 306 304 303 301 305 306 300 309 316
298 299 297 297 296 296 295 293 293 293 290 289 290 291 294 296 299 303 302 302 305 302 300 302 299 296 294 296 294 293 296 302 302 297 300 303 307 307 310 314 316 317 318
297 296 296 294 294 294 293 293 293 293 292 288 288 288 292 294 295 296 299 298 296 295 293 294 294 294 293 292 294 295 294 291 291 303 309 308 307 308 310 314 314 314 314

GFSMW_sfc_thetae_108.txt.gz
Theta_e
320 325 329 334 337 347 349 349 353 358 357 356 348 348 348 351 354 356 358 356 350 346 335 329 339 346 345 346 343 332 326 335 339 336 335 338 339 341 332 339 347 345 347
318 323 328 332 339 344 348 349 351 356 359 355 354 353 350 347 349 353 360 359 357 353 345 347 349 345 343 333 330 327 323 331 331 331 324 317 317 326 333 343 343 345 347
319 321 324 330 338 342 347 349 351 352 352 358 353 354 352 351 345 348 349 354 356 357 356 355 352 349 335 330 329 325 322 322 327 331 323 316 314 321 329 335 340 342 347
321 323 326 333 338 337 339 339 341 344 343 350 349 352 347 344 341 341 342 343 345 347 346 350 348 346 331 324 326 329 323 329 325 333 332 329 330 323 320 331 336 340 343
323 324 327 330 330 333 332 334 335 335 337 337 338 340 339 337 339 339 336 338 340 345 341 339 339 343 336 333 334 328 324 334 333 333 333 331 329 331 327 321 324 332 338
322 322 325 327 326 328 328 331 331 332 333 333 333 332 332 332 329 330 329 331 330 332 338 331 334 335 336 337 337 341 339 338 338 336 335 332 328 327 329 327 327 328 330
319 319 319 320 323 324 326 327 328 328 331 331 331 331 331 333 333 330 329 327 325 326 327 330 330 328 329 329 330 331 332 333 334 337 336 337 336 333 330 328 324 324 327
318 318 319 320 319 321 324 324 326 326 328 328 329 330 331 326 327 327 325 324 323 324 329 327 324 323 323 324 326 325 324 326 327 329 332 334 335 336 332 328 323 318 322
317 317 318 319 319 320 323 323 323 325 325 326 328 329 327 327 326 327 328 324 324 321 323 322 322 322 321 321 321 319 321 323 323 324 325 327 327 331 335 333 329 322 315
315 316 316 318 320 321 321 324 324 323 324 325 325 322 325 325 325 325 323 323 322 321 320 319 319 319 318 318 318 316 317 318 318 319 320 321 323 324 326 328 329 329 323
313 314 315 316 317 319 318 321 320 320 321 322 323 323 323 322 322 321 321 320 320 319 316 316 315 313 312 313 312 312 312 312 312 314 314 315 317 317 320 322 324 326 326
313 313 313 314 314 314 315 317 318 317 318 319 320 321 322 321 321 320 319 319 317 316 313 313 311 310 310 310 309 308 308 308 308 308 309 309 311 310 314 316 319 322 324
312 312 312 312 312 313 313 313 314 314 315 316 317 320 320 320 319 317 318 317 314 312 312 311 310 310 310 309 308 307 307 307 307 307 306 306 306 307 309 311 314 318 322
312 312 312 312 312 312 311 311 311 313 314 314 315 316 318 318 317 316 316 314 313 312 311 311 310 309 309 309 308 307 307 308 308 307 307 306 306 306 307 309 310 313 310
310 311 310 311 310 310 310 310 311 312 313 312 313 315 317 316 315 314 314 314 312 311 310 309 308 309 309 308 307 306 306 305 305 306 306 306 307 308 308 306 306 306 305
308 309 308 308 308 308 308 309 308 309 310 310 311 313 314 313 313 313 313 312 312 312 311 310 309 308 308 304 303 305 305 306 306 304 304 305 307 306 306 306 307 306 304
308 307 307 307 307 307 307 305 305 307 307 307 310 310 311 310 311 311 311 310 310 310 308 309 308 307 306 302 301 303 305 305 305 304 304 304 305 305 304 304 305 306 305
306 306 306 305 305 305 304 303 303 304 304 305 307 308 307 308 309 309 308 308 307 306 307 307 307 305 306 302 300 301 304 305 305 305 304 304 303 304 303 304 304 306 307
305 305 305 304 303 301 301 300 300 301 301 301 301 302 303 305 306 305 304 307 306 307 307 307 307 307 307 303 300 301 306 306 306 306 305 305 304 302 299 303 302 303 305
304 304 303 302 301 300 300 298 297 298 296 297 298 299 301 302 303 304 305 305 306 306 307 307 308 308 309 304 300 301 306 305 306 307 307 303 303 300 297 302 302 301 303
302 303 302 300 299 299 298 296 296 294 295 295 296 297 298 301 302 305 304 306 306 306 305 307 309 309 308 307 300 299 303 304 304 305 307 309 301 297 296 297 302 301 303
302 302 301 300 300 299 296 294 293 294 294 293 294 295 298 300 302 303 303 304 305 305 304 304 305 308 307 302 300 297 297 298 299 301 305 309 300 297 296 297 298 296 298
300 301 300 300 300 299 297 293 293 294 293 291 292 294 295 298 299 301 303 302 304 302 301 301 302 301 301 300 297 295 295 297 298 302 304 300 298 297 298 296 296 296 300
298 299 298 297 296 297 296 295 294 294 294 291 290 291 292 295 298 301 301 300 301 301 300 301 300 297 296 295 295 295 297 301 304 304 305 303 301 299 303 303 302 302 306
298 298 296 295 294 295 295 294 294 294 293 292 290 289 290 294 296 297 297 295 298 296 297 300 297 293 291 292 291 292 294 299 301 298 303 308 305 304 306 307 310 308 309
296 295 294 294 293 294 293 293 294 294 294 292 291 289 289 291 292 293 293 292 292 293 293 293 292 292 291 291 291 292 293 295 296 306 309 308 308 307 308 310 312 314 311

GFSMW_sfc_thetae_111.txt.gz
Theta_e
311 319 333 334 340 345 344 340 343 345 348 348 342 340 340 343 346 348 348 345 345 343 333 328 328 327 331 329 327 326 323 324 324 325 324 329 325 323 332 332 333 333 335
311 316 326 337 337 337 339 344 344 345 345 345 339 339 338 342 342 343 345 346 344 342 333 327 327 335 332 328 326 325 321 321 324 323 322 315 318 319 329 329 332 328 332
311 325 331 334 337 336 337 338 336 337 337 341 338 337 336 333 335 337 335 336 345 346 336 335 336 340 333 327 325 323 319 316 320 325 322 313 311 317 323 327 331 335 337
316 329 329 327 328 328 329 328 329 329 330 333 338 337 333 329 329 328 328 330 334 337 335 334 339 335 323 321 322 325 321 318 316 326 329 326 321 318 316 322 327 330 331
320 323 322 324 325 325 325 325 324 324 324 325 327 323 321 322 325 322 320 321 321 325 325 328 330 332 326 323 322 327 322 321 319 322 327 327 326 324 320 317 321 323 326
318 319 321 322 321 322 321 321 321 321 322 322 322 321 319 319 318 316 318 318 318 320 323 324 322 321 322 321 325 331 327 324 326 328 331 329 324 323 323 321 321 321 324
315 315 316 316 318 318 319 320 318 318 319 320 319 319 317 317 317 316 315 314 314 315 318 318 316 316 316 317 318 319 321 323 326 328 329 331 330 330 327 324 322 321 324
313 313 314 314 314 316 316 317 316 316 317 317 316 317 316 315 315 316 315 314 315 314 316 315 316 316 316 315 315 316 316 318 318 317 319 321 323 327 329 326 323 319 319
312 311 312 312 313 313 313 314 314 313 314 315 315 314 314 314 314 314 314 313 314 316 314 314 313 314 315 314 313 312 312 314 315 315 315 315 317 318 319 321 323 320 315
311 311 311 311 312 312 312 313 312 312 313 312 312 313 313 314 313 313 312 311 312 312 312 311 310 309 309 308 307 306 307 307 308 311 310 311 312 313 315 314 315 317 317
308 309 310 310 311 312 311 310 309 310 310 310 311 311 311 312 312 311 311 311 310 309 308 308 307 307 306 306 304 304 305 305 304 305 306 307 307 307 309 309 310 313 314
308 308 308 308 307 307 309 308 308 307 308 309 310 310 311 311 310 310 310 310 307 307 307 307 306 307 307 305 305 304 305 305 304 304 303 304 306 303 303 303 303 306 311
307 306 305 305 306 306 306 306 306 306 308 309 308 309 309 309 308 308 308 308 306 306 306 306 306 306 306 305 305 305 306 304 306 306 305 304 304 303 301 302 302 305 308
307 305 305 305 305 306 306 305 305 307 307 308 307 307 308 308 307 307 307 306 306 306 305 305 305 306 306 306 306 307 306 303 305 307 307 305 304 303 302 302 303 303 302
307 305 303 304 303 303 304 305 305 305 305 306 306 306 308 307 306 306 305 307 306 306 307 306 307 307 306 307 303 303 303 302 302 303 304 304 306 308 307 304 302 301 300
304 304 304 304 303 303 303 303 302 303 304 303 303 306 306 306 305 306 306 304 304 304 305 306 307 304 305 303 303 304 302 302 302 302 304 305 307 306 306 306 306 305 300
303 302 302 302 300 300 300 298 299 301 301 301 303 304 303 303 303 304 303 302 302 303 306 305 303 302 303 302 301 303 304 305 304 303 303 303 305 305 305 304 304 304 304
301 300 300 299 298 298 298 300 298 298 299 298 298 299 299 299 301 301 300 301 305 304 304 304 305 304 305 302 300 301 304 304 305 304 304 304 304 304 303 302 301 301 302
300 299 299 298 297 298 299 298 298 298 296 295 295 296 297 298 299 299 301 303 304 304 304 305 306 305 307 302 300 300 302 302 302 304 306 307 306 303 298 302 301 300 302
299 297 297 297 297 296 297 296 295 293 292 293 294 295 296 296 298 300 301 303 303 304 305 305 304 304 305 302 298 298 299 297 299 300 302 303 304 301 297 301 301 300 302
298 297 296 293 293 293 292 293 292 290 293 293 293 294 296 296 299 300 301 301 303 304 304 302 301 301 302 300 296 296 296 296 295 296 298 301 299 298 296 297 303 302 303
297 297 295 293 293 292 290 289 290 293 293 290 291 293 293 295 297 298 300 302 302 302 299 298 298 300 298 298 296 294 293 294 294 297 300 302 298 297 297 297 298 296 299
295 295 294 292 292 292 290 287 288 293 293 291 290 291 290 293 295 297 297 296 298 296 295 296 296 294 295 295 294 292 293 294 296 301 304 299 297 296 296 296 295 295 300
293 293 292 290 289 291 290 289 290 292 293 289 290 290 290 291 294 294 295 291 292 292 293 295 290 291 291 291 292 292 293 296 301 305 308 306 301 297 297 300 301 302 303
292 291 290 289 289 290 289 289 290 290 290 290 290 289 290 290 291 293 293 291 291 291 290 291 289 288 288 289 290 290 292 296 299 304 309 310 310 308 306 305 306 307 305
290 289 288 288 289 289 288 289 289 289 290 289 289 289 289 289 289 288 290 292 291 291 290 291 289 289 290 290 290 290 291 292 293 301 303 304 305 307 310 309 309 311 307

GFSMW_sfc_thetae_114.txt.gz
Theta_e
306 314 338 335 332 329 332 334 337 338 339 340 338 339 343 343 342 345 346 344 342 342 336 332 330 329 328 325 324 321 321 323 326 323 326 327 334 328 324 327 330 333 335
305 325 335 337 333 333 336 336 337 339 339 342 338 339 340 338 340 342 343 344 343 340 334 330 326 327 327 324 324 322 319 319 320 316 319 315 318 324 323 327 331 331 334
322 329 332 335 337 338 338 335 335 336 336 341 337 334 333 335 334 330 331 333 341 342 336 331 328 332 329 325 323 322 319 316 315 319 315 311 311 315 319 327 330 330 329
327 327 326 327 327 327 329 328 327 328 332 336 334 330 327 326 325 324 323 324 325 327 331 334 335 336 329 326 325 322 317 314 312 316 324 320 317 313 315 320 323 329 330
323 321 321 322 323 323 322 323 323 323 324 324 322 324 323 321 318 318 318 318 321 322 324 322 325 326 323 321 320 320 320 318 315 314 315 321 323 321 319 316 321 323 326
319 319 320 320 319 320 320 320 320 319 320 321 318 317 316 315 315 314 313 313 315 317 319 319 317 316 315 315 317 319 321 321 319 320 322 323 323 323 323 320 321 322 325
317 317 317 317 317 316 317 318 317 316 316 317 316 316 314 314 313 312 311 312 312 312 312 313 313 313 313 313 313 313 314 315 315 319 321 322 322 323 322 321 321 321 324
315 316 316 316 315 315 315 315 315 314 314 315 313 313 313 313 312 311 311 311 310 311 311 311 312 313 314 313 312 311 311 312 311 311 312 313 315 316 319 318 316 313 317
311 311 313 313 314 314 313 312 312 313 313 313 311 311 312 311 311 310 311 310 311 313 311 310 309 309 308 308 306 305 305 306 305 305 307 307 308 310 310 311 312 311 307
310 311 312 311 312 311 310 310 310 310 310 310 310 310 310 311 310 310 309 309 309 308 307 306 306 306 306 306 304 303 304 303 303 305 304 304 305 305 305 306 308 309 308
309 310 311 311 309 309 308 307 308 307 307 308 309 309 309 310 309 309 308 308 307 306 306 306 305 305 305 305 303 302 303 304 303 303 303 303 304 304 302 302 303 302 303
309 311 310 308 307 306 306 305 305 306 306 307 308 308 308 308 308 307 307 307 305 305 305 306 305 306 306 305 303 303 305 304 304 303 303 303 306 302 301 302 300 300 300
305 305 306 305 304 304 304 304 305 304 305 306 306 306 306 307 306 306 306 307 305 304 304 305 304 305 305 304 304 303 304 304 304 304 303 303 304 304 302 301 300 301 302
304 303 303 303 304 303 303 303 303 303 303 304 303 303 304 306 305 305 305 304 304 304 304 304 305 305 305 305 305 304 302 302 303 303 303 303 303 303 302 302 302 302 300
303 302 301 301 300 301 301 301 301 301 301 301 301 302 303 304 303 303 303 303 303 303 304 304 304 303 304 305 304 305 305 304 303 304 303 303 305 307 306 303 303 303 301
302 302 302 300 299 299 298 299 298 299 300 300 300 300 300 301 301 301 301 301 301 302 302 303 302 302 304 303 303 305 304 305 304 303 304 304 306 306 307 307 308 306 302
301 300 298 297 296 296 297 295 296 297 297 296 298 298 298 298 298 300 300 299 299 300 301 300 304 302 302 301 301 302 304 304 303 304 304 304 306 306 305 305 305 305 304
299 297 297 295 295 295 295 296 296 294 294 294 294 296 295 296 297 297 298 298 299 300 300 302 305 302 304 302 300 300 301 301 301 302 303 303 304 305 305 304 304 303 303
297 296 296 295 293 294 294 294 292 292 292 292 292 293 294 294 295 296 299 298 298 301 301 301 302 301 302 300 297 297 297 297 299 301 302 302 302 301 298 303 303 303 303
298 296 296 293 292 291 292 291 290 289 289 291 291 292 294 296 296 298 299 301 301 302 304 302 301 301 300 297 296 296 294 294 296 297 299 300 299 297 296 299 302 301 302
297 295 293 290 290 290 290 288 288 288 292 290 290 292 294 293 296 297 298 300 300 298 299 298 298 299 296 295 294 294 292 293 293 295 298 302 299 298 296 296 300 302 304
295 294 291 290 289 289 288 287 286 289 294 289 289 290 292 292 295 296 296 295 295 295 293 294 293 293 293 294 293 292 292 293 294 296 301 306 300 297 296 295 296 295 297
294 293 291 290 289 288 287 285 286 289 290 289 288 289 291 292 294 293 290 289 291 290 291 292 288 288 292 292 292 291 292 294 296 300 301 298 299 301 300 298 294 293 299
290 289 289 288 287 287 288 287 288 289 289 288 289 291 290 291 292 293 293 289 289 288 289 289 287 286 290 290 290 290 291 294 296 299 304 302 301 301 304 301 302 302 301
288 288 287 286 286 287 287 286 287 287 287 288 290 290 290 290 290 290 292 290 291 289 288 289 288 287 287 288 289 289 290 292 293 297 299 299 300 299 300 302 305 309 306
287 286 286 286 286 287 286 286 287 287 286 287 287 287 288 289 290 289 290 291 291 290 289 289 289 289 289 289 289 289 290 290 291 294 294 294 294 296 295 296 296 299 301

GFSMW_sfc_thetae_117.txt.gz
Theta_e
303 325 332 335 335 333 329 328 329 330 335 334 336 337 334 337 338 336 338 343 343 342 337 332 330 329 327 326 325 323 322 322 323 322 320 322 325 327 329 325 325 326 329
305 329 330 333 331 330 329 329 332 335 335 336 337 338 337 335 338 338 339 341 342 339 334 330 327 326 324 323 322 320 318 318 320 315 314 310 313 317 324 324 324 324 328
315 329 329 328 327 327 329 332 332 334 335 338 334 332 334 332 327 326 327 331 335 340 335 331 327 327 325 322 322 321 319 316 314 314 312 306 305 311 316 317 320 324 328
323 330 330 327 327 328 328 329 334 333 337 336 330 330 327 323 320 319 320 322 324 325 330 335 332 334 329 329 329 327 318 313 310 312 318 316 314 309 309 316 319 322 324
325 328 329 322 323 324 322 322 323 324 325 326 327 326 320 319 317 316 317 317 318 320 320 319 321 320 321 320 319 319 317 318 318 316 313 315 318 319 318 315 318 321 322
319 319 320 321 319 320 319 319 320 319 319 320 320 318 316 316 314 312 313 313 313 314 315 316 314 312 312 312 312 313 313 313 315 317 319 320 320 320 319 317 317 318 323
316 317 316 317 317 316 317 318 317 315 316 317 316 317 314 313 311 311 311 311 310 310 310 311 311 311 312 312 310 309 309 309 308 309 309 311 312 316 315 315 312 313 316
314 314 315 316 315 316 316 315 315 314 314 314 314 314 313 312 310 310 310 309 308 308 309 310 310 309 309 308 305 305 305 306 304 304 304 305 307 308 308 308 308 306 308
312 313 314 314 314 314 314 313 313 312 311 311 311 310 310 310 309 308 308 308 308 310 308 307 306 306 306 305 303 302 302 302 301 301 301 302 304 305 306 306 306 305 300
311 311 312 313 313 312 310 310 310 309 309 309 310 310 309 309 308 308 307 307 307 306 305 304 304 304 304 304 302 301 302 302 302 303 301 301 301 301 302 303 302 303 301
309 311 312 311 309 308 308 308 307 306 306 308 307 308 308 308 308 308 307 307 305 304 304 305 304 304 304 304 302 302 302 302 302 303 303 303 302 301 302 300 300 300 300
309 309 309 307 306 306 306 306 305 305 305 307 307 307 307 307 306 305 306 306 304 303 304 304 304 304 304 304 303 302 303 303 302 303 303 303 305 303 303 301 300 300 300
308 307 305 304 304 304 304 303 303 302 303 304 304 304 304 305 304 304 304 305 303 303 304 304 304 304 304 303 303 303 303 303 303 304 303 302 302 301 301 302 301 301 302
304 302 303 303 303 303 302 300 301 300 301 301 300 300 300 301 302 302 302 303 303 302 303 303 303 303 303 304 304 304 305 305 305 305 305 304 302 301 301 302 302 302 300
302 302 301 301 300 299 299 298 298 299 299 299 298 297 298 300 301 301 300 300 301 301 302 302 302 302 302 305 304 305 305 303 303 304 305 304 306 308 307 305 303 301 300
301 301 300 299 298 297 296 296 296 296 296 295 295 297 297 297 297 298 299 299 299 300 300 301 301 300 303 303 303 304 303 302 302 302 304 305 307 307 308 308 308 307 303
301 298 297 296 295 295 295 293 293 294 293 293 295 295 295 295 296 297 297 297 297 298 298 299 300 302 300 301 300 301 299 299 299 300 301 302 305 306 306 306 306 306 305
297 295 294 293 293 293 293 292 292 292 292 291 292 293 293 293 294 294 295 296 296 297 297 299 300 300 301 300 297 298 296 296 297 298 300 300 301 303 303 303 303 304 305
296 295 294 293 293 293 293 291 289 289 290 289 290 291 292 292 293 294 296 296 295 297 301 302 302 297 297 297 295 295 295 294 294 297 298 299 300 300 298 300 300 300 302
296 294 294 293 292 291 290 288 288 288 288 289 289 290 294 294 294 296 295 298 299 300 300 299 296 298 294 294 294 294 292 291 293 295 297 299 300 297 298 299 299 298 300
295 294 293 291 291 289 287 286 287 287 290 289 289 289 292 292 294 295 296 294 295 296 295 294 292 291 292 292 294 293 291 291 291 293 296 301 299 297 296 296 299 300 301
294 294 290 288 287 287 286 285 286 287 290 289 288 288 289 292 294 294 292 291 289 288 289 289 288 289 290 293 292 291 291 292 293 294 298 301 297 295 296 300 297 294 295
291 291 289 287 287 286 286 285 286 288 289 288 287 290 292 292 293 293 290 289 287 286 288 289 288 287 290 290 291 291 291 293 294 296 297 296 295 296 298 297 296 299 300
288 289 288 286 285 286 286 285 286 287 287 286 287 288 292 291 292 292 291 289 288 286 287 287 287 288 288 288 289 289 291 293 294 295 299 297 296 296 295 296 297 298 299
286 287 286 285 284 285 284 284 286 286 285 285 286 286 286 287 290 291 291 290 289 288 287 287 288 287 286 287 289 289 289 290 291 294 294 293 293 293 292 292 293 294 295
285 285 284 284 284 284 284 285 286 286 285 285 285 284 286 286 288 289 290 291 291 290 289 289 288 288 289 289 289 289 289 289 290 291 289 290 289 290 289 289 289 291 291

GFSMW_sfc_thetae_120.txt.gz
Theta_e
302 309 329 334 335 334 335 331 329 330 334 335 337 338 339 337 337 338 340 342 344 343 338 337 336 334 333 332 330 328 327 328 327 326 326 324 327 327 329 332 331 330 331
302 324 329 332 333 333 331 328 330 330 333 335 337 338 337 338 341 341 340 342 342 338 337 333 333 332 330 328 327 326 323 323 324 323 318 315 318 319 324 327 327 328 329
300 323 327 329 331 329 328 329 331 332 333 335 335 335 334 332 329 330 330 332 338 337 334 332 330 329 327 326 325 325 324 322 320 320 320 314 311 315 320 324 324 326 327
306 323 325 326 327 325 329 331 332 333 334 335 334 333 331 324 323 322 324 324 327 329 334 334 333 332 331 329 329 327 325 320 317 319 319 319 319 314 313 320 324 328 328
316 322 323 324 325 327 327 327 328 329 334 334 332 325 319 318 317 319 318 318 319 320 319 319 318 317 317 318 318 319 321 322 321 319 320 320 321 320 316 314 319 325 328
320 321 323 322 320 321 320 321 321 319 321 323 323 320 318 316 315 315 314 315 314 314 316 316 315 315 314 314 314 314 315 314 315 316 317 317 316 316 314 313 313 314 318
319 319 320 319 318 317 318 319 317 316 318 319 318 318 316 315 314 314 313 313 312 311 312 313 313 313 314 313 311 311 311 311 310 310 310 312 311 312 312 310 308 308 311
318 318 317 316 316 316 318 317 316 315 317 317 317 316 315 314 313 313 312 311 310 310 312 311 311 310 310 310 308 307 307 308 306 306 306 305 307 309 310 308 305 300 303
313 313 315 315 315 314 315 316 314 314 315 315 314 313 315 314 313 312 311 310 310 311 310 309 308 308 308 308 308 306 306 306 306 306 305 304 306 307 307 308 307 303 296
311 311 311 311 311 312 312 313 313 311 311 312 313 311 311 311 310 310 309 309 310 309 308 308 307 307 307 307 307 306 306 305 305 306 306 306 305 305 305 305 305 304 302
309 309 309 309 311 311 310 309 309 310 309 310 310 310 310 310 310 309 309 309 309 308 307 307 307 307 307 308 307 306 306 306 306 306 306 306 307 305 305 304 304 303 303
308 307 307 308 307 306 306 306 307 307 308 309 309 308 309 309 308 308 308 309 307 307 306 307 307 307 307 307 306 305 306 305 305 306 306 305 307 307 306 305 304 304 304
305 303 304 304 303 304 304 304 305 304 305 305 304 304 305 307 306 306 306 307 306 306 306 306 306 306 306 306 306 306 305 305 306 306 306 306 306 305 305 305 304 304 304
303 303 302 302 301 302 302 302 301 301 302 301 300 300 301 302 303 303 304 304 305 304 305 305 305 305 305 305 306 306 307 306 306 307 307 307 306 306 305 305 305 305 303
302 301 300 299 299 299 299 299 299 299 299 298 298 297 299 300 301 301 302 302 302 303 303 303 304 304 304 306 305 305 303 302 303 303 304 306 307 309 309 307 306 306 304
301 300 300 299 298 297 296 297 295 295 297 296 296 297 297 298 298 299 300 301 301 301 302 302 303 303 304 301 302 301 299 299 299 299 301 303 305 306 306 307 307 307 304
300 300 299 297 296 295 294 293 293 294 293 293 294 294 295 295 296 297 298 299 299 299 300 301 302 303 302 299 297 298 297 297 298 298 299 300 302 303 303 303 304 305 305
298 297 295 295 294 293 292 292 293 292 291 291 292 293 293 294 295 296 297 297 298 299 299 301 303 301 300 297 295 296 296 295 297 297 298 298 299 301 301 301 301 302 303
295 294 294 292 292 292 291 291 291 291 290 289 290 291 293 294 295 296 297 298 298 299 301 300 299 297 295 295 294 294 294 294 294 296 297 298 299 299 297 299 299 301 304
294 293 292 292 290 290 291 290 289 290 289 289 289 290 293 293 294 296 296 296 297 297 298 297 295 294 293 293 293 293 292 291 292 294 297 298 298 296 295 297 299 298 300
293 292 291 289 289 290 290 289 288 288 290 290 290 290 291 293 295 295 293 293 292 293 294 293 292 292 291 292 292 292 291 291 291 293 296 299 297 295 294 294 299 295 296
292 292 290 289 288 288 288 287 287 289 290 290 290 290 291 293 295 293 292 290 290 290 292 290 290 291 292 292 291 291 291 292 292 294 297 298 295 293 293 294 292 293 297
291 290 288 286 286 287 287 286 286 288 289 289 289 290 292 293 293 291 290 288 289 288 288 288 288 289 290 290 290 291 291 292 293 295 296 295 293 293 295 293 293 293 294
290 288 287 286 285 285 286 286 287 288 288 288 288 289 290 292 292 292 290 288 287 287 287 287 287 287 288 288 289 290 291 291 292 293 294 294 293 293 293 293 292 293 292
287 287 285 285 284 285 285 286 287 287 287 287 288 288 288 289 290 292 291 289 289 288 286 286 287 286 285 286 288 288 289 290 290 292 291 291 291 291 290 291 291 291 290
285 285 284 284 284 285 285 286 287 287 287 286 286 287 288 288 289 289 290 291 290 289 287 288 288 286 287 287 287 288 289 289 289 290 288 287 287 287 287 287 287 288 288

GFSMW_sfc_thetae_123.txt.gz
Theta_e
312 313 319 333 341 347 348 349 350 350 350 349 347 348 343 347 348 349 347 342 338 339 337 339 337 341 338 339 341 339 336 336 337 335 335 336 338 339 337 335 336 337 337
310 312 316 329 337 343 346 348 348 347 349 349 349 350 347 348 347 345 343 341 335 331 337 339 335 336 337 335 335 336 334 334 335 332 330 326 328 330 332 333 331 333 333
311 317 322 328 333 339 344 344 345 346 348 349 349 345 345 343 341 341 337 336 333 334 338 339 337 335 336 334 336 336 335 333 335 330 329 323 319 323 328 329 329 333 332
311 314 324 329 333 337 342 342 341 343 345 348 347 346 343 340 340 336 336 336 340 339 337 335 335 336 336 334 332 332 330 328 328 330 330 329 325 321 319 327 329 331 330
310 313 324 330 335 335 336 338 341 343 344 345 346 346 342 338 336 334 333 328 329 329 328 327 324 324 323 324 325 325 325 326 325 323 321 323 324 325 320 315 320 324 325
316 323 329 328 325 326 326 329 329 330 338 343 343 340 334 333 331 329 327 327 326 325 324 322 323 323 323 321 321 322 321 320 320 319 318 317 315 315 314 312 312 313 316
321 322 323 322 321 322 324 326 326 320 321 324 328 331 330 330 327 327 326 324 321 321 322 323 322 320 320 319 318 318 317 316 314 314 312 312 312 312 311 309 308 307 311
321 322 321 320 322 327 328 327 325 323 320 317 320 322 324 323 323 322 323 322 318 318 320 318 317 317 317 317 317 315 314 316 314 314 314 312 312 312 311 309 307 304 307
318 319 318 321 324 324 324 325 324 322 321 317 318 320 320 320 320 319 321 318 318 316 315 316 316 316 316 316 317 314 315 315 314 314 314 313 312 312 312 311 310 306 302
314 315 316 321 323 323 323 324 323 318 316 317 318 321 319 318 319 318 317 317 318 317 316 315 316 315 316 316 316 314 314 314 313 313 313 313 313 313 313 312 311 310 307
312 313 317 319 319 320 320 319 318 315 315 316 318 320 319 318 318 317 317 317 317 315 314 314 314 314 314 314 314 314 313 312 313 314 313 313 315 313 313 313 312 311 310
314 315 315 315 315 315 316 316 317 316 316 315 315 315 317 318 317 316 317 317 315 315 314 314 313 313 312 313 312 312 312 313 312 313 313 313 313 314 314 311 311 310 311
312 312 311 311 311 312 313 314 315 315 316 315 315 315 316 316 315 315 316 316 315 314 314 313 312 311 311 311 312 313 313 313 313 313 312 312 312 312 312 310 309 310 310
309 308 309 308 308 309 309 310 310 311 312 312 312 312 312 313 313 313 313 312 312 312 312 312 311 311 311 311 312 312 312 311 311 311 310 311 311 310 309 309 309 308 307
307 306 306 306 306 306 306 306 306 307 308 308 307 307 309 310 310 310 310 310 310 310 310 310 310 311 311 309 309 308 308 309 308 308 309 311 309 307 307 307 306 305 304
305 305 304 304 304 304 303 303 303 304 306 305 304 305 306 306 306 307 307 308 309 309 309 309 309 310 309 299 298 300 304 306 306 307 308 310 308 308 305 306 306 305 302
303 302 300 300 300 301 302 301 301 302 302 302 302 302 303 303 303 305 306 306 307 308 308 309 310 308 308 297 296 297 303 304 305 305 306 306 307 304 305 304 303 304 304
302 300 296 295 297 300 299 299 298 298 299 299 300 301 302 302 303 304 304 306 306 307 308 308 306 305 302 295 294 294 303 304 304 302 303 303 302 303 300 300 302 306 307
299 297 296 296 296 296 296 296 295 297 297 297 298 299 300 301 302 302 301 302 304 305 305 305 302 302 302 293 294 295 301 302 300 299 300 300 302 298 295 299 300 301 303
295 294 293 294 296 296 297 297 296 297 295 296 297 298 300 301 301 299 300 301 301 301 302 300 299 297 299 293 292 293 297 297 296 297 301 300 298 294 293 297 296 294 294
293 293 292 291 292 295 297 295 296 295 296 297 297 298 300 300 300 299 298 297 297 297 296 297 299 299 296 295 292 291 293 293 294 298 301 303 294 293 293 293 295 293 293
291 292 292 293 295 294 295 295 294 296 298 298 298 298 299 299 298 296 295 293 292 292 291 294 296 296 295 292 291 291 291 293 293 297 298 298 293 292 292 294 291 291 294
291 292 292 290 293 295 295 294 294 296 297 297 298 298 298 298 296 294 291 289 289 288 289 290 293 292 293 291 290 290 291 292 293 296 295 293 292 293 295 293 292 292 293
290 291 290 291 291 294 294 294 295 295 296 296 296 297 296 296 296 295 294 292 289 290 292 291 290 290 290 288 288 289 291 291 291 293 295 293 292 293 292 296 294 292 291
291 291 292 291 292 293 294 295 295 296 295 295 296 296 296 296 296 296 294 293 289 288 289 288 289 287 286 286 286 287 289 289 289 292 292 290 288 289 290 290 291 289 289
292 291 291 292 292 293 294 294 295 297 296 295 295 294 296 296 295 294 293 289 288 287 286 286 286 288 286 285 285 286 288 287 288 289 288 286 285 286 289 289 289 289 286